[[{"header":{"parameterUnit":"m.s-1","parameterCategory":1,"la1":30.6,"la2":28.766,"lo1":-90.7593,"lo2":-88.6598,"dy":0.0162,"dx":0.0183,"nx":116,"ny":114,"refTime":"2023-07-28T12:00:00:Z","depth":0,"parameterNumber":2,"parameterNumberName":"U-component_of_WINDS"},"data":[0.0,0.0,0.0,0.0,0.0,0.0,0.0,0.0,0.0,0.0,0.0,0.0,0.0,0.0,0.0,0.0,0.0,0.0,0.0,0.0,0.0,0.0,0.0,0.0,0.0,0.0,0.0,0.0,0.0,0.0,0.0,0.0,0.0,0.0,0.0,0.0,0.0,0.0,0.0,0.0,0.0,0.0,0.0,0.0,0.0,0.0,0.0,0.0,0.0,0.0,0.0,0.0,0.0,0.0,0.0,0.0,0.0,0.0,0.0,0.0,0.0,0.0,0.0,0.0,0.0,0.0,0.0,0.0,0.0,0.0,0.0,0.0,0.0,0.0,0.0,0.0,0.0,0.0,0.0,0.0,0.0,0.0,0.0,0.0,0.0,0.0,0.0,0.0,0.0,0.0,0.0,0.0,0.0,0.0,0.0,0.0,0.0,0.0,0.0,0.0,0.0,0.0,0.0,0.0,0.0,0.0,0.0,0.0,0.0,0.0,0.0,0.0,0.0,0.0,0.0,0.0,0.0,0.0,0.0,0.0,0.0,0.0,0.0,0.0,0.0,0.0,0.0,0.0,0.0,0.0,0.0,0.0,0.0,0.0,0.0,0.0,0.0,0.0,0.0,0.0,0.0,0.0,0.0,0.0,0.0,0.0,0.0,0.0,0.0,0.0,0.0,0.0,0.0,0.0,0.0,0.0,0.0,0.0,0.0,0.0,0.0,0.0,0.0,0.0,0.0,0.0,0.0,0.0,0.0,0.0,0.0,0.0,0.0,0.0,0.0,0.0,0.0,0.0,0.0,0.0,0.0,0.0,0.0,0.0,0.0,0.0,0.0,0.0,0.0,0.0,0.0,0.0,0.0,0.0,0.0,0.0,0.0,0.0,0.0,0.0,0.0,0.0,0.0,0.0,0.0,0.0,0.0,0.0,0.0,0.0,0.0,0.0,0.0,0.0,0.0,0.0,0.0,0.0,0.0,0.0,0.0,0.0,0.0,0.0,0.0,0.0,0.0,0.0,0.0,0.0,0.0,0.0,0.0,0.0,0.0,0.0,0.0,0.0,0.0,0.0,0.0,0.0,0.0,0.0,0.0,0.0,0.0,0.0,0.0,0.0,0.0,0.0,0.0,0.0,0.0,0.0,0.0,0.0,0.0,0.0,0.0,0.0,0.0,0.0,0.0,0.0,0.0,0.0,0.0,0.0,0.0,0.0,0.0,0.0,0.0,0.0,0.0,0.0,0.0,0.0,0.0,0.0,0.0,0.0,0.0,0.0,0.0,0.0,0.0,0.0,0.0,0.0,0.0,0.0,0.0,0.0,0.0,0.0,0.0,0.0,0.0,0.0,0.0,0.0,0.0,0.0,0.0,0.0,0.0,0.0,0.0,0.0,0.0,0.0,0.0,0.0,0.0,0.0,0.0,0.0,0.0,0.0,0.0,0.0,0.0,0.0,0.0,0.0,0.0,0.0,0.0,0.0,0.0,0.0,0.0,0.0,0.0,0.0,0.0,0.0,0.0,0.0,0.0,0.0,0.0,0.0,0.0,0.0,0.0,0.0,0.0,0.0,0.0,0.0,0.0,0.0,0.0,0.0,0.0,0.0,0.0,0.0,0.0,0.0,0.0,0.0,0.0,0.0,0.0,0.0,0.0,0.0,0.0,0.0,0.0,0.0,0.0,0.0,0.0,0.0,0.0,0.0,0.0,0.0,0.0,0.0,0.0,0.0,0.0,0.0,0.0,0.0,0.0,0.0,0.0,0.0,0.0,0.0,0.0,0.0,0.0,0.0,0.0,0.0,0.0,0.0,0.0,0.0,0.0,0.0,0.0,0.0,0.0,0.0,0.0,0.0,0.0,0.0,0.0,0.0,0.0,0.0,0.0,0.0,0.0,0.0,0.0,0.0,0.0,0.0,0.0,0.0,0.0,0.0,0.0,0.0,0.0,0.0,0.0,0.0,0.0,0.0,0.0,0.0,0.0,0.0,0.0,0.0,0.0,0.0,0.0,0.0,0.0,0.0,0.0,0.0,0.0,0.0,0.0,0.0,0.0,0.0,0.0,0.0,0.0,0.0,0.0,0.0,0.0,0.0,0.0,0.0,0.0,0.0,0.0,0.0,0.0,0.0,0.0,0.0,0.0,0.0,0.0,0.0,0.0,0.0,0.0,0.0,0.0,0.0,0.0,0.0,0.0,0.0,0.0,0.0,0.0,0.0,0.0,0.0,0.0,0.0,0.0,0.0,0.0,0.0,0.0,0.0,0.0,0.0,0.0,0.0,0.0,0.0,0.0,0.0,0.0,0.0,0.0,0.0,0.0,0.0,0.0,0.0,0.0,0.0,0.0,0.0,0.0,0.0,0.0,0.0,0.0,0.0,0.0,0.0,0.0,0.0,0.0,0.0,0.0,0.0,0.0,0.0,0.0,0.0,0.0,0.0,0.0,0.0,0.0,0.0,0.0,0.0,0.0,0.0,0.0,0.0,0.0,0.0,0.0,0.0,0.0,0.0,0.0,0.0,0.0,0.0,0.0,0.0,0.0,0.0,0.0,0.0,0.0,0.0,0.0,0.0,0.0,0.0,0.0,0.0,0.0,0.0,0.0,0.0,0.0,0.0,0.0,0.0,0.0,0.0,0.0,0.0,0.0,0.0,0.0,0.0,0.0,0.0,0.0,0.0,0.0,0.0,0.0,0.0,0.0,0.0,0.0,0.0,0.0,0.0,0.0,0.0,0.0,0.0,0.0,0.0,0.0,0.0,0.0,0.0,0.0,0.0,0.0,0.0,0.0,0.0,0.0,0.0,0.0,0.0,0.0,0.0,0.0,0.0,0.0,0.0,0.0,0.0,0.0,0.0,0.0,0.0,0.0,0.0,0.0,0.0,0.0,0.0,0.0,0.0,0.0,0.0,0.0,0.0,0.0,0.0,0.0,0.0,0.0,0.0,0.0,0.0,0.0,0.0,0.0,0.0,0.0,0.0,0.0,0.0,0.0,0.0,0.0,0.0,0.0,0.0,0.0,0.0,0.0,0.0,0.0,0.0,0.0,0.0,0.0,0.0,0.0,0.0,0.0,0.0,0.0,0.0,0.0,0.0,0.0,0.0,0.0,0.0,0.0,0.0,0.0,0.0,0.0,0.0,0.0,0.0,0.0,0.0,0.0,0.0,0.0,0.0,0.0,0.0,0.0,0.0,0.0,0.0,0.0,0.0,0.0,0.0,0.0,0.0,0.0,0.0,0.0,0.0,0.0,0.0,0.0,0.0,0.0,0.0,0.0,0.0,0.0,0.0,0.0,0.0,0.0,0.0,0.0,0.0,0.0,0.0,0.0,0.0,0.0,0.0,0.0,0.0,0.0,0.0,0.0,0.0,0.0,0.0,0.0,0.0,0.0,0.0,0.0,0.0,0.0,0.0,0.0,0.0,0.0,0.0,0.0,0.0,0.0,0.0,0.0,0.0,0.0,0.0,0.0,0.0,0.0,0.0,0.0,0.0,0.0,0.0,0.0,0.0,0.0,0.0,0.0,0.0,0.0,0.0,0.0,0.0,0.0,0.0,0.0,0.0,0.0,0.0,0.0,0.0,0.0,0.0,0.0,0.0,0.0,0.0,0.0,0.0,0.0,0.0,0.0,0.0,0.0,0.0,0.0,0.0,0.0,0.0,0.0,0.0,0.0,0.0,0.0,0.0,0.0,0.0,0.0,0.0,0.0,0.0,0.0,0.0,0.0,0.0,0.0,0.0,0.0,0.0,0.0,0.0,0.0,0.0,0.0,0.0,0.0,0.0,0.0,0.0,0.0,0.0,0.0,0.0,0.0,0.0,0.0,0.0,0.0,0.0,0.0,0.0,0.0,0.0,0.0,0.0,0.0,0.0,0.0,0.0,0.0,0.0,0.0,0.0,0.0,0.0,0.0,0.0,0.0,0.0,0.0,0.0,0.0,0.0,0.0,0.0,0.0,0.0,0.0,0.0,0.0,0.0,0.0,0.0,0.0,0.0,0.0,0.0,0.0,0.0,0.0,0.0,0.0,0.0,0.0,0.0,0.0,0.0,0.0,0.0,0.0,0.0,0.0,0.0,0.0,0.0,0.0,0.0,0.0,0.0,0.0,0.0,0.0,0.0,0.0,0.0,0.0,0.0,0.0,0.0,0.0,0.0,0.0,0.0,0.0,0.0,0.0,0.0,0.0,0.0,0.0,0.0,0.0,0.0,0.0,0.0,0.0,0.0,0.0,0.0,0.0,0.0,0.0,0.0,0.0,0.0,0.0,0.0,0.0,0.0,0.0,0.0,0.0,0.0,0.0,0.0,0.0,0.0,0.0,0.0,0.0,0.0,0.0,0.0,0.0,0.0,0.0,0.0,0.0,0.0,0.0,0.0,0.0,0.0,0.0,0.0,0.0,0.0,0.0,0.0,0.0,0.0,0.0,0.0,0.0,0.0,0.0,0.0,0.0,0.0,0.0,0.0,0.0,0.0,0.0,0.0,0.0,0.0,0.0,0.0,0.0,0.0,0.0,0.0,0.0,0.0,0.0,0.0,0.0,0.0,0.0,0.0,0.0,0.0,0.0,0.0,0.0,0.0,0.0,0.0,0.0,0.0,0.0,0.0,0.0,0.0,0.0,0.0,0.0,0.0,0.0,0.0,0.0,0.0,0.0,0.0,0.0,0.0,0.0,0.0,0.0,0.0,0.0,0.0,0.0,0.0,0.0,0.0,0.0,0.0,0.0,0.0,0.0,0.0,0.0,0.0,0.0,0.0,0.0,0.0,0.0,0.0,0.0,0.0,0.0,0.0,0.0,0.0,0.0,0.0,0.0,0.0,0.0,0.0,0.0,0.0,0.0,0.0,0.0,0.0,0.0,0.0,0.0,0.0,0.0,0.0,0.0,0.0,0.0,0.0,0.0,0.0,0.0,0.0,0.0,0.0,0.0,0.0,0.0,0.0,0.0,0.0,0.0,0.0,0.0,0.0,0.0,0.0,0.0,0.0,0.0,0.0,0.0,0.0,0.0,0.0,0.0,0.0,0.0,0.0,0.0,0.0,0.0,0.0,0.0,0.0,0.0,0.0,0.0,0.0,0.0,0.0,0.0,0.0,0.0,0.0,0.0,0.0,0.0,0.0,0.0,0.0,0.0,0.0,0.0,0.0,0.0,0.0,0.0,0.0,0.0,0.0,0.0,0.0,0.0,0.0,0.0,0.0,0.0,0.0,0.0,0.0,0.0,0.0,0.0,0.0,0.0,0.0,0.0,0.0,0.0,0.0,0.0,0.0,0.0,0.0,0.0,0.0,0.0,0.0,0.0,0.0,0.0,0.0,0.0,0.0,0.0,0.0,0.0,0.0,0.0,0.0,0.0,0.0,0.0,0.0,0.0,0.0,0.0,0.0,0.0,0.0,0.0,0.0,0.0,0.0,0.0,0.0,0.0,0.0,0.0,0.0,0.0,0.0,0.0,0.0,0.0,0.0,0.0,0.0,0.0,0.0,0.0,0.0,0.0,0.0,0.0,0.0,0.0,0.0,0.0,0.0,0.0,0.0,0.0,0.0,0.0,0.0,0.0,0.0,0.0,0.0,0.0,0.0,0.0,0.0,0.0,0.0,0.0,0.0,0.0,0.0,0.0,0.0,0.0,0.0,0.0,0.0,0.0,0.0,0.0,0.0,0.0,0.0,0.0,0.0,0.0,0.0,0.0,0.0,0.0,0.0,0.0,0.0,0.0,0.0,0.0,0.0,0.0,0.0,0.0,0.0,0.0,0.0,0.0,0.0,0.0,0.0,0.0,0.0,0.0,0.0,0.0,0.0,0.0,0.0,0.0,0.0,0.0,0.0,0.0,0.0,0.0,0.0,0.0,0.0,0.0,0.0,0.0,0.0,0.0,0.0,0.0,0.0,0.0,0.0,0.0,0.0,0.0,0.0,0.0,0.0,0.0,0.0,0.0,0.0,0.0,0.0,0.0,0.0,0.0,0.0,0.0,0.0,0.0,0.0,0.0,0.0,0.0,0.0,0.0,0.0,0.0,0.0,0.0,0.0,0.0,0.0,0.0,0.0,0.0,0.0,0.0,0.0,0.0,0.0,0.0,0.0,0.0,0.0,0.0,0.0,0.0,0.0,0.0,0.0,-1.8245,0.0,0.0,0.0,0.0,0.0,0.0,0.0,0.0,0.0,0.0,0.0,0.0,0.0,0.0,0.0,0.0,0.0,0.0,0.0,0.0,0.0,0.0,0.0,0.0,0.0,0.0,0.0,0.0,0.0,0.0,0.0,0.0,0.0,0.0,0.0,0.0,0.0,0.0,0.0,0.0,0.0,0.0,0.0,0.0,0.0,0.0,0.0,0.0,0.0,0.0,0.0,0.0,0.0,0.0,0.0,0.0,0.0,0.0,0.0,0.0,0.0,0.0,0.0,0.0,0.0,0.0,0.0,0.0,0.0,0.0,0.0,0.0,0.0,0.0,0.0,0.0,0.0,0.0,0.0,0.0,0.0,0.0,0.0,0.0,0.0,0.0,0.0,0.0,0.0,0.0,0.0,0.0,0.0,0.0,0.0,0.0,0.0,0.0,0.0,0.0,0.0,0.0,0.0,0.0,0.0,0.0,0.0,0.0,0.0,0.0,0.0,0.0,0.0,0.0,0.0,0.0,-1.9113,0.0,0.0,0.0,0.0,0.0,0.0,0.0,0.0,0.0,0.0,0.0,0.0,0.0,0.0,0.0,0.0,0.0,0.0,0.0,0.0,0.0,0.0,0.0,0.0,0.0,0.0,0.0,0.0,0.0,0.0,0.0,0.0,0.0,0.0,0.0,0.0,0.0,0.0,0.0,0.0,0.0,0.0,0.0,0.0,0.0,0.0,0.0,0.0,0.0,0.0,0.0,0.0,0.0,0.0,0.0,0.0,0.0,0.0,0.0,0.0,0.0,0.0,0.0,0.0,0.0,0.0,0.0,0.0,0.0,0.0,0.0,0.0,0.0,0.0,0.0,0.0,0.0,0.0,0.0,0.0,0.0,0.0,0.0,0.0,0.0,0.0,0.0,0.0,0.0,0.0,0.0,0.0,0.0,0.0,0.0,0.0,0.0,0.0,0.0,0.0,0.0,0.0,0.0,0.0,0.0,0.0,0.0,0.0,-2.215,-2.2725,-2.3665,-2.4044,-2.4554,-2.5018,-2.2514,-2.1589,-2.1692,0.0,0.0,0.0,0.0,0.0,0.0,0.0,0.0,0.0,0.0,0.0,0.0,0.0,0.0,0.0,0.0,0.0,0.0,0.0,0.0,0.0,0.0,0.0,0.0,0.0,0.0,0.0,0.0,0.0,0.0,0.0,0.0,0.0,0.0,0.0,0.0,0.0,0.0,0.0,-2.2741,-2.2741,-2.2578,-2.2158,0.0,0.0,0.0,0.0,0.0,0.0,0.0,0.0,0.0,0.0,0.0,0.0,0.0,0.0,0.0,0.0,0.0,0.0,0.0,0.0,0.0,0.0,0.0,0.0,0.0,0.0,0.0,0.0,0.0,0.0,0.0,0.0,0.0,0.0,0.0,0.0,0.0,0.0,0.0,0.0,0.0,0.0,0.0,0.0,-1.9647,-1.9668,0.0,0.0,0.0,0.0,0.0,0.0,0.0,0.0,0.0,0.0,0.0,0.0,0.0,-2.1937,-2.2611,-2.3217,-2.3848,-2.4517,-2.5014,-2.531,-2.5454,-2.5532,-2.561,-2.5662,-2.5271,0.0,-2.3547,-2.3269,0.0,0.0,0.0,0.0,0.0,0.0,0.0,0.0,0.0,0.0,0.0,0.0,0.0,0.0,0.0,0.0,0.0,0.0,0.0,0.0,0.0,0.0,0.0,0.0,0.0,0.0,0.0,0.0,0.0,0.0,0.0,0.0,0.0,0.0,0.0,0.0,-2.1738,-2.3283,-2.4204,-2.4204,-2.4204,-2.415,-2.2861,-2.1342,-1.9714,-1.8905,0.0,0.0,0.0,0.0,0.0,0.0,0.0,0.0,0.0,0.0,0.0,0.0,0.0,0.0,0.0,0.0,0.0,0.0,0.0,0.0,0.0,0.0,0.0,0.0,0.0,0.0,0.0,0.0,0.0,0.0,0.0,0.0,0.0,0.0,0.0,0.0,0.0,0.0,0.0,-1.9565,-2.0741,-2.1287,-2.0791,-2.0141,0.0,0.0,0.0,0.0,0.0,0.0,0.0,0.0,0.0,-2.2801,-2.3732,-2.4493,-2.5123,-2.5715,-2.6321,-2.6915,-2.7144,-2.7432,-2.7771,-2.7771,-2.7771,-2.7771,-2.7771,-2.7438,-2.6805,-2.5109,-2.3933,-2.3176,0.0,0.0,0.0,0.0,-2.2296,-2.2524,0.0,0.0,0.0,0.0,0.0,0.0,0.0,0.0,0.0,0.0,0.0,0.0,0.0,0.0,0.0,-1.9228,0.0,0.0,0.0,0.0,0.0,0.0,0.0,0.0,0.0,0.0,0.0,0.0,-2.3283,-2.4109,-2.5005,-2.5168,-2.5236,-2.5236,-2.5398,-2.4028,-2.1643,-2.1307,-2.0084,0.0,0.0,0.0,0.0,0.0,0.0,0.0,0.0,0.0,0.0,0.0,0.0,0.0,0.0,0.0,0.0,0.0,0.0,0.0,0.0,0.0,0.0,0.0,0.0,0.0,0.0,0.0,0.0,0.0,0.0,0.0,0.0,0.0,0.0,0.0,0.0,0.0,0.0,-2.0867,-2.1773,-2.2727,-2.2425,-2.1968,0.0,0.0,0.0,0.0,0.0,0.0,-2.3544,-2.4127,-2.4823,-2.5699,-2.6335,-2.6909,-2.7373,-2.7758,-2.819,-2.8643,-2.8643,-2.8878,-2.931,-2.931,-2.931,-2.931,-2.931,-2.931,-2.9118,-2.6863,-2.5868,-2.5686,-2.5107,-2.4818,-2.4671,-2.4671,-2.4671,-2.4753,0.0,0.0,0.0,0.0,0.0,0.0,0.0,0.0,0.0,0.0,0.0,0.0,0.0,0.0,-2.0926,-2.1742,-2.2432,-2.2075,0.0,0.0,0.0,0.0,0.0,0.0,0.0,0.0,0.0,-2.3161,-2.4326,-2.4951,-2.5018,-2.5588,-2.5846,-2.5873,-2.644,-2.598,-2.4706,-2.3554,-2.2673,-2.1789,0.0,0.0,0.0,0.0,0.0,0.0,0.0,0.0,0.0,0.0,0.0,0.0,0.0,0.0,0.0,0.0,0.0,0.0,0.0,0.0,0.0,0.0,0.0,0.0,0.0,0.0,0.0,0.0,0.0,0.0,0.0,0.0,0.0,0.0,0.0,0.0,0.0,0.0,0.0,-2.3926,-2.4008,0.0,0.0,0.0,0.0,-2.3781,-2.4775,-2.5392,-2.5456,-2.705,-2.8014,-2.8203,-2.8826,-2.9153,-2.9179,-2.9218,-2.9209,-2.9235,-2.9235,-2.9284,-2.931,-2.931,-2.931,-2.931,-2.931,-2.931,-2.931,-2.9118,-2.8726,-2.8203,-2.8177,-2.7803,-2.732,-2.732,-2.732,-2.732,0.0,0.0,0.0,0.0,0.0,0.0,0.0,0.0,0.0,0.0,0.0,0.0,0.0,-2.2046,-2.3879,-2.4649,-2.5416,-2.5167,-2.3482,0.0,0.0,0.0,0.0,0.0,0.0,0.0,-2.3337,-2.4951,-2.5371,-2.5778,-2.6156,-2.6389,-2.6484,-2.6497,-2.6684,-2.6549,-2.6115,-2.5695,-2.4719,-2.3323,-2.1887,-1.9917,0.0,0.0,0.0,0.0,0.0,0.0,0.0,0.0,0.0,0.0,0.0,0.0,0.0,0.0,0.0,0.0,0.0,0.0,0.0,0.0,0.0,0.0,0.0,0.0,0.0,0.0,0.0,0.0,0.0,0.0,0.0,0.0,0.0,0.0,0.0,0.0,0.0,-2.4626,-2.4988,0.0,0.0,-2.5759,-2.6059,-2.6726,-2.717,-2.7574,-2.7965,-2.8565,-2.8926,-2.8996,-2.9523,-2.9823,-2.9823,-3.0189,-3.0372,-3.0372,-3.0372,-3.0372,-3.0372,-3.0372,-3.0372,-3.0372,-3.0372,-3.0372,-3.0372,-3.0372,-2.9859,-2.8996,-2.8996,-2.883,-2.866,-2.866,-2.866,-2.866,0.0,0.0,0.0,0.0,0.0,0.0,0.0,0.0,0.0,0.0,0.0,-1.9297,-2.1778,-2.4151,-2.5795,-2.6311,-2.707,-2.6688,-2.4794,0.0,0.0,0.0,0.0,0.0,0.0,-2.3188,-2.4475,-2.5887,-2.6104,-2.6416,-2.6793,-2.6996,-2.7091,-2.7104,-2.7339,-2.742,-2.742,-2.742,-2.6497,-2.4936,-2.4123,-2.2522,-2.0415,0.0,0.0,0.0,0.0,0.0,0.0,0.0,0.0,0.0,0.0,0.0,0.0,0.0,0.0,0.0,0.0,0.0,0.0,0.0,0.0,0.0,0.0,0.0,0.0,0.0,0.0,0.0,0.0,0.0,0.0,0.0,0.0,0.0,0.0,0.0,-2.4766,-2.572,-2.6164,-2.67,-2.7517,-2.7583,-2.7897,-2.8656,-2.8869,-2.9144,-2.9549,-2.9745,-2.9849,-2.9849,-3.0228,-3.0388,-3.0388,-3.079,-3.0986,-3.0986,-3.0986,-3.0986,-3.0986,-3.0986,-3.0986,-3.0986,-3.0986,-3.0986,-3.0986,-3.0986,-3.0529,-2.9836,-2.964,-2.9444,-2.931,-2.931,-2.931,-2.931,0.0,0.0,0.0,0.0,0.0,0.0,0.0,0.0,0.0,0.0,-1.7592,-2.0558,-2.3963,-2.5527,-2.6455,-2.6732,-2.7195,-2.6461,-2.4024,-2.3463,0.0,0.0,0.0,0.0,-2.3228,-2.4407,-2.5331,-2.5955,-2.6552,-2.6833,-2.686,-2.7461,-2.7732,-2.7759,-2.8343,-2.8587,-2.8587,-2.8587,-2.7936,-2.6738,-2.5575,-2.472,-2.3892,0.0,0.0,0.0,0.0,0.0,0.0,0.0,0.0,0.0,0.0,0.0,0.0,0.0,0.0,0.0,0.0,0.0,0.0,0.0,0.0,0.0,0.0,0.0,0.0,0.0,0.0,0.0,0.0,0.0,0.0,0.0,0.0,0.0,-2.4178,-2.4674,-2.5712,-2.732,-2.7542,-2.8033,-2.9196,-2.9301,-2.9314,-2.9362,-2.9849,-3.0127,-3.0127,-3.0699,-3.1013,-3.1013,-3.1026,-3.1039,-3.1039,-3.1039,-3.1039,-3.1039,-3.1039,-3.1039,-3.1039,-3.1039,-3.1039,-3.1039,-3.1013,-3.1013,-3.1013,-3.0999,-3.0986,-3.0934,-3.0348,-2.9823,-2.9362,-2.9362,-2.9362,-2.9362,0.0,0.0,0.0,0.0,0.0,0.0,0.0,0.0,0.0,0.0,-1.8747,-2.1824,-2.4697,-2.6272,-2.7324,-2.7874,-2.7655,-2.6931,-2.5635,0.0,0.0,0.0,0.0,0.0,-2.4489,-2.5263,-2.6158,-2.7216,-2.7379,-2.7691,-2.8112,-2.8261,-2.8343,-2.8356,-2.8519,-2.8587,-2.8587,-2.8587,-2.841,-2.8044,-2.7271,-2.6335,-2.5276,0.0,0.0,0.0,0.0,0.0,0.0,0.0,0.0,0.0,0.0,0.0,0.0,0.0,0.0,0.0,0.0,0.0,0.0,0.0,0.0,0.0,0.0,0.0,0.0,0.0,0.0,0.0,0.0,0.0,0.0,0.0,0.0,-2.5824,-2.5375,-2.6171,-2.7157,-2.8046,-2.8529,-2.9091,-2.9823,-2.9865,-3.0072,-3.0477,-3.066,-3.0751,-3.0751,-3.13,-3.1575,-3.1575,-3.2006,-3.2228,-3.2228,-3.2228,-3.2228,-3.2228,-3.2228,-3.2228,-3.2228,-3.2228,-3.2228,-3.2202,-3.1784,-3.1575,-3.1536,-3.1156,-3.0986,-3.096,-3.0817,-3.066,-3.0516,-3.0516,-3.0516,-3.0516,0.0,0.0,0.0,0.0,0.0,0.0,0.0,0.0,0.0,0.0,-1.9565,-2.2443,-2.5389,-2.6734,-2.7563,-2.7987,-2.7934,-2.7375,-2.6198,0.0,0.0,0.0,0.0,-2.4136,-2.5344,-2.5968,-2.6755,-2.7705,-2.7949,-2.8261,-2.8587,-2.8587,-2.8722,-2.8967,-2.8967,-2.8967,-2.8967,-2.8967,-2.8817,-2.856,-2.822,-2.7651,-2.6932,-2.609,-2.553,-2.5148,-2.4676,-2.4536,-2.448,-2.4084,0.0,0.0,0.0,0.0,0.0,0.0,0.0,0.0,0.0,0.0,0.0,0.0,0.0,0.0,0.0,0.0,0.0,0.0,0.0,0.0,0.0,0.0,0.0,0.0,-2.7046,-2.7732,-2.7607,-2.796,-2.8477,-2.9039,-2.9418,-2.9862,-3.0438,-3.049,-3.0725,-3.13,-3.1352,-3.1457,-3.1692,-3.2019,-3.2163,-3.2163,-3.2515,-3.2685,-3.2685,-3.2685,-3.2685,-3.2685,-3.2685,-3.2685,-3.2685,-3.2685,-3.2685,0.0,-3.2346,-3.2163,-3.2137,-3.1836,-3.1561,0.0,0.0,0.0,0.0,0.0,-3.0986,-3.0986,0.0,0.0,0.0,0.0,0.0,0.0,0.0,0.0,0.0,0.0,0.0,-2.2675,-2.5942,-2.7042,-2.7544,-2.761,-2.8021,-2.7619,0.0,0.0,0.0,-2.4232,-2.4218,-2.4774,-2.5968,-2.6538,-2.7118,-2.78,-2.8343,-2.8587,-2.8587,-2.8655,-2.898,-2.9515,-2.9583,-2.957,-2.9515,-2.9515,-2.9162,-2.8587,-2.8587,-2.8587,-2.8478,-2.742,-2.7483,-2.8052,-2.7029,-2.7222,-2.7853,-2.717,0.0,0.0,0.0,0.0,0.0,0.0,0.0,0.0,0.0,0.0,0.0,0.0,0.0,0.0,0.0,0.0,0.0,0.0,0.0,0.0,0.0,0.0,0.0,0.0,-2.866,-2.9575,-3.0113,-2.9797,-2.9653,-3.0127,-3.0192,-3.0451,-3.1026,-3.1078,-3.1326,-3.185,-3.1902,-3.2124,-3.2659,0.0,0.0,0.0,0.0,-3.2881,-3.2881,-3.2881,-3.2881,-3.2881,-3.2881,-3.2881,-3.2881,-3.2881,-3.2881,-3.2881,-3.2816,-3.279,-3.279,-3.2725,-3.2385,-3.1836,-3.1235,-3.0986,-3.0986,-3.0986,-3.0986,-3.0986,0.0,0.0,0.0,0.0,0.0,0.0,0.0,0.0,0.0,-1.7849,-2.0607,-2.3253,-2.6057,-2.7473,-2.8209,-2.822,-2.7856,-2.7086,0.0,0.0,-2.506,-2.5006,-2.4874,-2.5398,-2.6589,-2.6725,-2.7339,-2.8424,-2.8532,-2.8587,-2.86,-2.9122,-2.9407,-2.9529,-3.0011,-2.9957,-2.9515,-2.9515,-2.9162,-2.8587,-2.8587,-2.8587,-2.856,-2.8343,-2.865,-2.9261,-2.9561,-3.0132,-3.0683,-3.0364,-2.9894,-2.9254,-2.8278,0.0,0.0,0.0,0.0,0.0,0.0,0.0,0.0,0.0,0.0,0.0,0.0,0.0,0.0,0.0,0.0,0.0,0.0,0.0,0.0,-2.8752,-2.9523,-3.0163,-3.0738,-3.0725,-3.0699,-3.0803,-3.083,-3.1039,-3.1575,-3.1641,-3.1876,-3.2489,-3.2529,-3.2581,-3.2685,-3.3156,0.0,-3.3417,-3.3849,-3.4071,-3.4071,-3.4071,-3.4071,-3.4071,0.0,0.0,-3.4071,-3.4071,-3.4071,-3.4045,-3.36,-3.3417,-3.3378,-3.2894,-3.262,-3.2424,-3.1392,-3.0986,-3.0986,-3.0986,-3.0986,-3.0986,0.0,0.0,0.0,0.0,0.0,0.0,0.0,0.0,0.0,0.0,-1.9791,-2.2468,-2.512,-2.6031,-2.6709,-2.7334,-2.7057,0.0,0.0,-2.6067,-2.5878,-2.5563,-2.5204,-2.5546,-2.6766,-2.6793,-2.7406,-2.8587,-2.8587,-2.8587,-2.86,-2.8899,-2.923,-2.9515,-2.9808,-2.9767,-2.9515,-2.9515,-2.9162,-2.8587,-2.8587,-2.8587,-2.8587,-2.8587,-2.8962,-2.9597,-3.0269,-3.094,-3.1521,-3.1738,-3.1554,-3.1163,-3.0743,-2.96,-2.8288,0.0,0.0,0.0,0.0,0.0,0.0,0.0,0.0,0.0,0.0,0.0,0.0,0.0,0.0,-2.7328,0.0,0.0,-2.935,-3.0161,-3.0446,-3.066,-3.0947,-3.1235,-3.1418,-3.1418,-3.1418,-3.164,-3.2215,-3.2267,-3.2502,-3.3104,-3.3143,-3.326,-3.3535,-3.4123,-3.445,-3.445,-3.4972,-3.5247,-3.5247,-3.5247,-3.5116,-3.4842,-3.4842,-3.4685,-3.4397,-3.4397,-3.4397,-3.4384,-3.411,-3.3992,-3.3953,-3.3378,-3.3143,-3.3051,-3.2176,-3.1836,-3.1836,-3.1836,-3.1836,-3.1836,0.0,0.0,0.0,0.0,0.0,0.0,0.0,0.0,0.0,0.0,-1.8437,-2.1004,-2.3389,-2.392,-2.4524,0.0,0.0,0.0,0.0,-2.6682,-2.6666,-2.6285,-2.555,-2.5693,-2.6756,-2.6922,-2.7462,-2.8424,-2.8648,-2.8702,-2.8587,-2.8709,-2.9021,-2.9515,-2.9604,-2.9624,-2.9515,-2.9515,-2.9162,-2.8587,-2.8587,-2.8683,-2.8766,-2.8766,-2.9075,-2.9597,-3.0269,-3.0852,-3.1393,-3.202,-3.2231,-3.2259,-3.237,-3.1578,-3.0448,-2.9437,-2.8252,0.0,0.0,0.0,0.0,0.0,0.0,0.0,0.0,0.0,-2.8125,-2.8356,-2.9124,-2.9943,-3.0365,-3.0686,-3.0987,-3.1318,-3.1303,-3.1269,-3.1219,-3.1678,-3.2045,-3.2124,-3.2032,-3.2189,-3.2816,-3.2868,-3.3117,-3.3705,-3.3862,-3.411,-3.4554,-3.5129,-3.5456,-3.5456,-3.5874,-3.6109,-3.6109,-3.6109,-3.5887,-3.5443,-3.5351,-3.5051,-3.4567,-3.445,-3.4397,-3.4397,-3.4397,-3.4397,-3.4358,-3.3927,-3.3744,-3.3705,-3.3208,-3.3025,-3.2999,-3.2777,-3.2685,-3.2685,0.0,0.0,0.0,0.0,0.0,0.0,0.0,0.0,0.0,0.0,0.0,0.0,0.0,0.0,0.0,0.0,0.0,0.0,-2.5774,-2.6816,-2.7439,-2.7504,-2.6404,-2.6092,-2.6692,-2.7352,-2.7714,-2.78,-2.8875,-2.9139,-2.86,-2.9162,-2.9448,-2.9529,-3.0052,-2.9998,-2.9515,-2.9515,-2.9162,-2.8587,-2.8587,-2.8912,-2.9393,-2.9393,-2.9442,-2.9597,-3.0269,-3.0554,-3.0689,-3.1393,-3.1595,-3.168,-3.2231,-3.229,-3.1962,-3.1004,0.0,-2.868,-2.7528,-2.6691,-2.6226,-2.6435,-2.6942,-2.7705,0.0,0.0,-2.9591,-3.0676,-3.0861,-3.1003,-3.1581,-3.1609,-3.1529,-3.1559,-3.1998,-3.2254,-3.2,-3.25,-3.2988,-3.3379,-3.2921,-3.2829,-3.343,-3.3496,-3.3718,-3.4267,-3.4803,-3.5142,-3.5195,-3.5717,-3.6018,-3.6018,-3.607,-3.6109,-3.6109,-3.6109,-3.607,-3.6005,-3.5534,-3.526,-3.5182,-3.4633,-3.4397,-3.4397,-3.4397,-3.4397,-3.4397,-3.4332,-3.4306,-3.4293,-3.4241,-3.4201,-3.4084,-3.3064,-3.2685,-3.2685,0.0,0.0,0.0,0.0,0.0,0.0,0.0,0.0,0.0,0.0,0.0,0.0,0.0,0.0,0.0,0.0,0.0,0.0,-2.5538,-2.7001,-2.7765,-2.759,-2.689,-2.6718,-2.7197,-2.7526,-2.7853,-2.8177,-2.8722,-2.8849,-2.86,-2.8845,-2.8967,-2.898,-2.9238,-2.9414,-2.9481,-2.9481,-2.9596,-2.9716,-2.9716,-2.9856,-3.0133,-3.0525,-3.0435,-3.012,-3.0324,-3.0367,0.0,0.0,-3.1039,-3.1379,-3.1758,-3.2064,-3.2109,-3.1149,-3.0779,0.0,-2.9754,-2.8766,0.0,0.0,-2.936,-2.993,-3.0418,-3.0833,-3.1227,-3.1743,-3.178,-3.1789,-3.2032,-3.189,-3.1743,0.0,-3.1976,-3.2181,-3.1951,-3.2752,-3.342,-3.3561,-3.3639,-3.3783,-3.4031,-3.4384,-3.4672,-3.4907,-3.5443,-3.577,-3.577,-3.6305,-3.6619,-3.6619,-3.6972,-3.7155,-3.7155,-3.7155,-3.6972,-3.6619,-3.6397,-3.594,-3.5286,-3.5038,-3.4724,-3.4397,-3.4397,-3.4397,-3.4397,-3.4397,-3.4397,-3.4397,-3.4397,-3.4397,-3.4345,-3.3862,-3.3692,-3.3692,0.0,0.0,0.0,0.0,0.0,0.0,0.0,0.0,0.0,0.0,0.0,0.0,0.0,0.0,0.0,0.0,0.0,0.0,0.0,-2.668,-2.7743,-2.7874,-2.7363,-2.7251,-2.7603,-2.7792,-2.8011,-2.8233,-2.8853,-2.9028,-2.8854,-2.902,-2.9135,-2.9135,-2.9135,-2.9359,-2.9797,-2.9797,-3.0042,-3.0494,-3.0494,-3.0614,-3.0822,-3.1335,-3.1187,-3.0703,-3.021,-2.9931,0.0,0.0,-2.9846,-3.0386,-3.0717,-3.117,-3.1497,-3.0945,-3.1291,-3.1722,-3.0996,0.0,0.0,-3.0528,-3.0975,-3.1327,-3.1504,-3.187,-3.2218,-3.2218,-3.2218,-3.2218,-3.2218,-3.2073,0.0,-3.1994,-3.2353,-3.2588,-3.2566,-3.3383,-3.3986,-3.3945,-3.4204,-3.4463,-3.4633,-3.5038,-3.5365,-3.5508,-3.6031,-3.6358,-3.6358,-3.692,-3.726,-3.726,-3.7678,-3.79,-3.79,-3.79,-3.7691,-3.7246,-3.709,-3.6488,-3.5508,-3.5195,-3.4816,-3.4397,-3.4397,-3.4397,-3.4397,-3.4397,-3.4397,-3.4397,-3.4397,-3.4397,-3.4397,-3.4397,-3.4397,-3.4397,0.0,0.0,0.0,0.0,0.0,0.0,0.0,0.0,0.0,0.0,0.0,0.0,0.0,0.0,0.0,0.0,0.0,0.0,0.0,-2.557,-2.7247,-2.8795,-2.7987,-2.7555,-2.7685,-2.8284,-2.8261,-2.7628,-2.9535,-3.0099,-2.9493,-3.0144,-3.0419,-3.0419,-3.0419,-3.045,-3.0464,-3.0464,-3.0494,-3.0494,-3.0494,-3.0881,-3.148,-3.148,-3.1457,-3.1213,-2.9907,0.0,0.0,0.0,-2.7717,-2.8305,-2.8897,-2.9518,0.0,-3.0646,-3.1507,0.0,0.0,0.0,-3.158,-3.1342,-3.1287,-3.1436,-3.2055,-3.2205,-3.2218,-3.2218,-3.2218,-3.2218,-3.2218,-3.2218,-3.2359,-3.2979,-3.3501,-3.3968,-3.4351,-3.4794,-3.4977,-3.4784,-3.4564,-3.4633,0.0,-3.5286,-3.5521,-3.6044,-3.6632,-3.6972,-3.6972,-3.7547,-3.7874,-3.7874,-3.79,-3.79,-3.79,-3.79,-3.79,-3.7874,-3.7286,-3.6684,-3.6044,-3.4933,-3.441,-3.4397,-3.4397,-3.4397,-3.4397,-3.4397,-3.4397,-3.4397,-3.4397,-3.4397,-3.4397,-3.4397,-3.4397,-3.4397,0.0,0.0,0.0,0.0,0.0,0.0,0.0,0.0,0.0,0.0,0.0,0.0,0.0,0.0,0.0,0.0,0.0,0.0,0.0,-2.523,-2.7049,-2.742,-2.807,-2.8431,-2.8429,-2.8546,-2.8491,-2.8266,-2.8882,-2.9302,-2.9508,-2.9725,-3.0088,-3.0494,-3.0494,-3.0763,-3.1146,-3.1146,-3.1378,-3.1751,-3.1751,-3.1908,-3.2059,-3.1616,-3.1144,-3.0448,0.0,0.0,0.0,0.0,0.0,0.0,-2.8362,-2.9562,0.0,-3.1667,-3.2035,-3.2161,0.0,0.0,-3.2227,-3.1957,-3.1884,-3.1938,-3.2164,-3.2218,-3.2218,-3.2218,-3.2218,-3.2218,-3.2218,-3.2218,-3.2336,-3.282,-3.3338,-3.3853,-3.4246,-3.4753,-3.5086,-3.5003,-3.5294,0.0,0.0,0.0,0.0,-3.6658,-3.726,-3.7599,-3.7599,-3.7795,-3.79,-3.79,-3.79,-3.79,-3.79,-3.79,-3.79,-3.79,-3.6881,-3.6305,-3.607,-3.492,-3.4397,-3.4397,-3.4397,-3.4397,-3.4397,-3.4397,-3.4397,-3.4397,-3.4397,-3.4397,-3.4397,-3.4397,-3.4397,-3.4397,0.0,0.0,0.0,0.0,0.0,0.0,0.0,0.0,0.0,0.0,0.0,0.0,0.0,0.0,0.0,0.0,0.0,0.0,0.0,0.0,-2.5538,-2.6401,-2.7261,-2.7856,-2.8115,-2.8216,-2.8292,-2.8292,-2.8697,-2.9112,-2.9542,-2.9724,-3.0183,-3.0819,-3.0819,-3.1183,-3.1823,-3.1823,-3.2076,-3.2465,-3.2218,-3.2014,-3.1747,-3.1051,-3.0052,0.0,0.0,0.0,0.0,0.0,0.0,0.0,0.0,-2.9848,-3.1801,-3.2191,-3.2736,-3.3226,-3.3278,-3.3444,-3.3518,-3.3052,-3.2739,-3.2574,-3.2574,-3.2372,-3.2218,-3.2218,-3.2218,-3.2218,-3.2218,-3.2218,-3.2403,-3.3103,-3.3473,-3.3959,-3.4647,-3.4995,-3.5195,-3.5195,-3.5675,0.0,0.0,0.0,0.0,-3.7543,-3.7847,-3.8024,-3.8024,-3.7946,-3.79,-3.79,-3.79,-3.79,-3.79,-3.79,-3.79,-3.7887,-3.6684,-3.6109,-3.607,-3.492,-3.4397,-3.4397,-3.4397,-3.4397,-3.4397,-3.4397,-3.4397,-3.4397,-3.4397,-3.4397,-3.4397,-3.4397,-3.4397,-3.4397,0.0,0.0,0.0,0.0,0.0,0.0,0.0,0.0,0.0,0.0,0.0,0.0,0.0,0.0,0.0,0.0,0.0,0.0,0.0,0.0,0.0,-2.5656,-2.5623,-2.592,-2.6769,-2.7302,-2.7578,-2.7609,-2.8816,-2.9425,-2.9503,-3.0027,-3.0612,-3.1255,-3.1255,-3.1609,-3.221,-3.221,-3.228,-3.2342,-3.1707,-3.112,-3.0554,-2.9822,0.0,0.0,0.0,0.0,0.0,0.0,0.0,0.0,0.0,0.0,-3.286,-3.2329,-3.3602,-3.5049,-3.4424,-3.4807,-3.5222,-3.448,-3.3768,-3.3178,-3.3178,-3.2668,-3.2218,-3.2218,-3.2191,-3.2178,0.0,0.0,-3.2521,-3.3664,-3.3894,-3.4314,-3.5506,-3.5535,-3.544,0.0,0.0,0.0,0.0,0.0,0.0,-3.8562,0.0,-3.82,-3.82,-3.8011,-3.79,-3.79,-3.79,-3.79,-3.79,-3.79,-3.79,-3.7887,-3.6684,-3.6109,-3.607,-3.492,-3.4397,-3.4397,-3.4397,-3.4397,-3.4397,-3.4397,-3.4397,-3.4397,-3.4397,-3.4397,-3.4397,-3.4397,-3.4397,-3.4397,0.0,0.0,0.0,0.0,0.0,0.0,0.0,0.0,0.0,0.0,0.0,0.0,0.0,0.0,0.0,0.0,0.0,0.0,0.0,0.0,0.0,0.0,0.0,0.0,0.0,0.0,0.0,0.0,0.0,-2.7167,-2.8202,-2.8326,-2.8753,-2.939,-2.939,-2.9483,-2.963,-2.963,-2.9654,-2.9663,0.0,-2.9066,-2.842,0.0,0.0,0.0,0.0,0.0,0.0,0.0,0.0,0.0,0.0,-3.1708,-3.2654,-3.3981,-3.4774,-3.5171,-3.5121,-3.5233,-3.5222,-3.448,-3.3768,-3.3178,-3.3178,-3.2668,-3.2218,-3.2218,-3.1829,-3.1653,0.0,0.0,0.0,-3.3091,-3.3661,0.0,-3.491,-3.5358,0.0,0.0,0.0,-3.7097,-3.7088,-3.8014,0.0,0.0,-3.8557,-3.8408,-3.82,-3.8167,-3.8044,-3.79,-3.79,-3.79,-3.79,-3.79,-3.79,-3.7887,-3.6684,-3.6109,-3.607,-3.492,-3.4397,-3.4397,-3.4397,-3.4397,-3.4397,-3.4397,-3.4397,-3.4397,-3.4397,-3.4397,-3.4397,-3.4397,-3.4397,-3.4397,0.0,0.0,0.0,0.0,0.0,0.0,0.0,0.0,0.0,0.0,0.0,0.0,0.0,0.0,0.0,0.0,0.0,0.0,0.0,0.0,0.0,0.0,0.0,0.0,0.0,0.0,0.0,0.0,0.0,0.0,0.0,-2.6361,-2.6714,-2.733,-2.733,-2.7501,-2.7782,-2.7782,0.0,0.0,0.0,0.0,0.0,0.0,0.0,0.0,0.0,0.0,0.0,0.0,0.0,-3.0555,-3.2223,-3.3174,-3.3954,-3.5092,0.0,-3.5876,-3.5963,-3.5943,-3.5769,-3.5367,-3.4714,-3.4071,-3.3729,-3.2829,-3.1986,-3.1619,-3.1179,0.0,0.0,0.0,0.0,0.0,0.0,0.0,-3.4707,-3.5303,-3.571,0.0,-3.6754,0.0,-3.7329,-3.8381,-3.9024,0.0,-3.8589,-3.8349,-3.82,-3.8135,-3.8011,-3.79,-3.79,-3.79,-3.79,-3.79,-3.79,-3.7887,-3.6684,-3.6109,-3.607,-3.492,-3.4397,-3.4397,0.0,-3.4397,-3.4397,-3.4397,-3.4397,-3.4397,-3.4397,-3.4397,-3.4397,-3.4397,-3.4397,-3.4397,0.0,0.0,0.0,0.0,0.0,0.0,0.0,0.0,0.0,0.0,0.0,0.0,0.0,0.0,0.0,0.0,0.0,0.0,0.0,0.0,0.0,0.0,0.0,0.0,0.0,0.0,0.0,0.0,0.0,0.0,0.0,0.0,0.0,0.0,0.0,0.0,0.0,0.0,0.0,0.0,0.0,0.0,0.0,0.0,0.0,0.0,0.0,0.0,0.0,0.0,-2.9882,-3.1778,-3.3121,-3.4484,-3.5608,-3.5778,-3.6228,-3.6693,-3.6693,-3.66,-3.6492,-3.6492,-3.5943,-3.5203,-3.4401,-3.3066,-3.1693,-3.0786,0.0,0.0,-3.0612,0.0,-3.1648,-3.2812,0.0,-3.4002,-3.4585,-3.5181,-3.5628,-3.571,-3.6672,-3.7404,-3.7443,-3.8488,-3.9179,-3.9203,-3.8621,-3.8245,-3.8291,-3.8148,-3.7979,-3.7933,-3.79,-3.79,-3.79,-3.79,-3.79,-3.7887,-3.6684,-3.6109,-3.607,-3.492,-3.4397,-3.4397,0.0,0.0,-3.4397,-3.4397,-3.4397,-3.4397,-3.4397,-3.4397,-3.4397,-3.4397,-3.4397,-3.4397,0.0,0.0,0.0,0.0,0.0,0.0,0.0,0.0,0.0,0.0,-1.2836,0.0,0.0,0.0,0.0,0.0,0.0,0.0,0.0,0.0,0.0,0.0,0.0,0.0,0.0,0.0,0.0,0.0,0.0,0.0,0.0,0.0,0.0,0.0,0.0,0.0,0.0,0.0,0.0,0.0,0.0,0.0,0.0,0.0,0.0,0.0,0.0,0.0,0.0,0.0,-3.0252,-3.2459,-3.3873,-3.4562,-3.5081,-3.6212,-3.66,-3.6693,-3.6693,-3.66,-3.6492,-3.6492,-3.5943,-3.5235,-3.4513,-3.326,0.0,0.0,0.0,-2.9414,-3.0012,-3.0165,0.0,-3.2132,0.0,0.0,0.0,0.0,-3.5127,0.0,0.0,0.0,0.0,0.0,0.0,0.0,0.0,-3.8589,-3.8774,-3.8742,-3.8562,-3.8167,-3.7979,-3.79,-3.79,-3.79,-3.79,-3.7887,-3.6684,-3.6109,-3.607,-3.492,-3.4397,-3.4397,-3.4397,0.0,-3.4397,-3.4397,-3.4397,-3.4397,-3.4397,-3.4397,-3.4397,-3.4397,-3.4397,-3.4397,0.0,0.0,0.0,0.0,0.0,0.0,0.0,0.0,0.0,0.0,-1.3794,-1.3589,0.0,0.0,0.0,0.0,0.0,0.0,0.0,0.0,0.0,0.0,0.0,0.0,0.0,0.0,0.0,0.0,0.0,0.0,0.0,0.0,0.0,0.0,0.0,0.0,0.0,0.0,0.0,0.0,0.0,0.0,0.0,0.0,0.0,0.0,0.0,0.0,0.0,0.0,-2.9375,-3.1828,-3.3871,-3.4635,-3.5058,-3.6457,-3.6907,-3.6952,-3.6952,-3.6785,-3.66,-3.66,-3.6336,-3.5704,-3.4213,0.0,0.0,0.0,0.0,-2.7791,-2.8547,0.0,0.0,0.0,0.0,0.0,0.0,0.0,0.0,0.0,0.0,0.0,0.0,0.0,0.0,0.0,0.0,-3.8904,-3.8756,-3.8756,-3.8621,-3.8408,-3.8181,-3.8057,-3.8057,-3.7933,-3.79,-3.7887,-3.6684,-3.6109,-3.607,-3.492,-3.4397,-3.4397,-3.4397,0.0,-3.4397,-3.4397,-3.4397,-3.4397,-3.4397,-3.4397,-3.4397,-3.4397,-3.4397,-3.4397,0.0,0.0,0.0,0.0,0.0,0.0,0.0,-1.2766,-1.4047,-1.4916,-1.5027,-1.509,-1.5248,-1.4205,-1.3494,0.0,0.0,0.0,0.0,0.0,0.0,0.0,0.0,0.0,0.0,0.0,0.0,0.0,0.0,0.0,0.0,0.0,0.0,0.0,0.0,0.0,0.0,0.0,0.0,0.0,0.0,0.0,0.0,0.0,0.0,0.0,0.0,0.0,0.0,0.0,-2.8022,-3.0225,-3.2891,-3.4149,-3.4956,-3.6405,-3.6916,-3.7006,-3.7147,-3.6952,-3.6723,-3.6754,-3.6723,-3.6121,-3.4008,-3.2465,0.0,0.0,-2.6723,-2.6179,-2.6864,0.0,0.0,0.0,0.0,0.0,0.0,0.0,0.0,0.0,0.0,0.0,0.0,0.0,0.0,0.0,0.0,0.0,-3.8782,-3.8679,-3.8679,-3.8679,-3.8395,-3.8304,-3.8304,-3.8148,-3.8037,-3.8024,-3.6936,-3.6359,-3.6201,-3.522,-3.464,-3.4481,-3.4522,0.0,0.0,-3.4522,-3.4522,-3.4494,-3.4494,-3.4439,-3.4397,-3.4397,-3.4397,-3.4439,0.0,0.0,0.0,0.0,0.0,0.0,0.0,-1.3209,-1.4964,-1.6246,-1.642,-1.6673,-1.7352,-1.5074,-1.3494,0.0,0.0,0.0,0.0,0.0,0.0,0.0,0.0,0.0,0.0,0.0,0.0,0.0,0.0,0.0,0.0,0.0,0.0,0.0,0.0,0.0,0.0,0.0,0.0,0.0,0.0,0.0,0.0,0.0,0.0,0.0,0.0,0.0,0.0,0.0,0.0,-2.7621,-3.0314,-3.2449,-3.431,-3.5833,0.0,0.0,-3.7021,-3.6952,-3.6723,-3.6938,-3.6831,-3.6181,-3.4309,0.0,0.0,-2.7349,-2.5862,-2.5221,-2.53,-2.6042,0.0,0.0,0.0,0.0,0.0,0.0,0.0,0.0,0.0,0.0,0.0,0.0,0.0,0.0,0.0,0.0,-3.9261,-3.9011,-3.8863,-3.8863,-3.8666,-3.8557,-3.8557,-3.8557,-3.8557,-3.8512,-3.7878,-3.7293,-3.6704,-3.6109,-3.5453,-3.4756,-3.4962,0.0,0.0,-3.4962,-3.4921,-3.4756,-3.4756,-3.4618,-3.4397,-3.4397,-3.4397,-3.4397,0.0,0.0,0.0,0.0,0.0,0.0,0.0,-1.3257,-1.4932,-1.588,-1.6341,-1.672,-1.702,-1.5327,-1.4158,0.0,0.0,0.0,0.0,0.0,0.0,0.0,0.0,0.0,0.0,0.0,0.0,0.0,0.0,0.0,0.0,0.0,0.0,0.0,0.0,0.0,0.0,0.0,0.0,0.0,0.0,0.0,0.0,0.0,0.0,0.0,0.0,0.0,0.0,0.0,0.0,0.0,-2.8072,-2.9948,0.0,0.0,-3.5917,-3.6463,-3.7186,-3.7194,-3.7013,-3.7089,-3.7059,-3.6372,-3.3975,0.0,0.0,-2.6879,-2.5077,-2.4187,-2.435,-2.4524,-2.5207,0.0,0.0,0.0,0.0,0.0,0.0,0.0,0.0,0.0,0.0,0.0,0.0,0.0,0.0,0.0,-3.9305,-3.9203,-3.9158,-3.9158,-3.8935,-3.8787,-3.8787,-3.8679,-3.8602,-3.8589,-3.7869,-3.7272,-3.6804,-3.609,-3.5465,-3.5003,-3.5086,0.0,0.0,-3.5086,-3.4962,-3.4797,-3.4797,-3.4618,-3.4397,-3.4397,-3.4397,-3.4481,0.0,0.0,0.0,0.0,0.0,0.0,-1.1394,-1.3083,-1.4663,-1.5738,-1.6133,-1.6452,-1.6878,-1.5706,-1.4817,-1.4616,0.0,0.0,0.0,0.0,0.0,0.0,0.0,0.0,0.0,0.0,0.0,0.0,0.0,0.0,0.0,0.0,0.0,0.0,0.0,0.0,0.0,0.0,0.0,0.0,0.0,0.0,0.0,0.0,0.0,0.0,0.0,0.0,0.0,0.0,0.0,0.0,0.0,0.0,0.0,0.0,-3.5152,-3.6042,-3.718,-3.7359,-3.7224,-3.7254,-3.6939,-3.5998,0.0,0.0,-2.9651,-2.6304,-2.4402,-2.3258,-2.3183,-2.3197,-2.3807,-2.5531,0.0,-2.8494,0.0,0.0,0.0,0.0,0.0,0.0,0.0,0.0,0.0,0.0,0.0,0.0,0.0,-3.9305,-3.9305,-3.9305,-3.9114,-3.9011,-3.9011,-3.8904,-3.8827,-3.8814,-3.8234,-3.767,-3.7157,-3.6399,-3.5814,-3.5325,0.0,0.0,0.0,-3.5236,-3.5154,-3.4962,-3.4921,-3.4743,-3.4494,-3.4439,-3.4551,-3.4909,0.0,0.0,0.0,0.0,0.0,0.0,0.0,-1.2639,-1.4253,-1.6325,-1.6022,-1.6146,-1.7541,-1.6433,-1.5323,-1.4648,0.0,0.0,0.0,0.0,0.0,0.0,0.0,0.0,0.0,0.0,0.0,-1.799,0.0,0.0,0.0,0.0,0.0,0.0,0.0,0.0,0.0,0.0,0.0,0.0,0.0,0.0,0.0,0.0,0.0,0.0,0.0,0.0,0.0,0.0,0.0,0.0,0.0,0.0,0.0,0.0,-3.3783,-3.4778,-3.6925,-3.7359,-3.7254,-3.7435,-3.629,-3.4804,0.0,0.0,-2.8325,-2.5586,-2.3819,-2.2525,-2.16,-2.2236,-2.3248,-2.426,-2.6433,0.0,0.0,0.0,0.0,0.0,0.0,0.0,0.0,0.0,0.0,0.0,0.0,0.0,0.0,-3.9305,-3.9305,-3.9305,-3.9305,-3.9305,-3.9305,-3.9305,-3.9305,-3.9305,-3.9292,-3.8847,-3.8091,-3.7456,-3.6724,0.0,0.0,0.0,0.0,-3.5602,-3.5602,-3.5358,-3.5154,-3.4962,-3.4756,-3.4494,-3.495,-3.5709,0.0,0.0,0.0,0.0,0.0,0.0,0.0,-1.1669,-1.3057,-1.3704,-1.4458,-1.5102,-1.5532,-1.4727,-1.4079,-1.3873,0.0,0.0,0.0,0.0,0.0,0.0,0.0,0.0,0.0,0.0,-1.781,-1.8212,-1.9255,-1.993,0.0,0.0,0.0,0.0,0.0,0.0,0.0,0.0,0.0,0.0,0.0,0.0,0.0,0.0,0.0,0.0,0.0,0.0,0.0,0.0,0.0,0.0,0.0,0.0,0.0,0.0,0.0,0.0,-3.4178,-3.4593,-3.4549,-3.462,-3.4261,-3.3398,-3.1586,-2.9738,-2.762,-2.4823,-2.3075,-2.1927,-2.155,-2.2028,-2.328,-2.5711,-2.7346,0.0,0.0,0.0,0.0,0.0,0.0,0.0,0.0,0.0,0.0,0.0,0.0,0.0,0.0,-3.9305,-3.9305,-3.9305,-3.9305,-3.9305,-3.9305,-3.9305,-3.9305,-3.9305,-3.91,-3.8714,-3.8105,-3.747,0.0,0.0,0.0,0.0,0.0,-3.648,-3.6387,-3.6189,-3.6163,-3.5924,-3.5683,-3.6162,-3.6385,-3.6621,0.0,0.0,0.0,0.0,0.0,0.0,0.0,-1.0782,-1.1939,-1.2429,-1.3257,-1.4016,-1.4537,-1.3937,-1.3494,-1.3494,0.0,0.0,0.0,0.0,0.0,0.0,0.0,0.0,0.0,-1.7601,-1.8365,-1.8792,-2.0069,-2.1029,-2.1649,-2.1801,-2.2034,0.0,0.0,0.0,0.0,0.0,0.0,0.0,0.0,0.0,-2.151,0.0,0.0,0.0,0.0,0.0,0.0,0.0,0.0,0.0,0.0,0.0,0.0,0.0,-2.6909,0.0,0.0,-3.2519,-3.2519,-3.2519,-3.2124,0.0,0.0,-2.8132,-2.6282,-2.3986,-2.2589,-2.1729,-2.1592,-2.2208,-2.3569,-2.6237,-2.8061,0.0,0.0,0.0,0.0,0.0,0.0,0.0,0.0,0.0,0.0,0.0,0.0,0.0,0.0,-3.9305,-3.9305,-3.9305,-3.9305,-3.9305,-3.9305,-3.9305,-3.9305,-3.9305,-3.9158,-3.8822,-3.837,-3.7692,0.0,0.0,0.0,0.0,0.0,-3.7372,-3.7295,-3.7179,-3.7088,-3.6869,-3.6635,-3.7049,-3.7305,-3.7572,0.0,0.0,0.0,0.0,0.0,0.0,0.0,0.0,0.0,0.0,-1.2376,-1.2925,-1.4232,-1.3821,-1.3442,0.0,0.0,0.0,0.0,0.0,0.0,0.0,0.0,0.0,0.0,-1.767,-1.8854,-1.9605,-2.058,-2.1817,-2.3201,-2.2497,-2.2547,-2.3184,-2.2429,-2.214,-2.2228,-2.2282,-2.2248,-2.211,-2.1969,-2.1825,0.0,0.0,0.0,0.0,0.0,0.0,0.0,0.0,0.0,0.0,0.0,0.0,0.0,0.0,0.0,0.0,0.0,0.0,0.0,0.0,0.0,0.0,0.0,-2.6345,0.0,-2.3119,-2.2329,-2.185,-2.1747,-2.2686,-2.4138,-2.6134,-2.8634,0.0,0.0,0.0,0.0,0.0,0.0,0.0,0.0,0.0,0.0,0.0,0.0,0.0,0.0,-3.9305,-3.9305,-3.9305,-3.9305,-3.9305,-3.9305,-3.9305,-3.9305,-3.9305,-3.9336,-3.9234,-3.897,-3.8246,0.0,0.0,0.0,0.0,0.0,-3.8175,-3.8175,-3.8175,-3.7974,-3.78,-3.7601,-3.7434,-3.7852,-3.8539,0.0,0.0,0.0,0.0,0.0,0.0,0.0,0.0,0.0,0.0,-1.1142,-1.194,-1.2266,-1.2607,-1.281,0.0,0.0,0.0,0.0,0.0,0.0,0.0,0.0,0.0,0.0,-1.8171,-1.9419,-1.976,-2.1759,-2.2954,-2.3365,-2.3737,-2.3703,-2.3348,-2.3163,-2.2803,-2.2349,-2.238,-2.2363,-2.2318,-2.2127,-2.1969,0.0,0.0,0.0,0.0,-2.1371,-2.1293,0.0,0.0,0.0,0.0,0.0,0.0,0.0,0.0,-2.2167,-2.2783,-2.5009,0.0,-2.7367,-2.7921,-2.7804,-2.7257,0.0,-2.4902,-2.3765,-2.2341,0.0,0.0,-2.185,-2.3299,-2.5269,0.0,0.0,0.0,0.0,0.0,0.0,0.0,0.0,0.0,0.0,0.0,0.0,0.0,0.0,0.0,0.0,-3.9305,-3.9305,-3.9305,-3.9305,-3.9305,-3.9305,-3.9305,-3.9305,-3.9305,-3.9998,-4.0187,-3.997,-4.0209,0.0,0.0,0.0,0.0,-3.9015,-3.9015,-3.9015,-3.9,-3.8964,-3.8848,-3.8782,-3.9184,-3.9364,-3.9415,0.0,0.0,0.0,0.0,0.0,0.0,0.0,0.0,0.0,0.0,0.0,0.0,0.0,0.0,0.0,0.0,0.0,0.0,0.0,0.0,0.0,0.0,0.0,0.0,-1.5764,-1.8373,-1.9953,-2.0398,-2.238,-2.3703,-2.4408,-2.4474,-2.4288,-2.3881,-2.319,-2.2711,-2.2391,-2.2391,-2.2419,-2.2432,-2.2287,0.0,0.0,0.0,0.0,0.0,-2.151,-2.1419,0.0,-2.1183,-2.1087,-2.0974,0.0,0.0,0.0,0.0,-2.133,-2.1646,-2.307,-2.4223,-2.5219,-2.5945,-2.6156,-2.5835,-2.4764,0.0,0.0,0.0,0.0,0.0,0.0,0.0,0.0,0.0,0.0,0.0,0.0,0.0,0.0,0.0,0.0,0.0,0.0,0.0,0.0,0.0,0.0,0.0,0.0,-3.9305,-3.9305,-3.9305,-3.9305,-3.9305,-3.9305,-3.9305,-3.9499,-3.9911,-4.0346,-4.0774,-4.1085,-4.1256,-4.1157,0.0,0.0,0.0,-4.0339,-3.9985,-3.9849,-3.9849,-3.9849,-3.9758,-3.9681,-4.0031,-4.0066,-3.998,0.0,0.0,0.0,0.0,0.0,0.0,0.0,0.0,0.0,0.0,0.0,0.0,0.0,0.0,0.0,0.0,0.0,0.0,0.0,0.0,0.0,0.0,0.0,-1.5512,-1.576,-1.8533,-2.0422,-2.1268,-2.2806,-2.4272,-2.5592,-2.5083,-2.4711,-2.444,-2.297,-2.2338,-2.2394,-2.2408,-2.2432,-2.2501,-2.2432,0.0,0.0,0.0,0.0,0.0,0.0,0.0,0.0,-2.1246,-2.1167,-2.1054,-2.0859,0.0,0.0,0.0,0.0,0.0,-2.2519,-2.3544,-2.4381,-2.5001,-2.5238,-2.5128,-2.4397,0.0,0.0,0.0,0.0,0.0,0.0,0.0,0.0,0.0,0.0,0.0,0.0,0.0,0.0,0.0,0.0,0.0,0.0,0.0,0.0,0.0,0.0,0.0,0.0,-3.9587,-3.9543,-3.9719,-3.9719,-3.9719,-3.9719,-3.9543,-3.9867,-4.0603,-4.0887,-4.1407,-4.2196,-4.2111,-4.2206,0.0,0.0,0.0,-4.1555,-4.094,-4.0597,-4.0489,-4.0489,-4.0436,-4.0347,-4.0312,-4.0312,-4.0312,0.0,0.0,0.0,0.0,0.0,0.0,0.0,0.0,0.0,0.0,0.0,0.0,0.0,0.0,0.0,0.0,0.0,0.0,0.0,0.0,0.0,0.0,-1.504,-1.6059,-1.7322,-1.9101,-2.0658,-2.2023,-2.3581,-2.4778,-2.5609,-2.6116,-2.5709,-2.444,-2.297,-2.231,-2.2324,-2.238,-2.2432,-2.2501,-2.2487,0.0,0.0,0.0,0.0,0.0,0.0,0.0,0.0,-2.1294,-2.1167,-2.1054,-2.0859,0.0,0.0,0.0,0.0,0.0,-2.2519,-2.4255,-2.5708,-2.5819,-2.6325,-2.6577,-2.5851,0.0,0.0,0.0,0.0,0.0,0.0,0.0,0.0,0.0,0.0,0.0,0.0,0.0,0.0,0.0,0.0,0.0,0.0,0.0,0.0,0.0,0.0,0.0,0.0,0.0,-4.0745,-4.1576,-4.1576,-4.1576,-4.1576,-4.0788,-4.0475,-4.0646,-4.2152,-4.2951,-4.3111,-4.3834,-4.3884,0.0,0.0,-4.2563,-4.1586,-4.1478,-4.1078,-4.0489,-4.0489,-4.0489,-4.047,-4.0331,-4.0312,-4.0312,0.0,0.0,0.0,0.0,0.0,0.0,0.0,0.0,0.0,0.0,0.0,0.0,0.0,0.0,0.0,0.0,0.0,0.0,0.0,0.0,0.0,-1.5054,-1.5768,-1.6659,-1.7732,-1.9668,-2.137,-2.2856,-2.4374,-2.5473,-2.6184,-2.5743,-2.5151,-2.444,-2.297,-2.2296,-2.2296,-2.2338,-2.2422,-2.2501,0.0,0.0,0.0,0.0,0.0,0.0,0.0,0.0,0.0,0.0,-2.062,-2.0591,-2.0749,0.0,0.0,0.0,0.0,0.0,-2.2519,-2.4147,-2.5803,-2.7211,-2.8385,-2.9108,-2.8654,0.0,0.0,0.0,0.0,0.0,0.0,0.0,0.0,0.0,0.0,0.0,0.0,0.0,0.0,0.0,0.0,0.0,0.0,0.0,0.0,0.0,0.0,0.0,0.0,0.0,-4.1146,-4.1976,-4.199,-4.199,-4.199,-4.2044,-4.207,-4.207,-4.2911,-4.3536,-4.4004,-4.4419,-4.444,-4.4132,0.0,-4.3017,-4.2109,-4.1755,-4.117,-4.0489,-4.0489,-4.0489,-4.0489,-4.0436,-4.0401,-4.0401,0.0,0.0,0.0,0.0,0.0,0.0,0.0,0.0,0.0,0.0,0.0,0.0,0.0,0.0,0.0,0.0,0.0,0.0,0.0,0.0,-1.4084,-1.562,-1.6336,-1.7213,-1.829,-2.0382,-2.2189,-2.3661,-2.4966,-2.5981,-2.6657,-2.5185,-2.4491,-2.444,-2.297,-2.2296,-2.2296,-2.2296,-2.238,-2.2474,0.0,0.0,0.0,0.0,0.0,0.0,0.0,0.0,0.0,0.0,0.0,0.0,0.0,0.0,0.0,-2.0794,-2.0794,-2.1111,-2.2536,-2.4182,-2.6114,-2.8724,0.0,-3.1077,-3.1171,0.0,0.0,0.0,0.0,0.0,0.0,0.0,0.0,0.0,0.0,0.0,0.0,0.0,0.0,0.0,0.0,0.0,0.0,0.0,0.0,0.0,0.0,0.0,0.0,0.0,-4.1324,-4.2107,-4.2162,-4.2162,-4.2162,-4.2796,-4.3181,-4.3284,-4.3521,-4.3966,-4.461,-4.461,-4.461,-4.4579,-4.3901,-4.3202,-4.2556,-4.1878,-4.117,-4.0489,-4.0489,-4.0489,-4.0489,-4.0489,-4.0489,-4.0489,0.0,0.0,0.0,0.0,0.0,0.0,0.0,0.0,0.0,0.0,0.0,0.0,0.0,0.0,0.0,0.0,0.0,0.0,0.0,0.0,-1.4066,-1.5537,-1.6299,-1.7704,-1.9799,-2.14,-2.2936,-2.4423,-2.522,-2.5981,-2.6657,-2.5185,-2.4491,-2.444,-2.297,-2.2296,-2.2296,-2.2296,-2.2338,-2.2422,-2.2422,0.0,0.0,0.0,0.0,0.0,0.0,0.0,0.0,0.0,0.0,0.0,0.0,0.0,-2.0794,-2.0794,-2.0794,-2.1128,-2.2591,-2.4914,-2.7561,-3.0103,0.0,0.0,-3.244,-3.279,0.0,0.0,0.0,0.0,0.0,0.0,0.0,0.0,0.0,0.0,0.0,0.0,0.0,0.0,0.0,0.0,0.0,0.0,0.0,0.0,0.0,0.0,0.0,0.0,0.0,-4.2521,-4.2557,-4.2557,-4.2557,-4.2631,-4.2856,-4.3324,-4.4135,-4.4534,-4.461,-4.461,-4.461,-4.4579,-4.3901,-4.3202,-4.2556,-4.1878,-4.117,-4.0489,-4.0489,-4.0489,-4.0489,-4.0489,-4.0489,-4.0489,0.0,0.0,0.0,0.0,0.0,0.0,0.0,0.0,0.0,0.0,0.0,0.0,0.0,0.0,0.0,0.0,0.0,0.0,0.0,0.0,-1.411,-1.5605,-1.633,-1.7726,-1.9951,-2.1958,-2.3477,-2.4491,-2.5693,-2.6184,-2.5998,-2.4982,-2.4254,-2.378,-2.275,-2.2296,-2.2296,-2.2296,-2.2338,-2.2391,-2.2391,-2.1986,0.0,0.0,0.0,0.0,0.0,0.0,0.0,0.0,-1.9035,-1.9526,0.0,-2.0305,-2.0794,-2.0794,-2.0828,-2.1178,-2.2611,-2.5214,-2.8105,-3.0423,0.0,0.0,0.0,0.0,0.0,0.0,0.0,0.0,0.0,0.0,0.0,0.0,0.0,0.0,0.0,0.0,0.0,0.0,0.0,0.0,0.0,0.0,0.0,0.0,0.0,0.0,0.0,0.0,0.0,-4.2602,-4.2602,-4.2602,-4.2602,-4.2602,-4.2702,-4.2878,-4.3192,-4.3356,-4.3356,-4.3356,-4.3356,-4.334,-4.3079,-4.2586,-4.1971,-4.1694,-4.117,-4.0489,-4.0489,-4.0489,-4.0489,-4.0489,-4.0489,-4.0489,0.0,0.0,0.0,0.0,0.0,0.0,0.0,0.0,0.0,0.0,0.0,0.0,0.0,0.0,0.0,0.0,0.0,0.0,0.0,-1.3536,-1.4161,-1.5641,-1.634,-1.7636,-1.9608,-2.1887,-2.341,-2.4152,-2.5405,-2.5744,-2.5236,-2.4508,-2.3881,-2.3359,-2.2632,-2.2296,-2.2296,-2.2296,-2.2324,-2.238,-2.238,-2.1796,0.0,0.0,0.0,0.0,0.0,0.0,0.0,0.0,-1.8368,-1.8871,0.0,0.0,-2.0543,-2.0543,-2.0893,-2.1596,-2.305,-2.5509,-2.8286,0.0,0.0,0.0,0.0,0.0,0.0,0.0,0.0,0.0,0.0,0.0,0.0,0.0,0.0,0.0,0.0,0.0,0.0,0.0,0.0,0.0,0.0,0.0,0.0,0.0,0.0,0.0,0.0,0.0,0.0,0.0,-4.1955,-4.1955,-4.1955,-4.1955,-4.1955,-4.1955,-4.1955,-4.2186,-4.2602,-4.2602,-4.2602,-4.2602,-4.2386,-4.2032,-4.1586,-4.1355,-4.097,-4.0489,-4.0489,-4.0489,-4.0489,-4.0489,-4.0489,-4.0489,0.0,0.0,0.0,0.0,0.0,0.0,0.0,0.0,0.0,0.0,0.0,0.0,0.0,0.0,0.0,0.0,0.0,0.0,-1.3594,-1.3546,-1.417,-1.5639,-1.6347,-1.7382,-1.8872,-2.1126,-2.2649,-2.341,-2.4135,-2.4491,-2.4474,-2.3731,-2.3393,-2.3359,-2.2632,-2.2296,-2.2296,-2.2296,-2.2296,-2.2296,-2.2296,-2.1383,-2.0014,0.0,0.0,0.0,0.0,0.0,0.0,0.0,-1.7757,-1.8185,0.0,0.0,0.0,-1.9999,-2.1007,-2.2432,-2.3983,-2.5892,0.0,0.0,0.0,0.0,0.0,0.0,0.0,0.0,0.0,0.0,0.0,0.0,0.0,0.0,0.0,0.0,0.0,0.0,0.0,0.0,0.0,0.0,0.0,0.0,0.0,0.0,0.0,0.0,0.0,0.0,0.0,0.0,-4.0489,-4.0489,-4.0489,-4.0489,-4.0489,-4.0489,-4.0489,-4.1212,-4.2586,-4.2586,-4.2586,-4.2556,-4.1878,-4.1586,-4.1524,-4.0782,-4.0489,-4.0489,-4.0489,-4.0489,-4.0489,-4.0489,-4.0489,-4.0489,0.0,0.0,0.0,0.0,0.0,0.0,0.0,0.0,0.0,0.0,0.0,0.0,0.0,0.0,0.0,0.0,0.0,0.0,-1.3598,-1.3536,-1.4161,-1.5651,-1.5855,-1.6885,-1.8924,-2.0182,-2.1919,-2.4169,-2.4389,-2.4237,-2.3714,-2.3494,-2.3122,-2.2632,-2.2398,-2.2296,-2.2296,-2.2296,-2.2296,-2.2296,-2.2296,-2.1383,-2.0002,0.0,0.0,0.0,0.0,0.0,0.0,0.0,0.0,0.0,-1.8254,0.0,-2.0135,-2.0075,-2.1166,-2.2815,-2.4778,-2.7583,0.0,0.0,0.0,0.0,0.0,0.0,0.0,0.0,0.0,0.0,0.0,0.0,0.0,0.0,0.0,0.0,0.0,0.0,0.0,0.0,0.0,0.0,0.0,0.0,0.0,0.0,0.0,0.0,0.0,0.0,0.0,0.0,-4.0489,-4.0489,-4.0489,-4.0489,-4.0489,-4.0489,-4.0489,-4.0705,-4.1105,-4.1105,-4.1105,-4.1105,-4.0905,-4.0812,-4.0832,-4.0582,-4.0489,-4.0489,-4.0489,-4.0489,-4.0489,-4.0489,-4.0489,-4.0489,0.0,0.0,0.0,0.0,0.0,0.0,0.0,0.0,0.0,0.0,0.0,0.0,0.0,0.0,0.0,0.0,0.0,0.0,0.0,0.0,-1.417,-1.5646,-1.5656,-1.6717,-1.8994,-1.9512,-2.076,-2.2787,-2.2773,-2.2705,-2.2601,-2.2542,-2.246,-2.2338,-2.231,-2.2296,-2.2296,-2.2296,-2.2296,-2.2262,-2.1989,-2.1113,-1.9968,0.0,0.0,0.0,0.0,0.0,0.0,0.0,0.0,0.0,-1.7527,0.0,0.0,-2.0012,-2.2035,-2.4476,-2.6604,0.0,0.0,0.0,0.0,0.0,0.0,0.0,0.0,0.0,0.0,0.0,0.0,0.0,0.0,0.0,0.0,0.0,0.0,0.0,0.0,0.0,0.0,0.0,0.0,0.0,0.0,0.0,0.0,0.0,0.0,0.0,0.0,0.0,-4.0489,-4.0489,-4.0489,-4.0489,-4.0489,-4.0489,-4.0489,-4.0489,-4.0489,-4.0489,-4.0489,-4.0489,-4.0489,-4.0489,-4.0489,-4.0489,-4.0489,-4.0489,-4.0489,-4.0489,-4.0489,-4.0489,-4.0489,-4.0489,0.0,0.0,0.0,0.0,0.0,0.0,0.0,0.0,0.0,0.0,0.0,0.0,0.0,0.0,0.0,0.0,0.0,0.0,0.0,0.0,-1.4161,-1.563,-1.586,-1.6901,-1.8973,-1.9019,-1.9361,-2.0025,-2.0084,-2.0543,-2.1408,-2.1274,-2.1651,-2.2422,-2.2352,-2.2276,-2.2209,-2.2209,-2.2158,-2.2026,-2.1363,-2.0619,-1.9828,-1.9229,0.0,0.0,0.0,0.0,0.0,0.0,0.0,0.0,-1.6265,-1.6738,-1.7745,-1.9813,-2.3223,-2.6777,0.0,0.0,0.0,0.0,0.0,0.0,0.0,0.0,0.0,0.0,0.0,0.0,0.0,0.0,0.0,0.0,0.0,0.0,0.0,0.0,0.0,0.0,0.0,0.0,0.0,0.0,0.0,0.0,0.0,0.0,0.0,0.0,0.0,0.0,-4.0489,-4.0489,-4.0489,-4.0489,-4.0489,0.0,-4.0489,-4.0489,-4.0489,-4.0489,-4.0489,-4.0489,-4.0489,-4.0489,-4.0489,-4.0489,-4.0489,-4.0489,-4.0489,-4.0489,-4.0489,-4.0489,-4.0489,-4.0489,0.0,0.0,0.0,0.0,0.0,0.0,0.0,0.0,0.0,0.0,0.0,0.0,0.0,0.0,0.0,0.0,0.0,0.0,0.0,0.0,-1.4213,-1.563,-1.6958,-1.7883,-1.8392,-1.8454,-1.8548,-1.871,-1.9692,-2.0598,-2.1408,-2.1365,-2.1775,-2.2487,-2.246,-2.2109,-2.1521,-2.1521,-2.1111,-2.0475,-2.0318,-1.9836,-1.9195,-1.9049,-1.8217,0.0,0.0,0.0,0.0,0.0,0.0,0.0,-1.5772,-1.6607,-1.79,-1.9432,-2.2997,-2.7052,0.0,0.0,0.0,0.0,0.0,0.0,0.0,0.0,0.0,0.0,0.0,0.0,0.0,0.0,0.0,0.0,0.0,0.0,0.0,0.0,0.0,0.0,0.0,0.0,0.0,0.0,0.0,0.0,0.0,0.0,0.0,0.0,0.0,-4.0489,-4.0489,-4.0489,-4.0489,-4.0489,-4.0489,0.0,-4.0489,-4.0489,-4.0489,-4.0489,-4.0489,-4.0489,-4.0489,-4.0489,-4.0489,-4.0489,-4.0489,-4.0489,-4.0489,-4.0489,-4.0489,-4.0489,-4.0489,-4.0489,0.0,0.0,0.0,0.0,0.0,0.0,0.0,0.0,0.0,0.0,0.0,0.0,0.0,0.0,0.0,0.0,0.0,0.0,0.0,0.0,0.0,-1.5732,-1.7379,-1.826,-1.8308,-1.8365,-1.8398,-1.8398,-1.9447,-2.0315,0.0,-2.1343,-2.1915,-2.2632,-2.2582,-2.2101,-2.1361,-2.1305,-2.0802,-1.9968,-1.9625,-1.929,-1.8942,-1.8251,-1.7533,-1.6863,-1.6539,0.0,0.0,0.0,0.0,0.0,0.0,0.0,-1.7098,-1.9186,-2.3031,-2.7311,0.0,0.0,0.0,0.0,0.0,0.0,0.0,0.0,0.0,0.0,0.0,0.0,0.0,0.0,0.0,0.0,0.0,0.0,0.0,0.0,0.0,0.0,0.0,0.0,0.0,0.0,0.0,0.0,0.0,0.0,0.0,-4.0489,-4.0489,-4.0489,-4.0489,-4.0489,-4.0489,-4.0489,-4.0489,-4.0489,-4.0489,-4.0489,-4.0489,-4.0489,-4.0489,-4.0489,-4.0489,-4.0489,-4.0489,-4.0489,-4.0489,-4.0489,-4.0489,-4.0489,-4.0489,-4.0489,-4.0489,-4.0489,0.0,0.0,0.0,0.0,0.0,0.0,0.0,0.0,0.0,0.0,0.0,0.0,0.0,0.0,0.0,0.0,0.0,0.0,0.0,0.0,0.0,-1.5669,-1.7159,-1.7976,-1.8041,-1.8091,-1.8199,-1.834,-1.9286,0.0,0.0,0.0,0.0,-2.3033,-2.2932,-2.234,-2.1422,-2.1238,-2.0569,-1.9587,-1.8961,-1.876,-1.867,-1.7518,-1.6922,-1.6649,-1.6077,-1.5726,-1.5399,-1.4727,0.0,0.0,0.0,0.0,-1.5977,-1.8742,-2.2762,-2.713,0.0,0.0,0.0,0.0,0.0,0.0,0.0,0.0,0.0,0.0,0.0,0.0,0.0,0.0,0.0,0.0,0.0,0.0,0.0,0.0,0.0,0.0,0.0,0.0,0.0,0.0,0.0,0.0,0.0,0.0,-4.0489,-4.0489,-4.0489,-4.0489,-4.0489,-4.0489,-4.0489,-4.0489,-4.0489,-4.0489,-4.0489,-4.0489,-4.0489,-4.0489,-4.0489,-4.0489,-4.0489,-4.0489,-4.0489,-4.0489,-4.0489,-4.0489,-4.0489,-4.0489,-4.0489,-4.0489,-4.0489,-4.0489,0.0,0.0,0.0,0.0,0.0,0.0,0.0,0.0,0.0,0.0,0.0,0.0,0.0,0.0,0.0,0.0,0.0,0.0,-1.3678,0.0,0.0,-1.5018,-1.601,-1.6571,-1.6571,-1.6638,-1.7026,-1.771,0.0,0.0,0.0,0.0,0.0,-2.4003,0.0,-2.3085,-2.1522,-2.0823,-1.96,-1.8161,-1.8008,-1.7997,-1.803,-1.7837,-1.7004,-1.5936,-1.586,-1.4985,-1.389,-1.3779,-1.3744,0.0,0.0,0.0,0.0,-1.7494,-2.1272,-2.568,0.0,0.0,0.0,0.0,0.0,0.0,0.0,0.0,0.0,0.0,0.0,0.0,0.0,0.0,0.0,0.0,0.0,0.0,0.0,0.0,0.0,0.0,0.0,0.0,0.0,0.0,0.0,0.0,0.0,0.0,-4.0489,-4.0489,-4.0489,-4.0489,-4.0489,-4.0489,-4.0489,-4.0489,-4.0489,-4.0489,-4.0489,-4.0489,-4.0489,-4.0489,-4.0489,-4.0489,-4.0489,-4.0489,-4.0489,-4.0489,-4.0489,-4.0489,-4.0489,-4.0489,-4.0489,-4.0489,-4.0489,-4.0489,0.0,0.0,0.0,0.0,0.0,0.0,0.0,0.0,0.0,0.0,0.0,0.0,0.0,0.0,0.0,-1.3702,-1.3677,-1.3675,-1.3756,-1.4519,-1.4978,-1.5007,-1.5846,-1.6336,-1.6411,-1.6485,-1.6892,-1.7662,0.0,0.0,0.0,-2.3338,-2.4431,0.0,0.0,0.0,0.0,-2.1001,-1.9734,-1.8558,-1.8535,-1.9301,-2.0342,-1.9063,-1.87,-1.8665,-1.6973,-1.5683,-1.4786,-1.4786,-1.4504,-1.4169,-1.4161,0.0,0.0,0.0,0.0,0.0,0.0,0.0,0.0,0.0,0.0,0.0,0.0,0.0,0.0,0.0,0.0,0.0,0.0,0.0,0.0,0.0,0.0,0.0,0.0,0.0,0.0,0.0,0.0,0.0,0.0,0.0,0.0,0.0,0.0,-4.0489,-4.0489,-4.0489,-4.0489,-4.0489,-4.0489,-4.0489,-4.0489,-4.0489,-4.0489,-4.0489,-4.0489,-4.0489,-4.0489,-4.0489,-4.0489,-4.0489,-4.0489,-4.0489,-4.0489,-4.0489,-4.0489,-4.0489,-4.0489,-4.0489,-4.0489,-4.0489,-4.0489,-4.0489,0.0,0.0,0.0,0.0,0.0,0.0,0.0,0.0,0.0,0.0,0.0,0.0,0.0,0.0,0.0,0.0,-1.3731,-1.3743,-1.3813,-1.442,-1.479,-1.4841,-1.5452,-1.5834,-1.5946,-1.5994,-1.6386,0.0,0.0,0.0,-2.1408,-2.3531,-2.5123,0.0,-2.539,0.0,0.0,0.0,0.0,0.0,-2.0123,-2.1344,-2.2651,-2.1421,-2.1319,-2.1544,-1.9132,-1.7539,-1.655,-1.6342,-1.5782,-1.5119,-1.4725,-1.4553,0.0,0.0,0.0,0.0,0.0,0.0,0.0,0.0,0.0,0.0,0.0,0.0,0.0,0.0,0.0,0.0,0.0,0.0,0.0,0.0,0.0,0.0,0.0,0.0,0.0,0.0,0.0,0.0,0.0,0.0,0.0,0.0,0.0,-4.0489,-4.0489,-4.0489,-4.0489,-4.0489,-4.0489,-4.0489,-4.0489,-4.0489,-4.0489,-4.0489,-4.0489,-4.0489,-4.0489,-4.0489,-4.0489,-4.0489,-4.0489,-4.0489,-4.0489,-4.0489,-4.0489,-4.0489,-4.0489,-4.0489,-4.0489,-4.0489,-4.0489,-4.0489,0.0,0.0,0.0,0.0,0.0,0.0,0.0,0.0,0.0,0.0,0.0,0.0,-1.368,-1.3705,-1.3738,-1.3793,-1.3793,-1.3821,-1.3891,-1.4055,-1.4146,-1.4153,-1.4316,0.0,-1.4418,-1.4425,-1.4812,0.0,0.0,0.0,-2.1522,-2.3115,-2.5055,-2.7204,-2.6915,-2.5839,-2.4155,0.0,0.0,0.0,0.0,-2.3721,-2.3722,-2.5386,-2.4913,0.0,0.0,0.0,-1.8904,-1.8143,-1.739,-1.6527,-1.5059,-1.4553,-1.45,0.0,0.0,0.0,0.0,0.0,0.0,0.0,0.0,0.0,0.0,0.0,0.0,0.0,0.0,0.0,0.0,0.0,0.0,0.0,0.0,0.0,0.0,0.0,0.0,0.0,0.0,0.0,0.0,0.0,0.0,0.0,0.0,-4.0489,-4.0489,-4.0489,-4.0489,-4.0489,-4.0489,-4.0489,-4.0489,-4.0489,-4.0489,-4.0489,-4.0489,-4.0489,-4.0489,-4.0489,-4.0489,-4.0489,-4.0489,-4.0489,-4.0489,-4.0489,-4.0489,-4.0489,-4.0489,-4.0489,-4.0489,-4.0489,-4.0489,-4.0489,0.0,0.0,0.0,0.0,0.0,0.0,0.0,0.0,0.0,0.0,0.0,0.0,0.0,-1.3828,-1.384,-1.3855,-1.3931,-1.4005,-1.4037,-1.4112,-1.4177,-1.4239,-1.4278,-1.4304,-1.4305,-1.4293,0.0,0.0,0.0,-1.8099,-2.001,-2.2111,-2.3771,-2.5005,-2.5374,-2.5442,-2.5118,-2.3137,0.0,0.0,0.0,0.0,0.0,0.0,0.0,0.0,0.0,0.0,0.0,-2.33,-2.161,-1.9515,-1.7977,-1.6479,-1.5258,0.0,0.0,0.0,0.0,0.0,0.0,0.0,0.0,0.0,0.0,0.0,0.0,0.0,0.0,0.0,0.0,0.0,0.0,0.0,0.0,0.0,0.0,0.0,0.0,0.0,0.0,0.0,0.0,0.0,0.0,0.0,0.0,0.0,-4.0489,-4.0489,-4.0489,-4.0489,-4.0489,-4.0489,-4.0489,-4.0489,-4.0489,-4.0489,-4.0489,-4.0489,-4.0489,-4.0489,-4.0489,-4.0489,-4.0489,-4.0489,-4.0489,-4.0489,-4.0489,-4.0489,-4.0489,-4.0489,-4.0489,-4.0489,-4.0489,-4.0489,0.0,0.0,0.0,0.0,0.0,0.0,0.0,0.0,0.0,0.0,0.0,0.0,0.0,0.0,-1.4742,-1.4772,-1.4617,-1.4505,-1.4533,-1.4347,-1.426,-1.4298,-1.4304,-1.4299,-1.43,-1.43,-1.4571,0.0,0.0,0.0,0.0,-2.0662,-2.2184,-2.3371,-2.3567,-2.4324,0.0,0.0,0.0,-2.4118,0.0,0.0,-3.1951,0.0,0.0,0.0,0.0,0.0,0.0,0.0,0.0,0.0,0.0,0.0,0.0,0.0,0.0,0.0,0.0,0.0,0.0,0.0,0.0,0.0,0.0,0.0,0.0,0.0,0.0,0.0,0.0,0.0,0.0,0.0,0.0,0.0,0.0,0.0,0.0,0.0,0.0,0.0,0.0,0.0,0.0,0.0,0.0,0.0,-4.0712,-4.0643,-4.0558,-4.0489,-4.0489,-4.0489,-4.0489,-4.0489,-4.0489,-4.0489,-4.0489,-4.0489,-4.0489,-4.0489,-4.0489,-4.0489,-4.0489,-4.0489,-4.0489,-4.0489,-4.0489,-4.0489,-4.0489,-4.0489,-4.0489,-4.0489,-4.0489,-4.0489,0.0,0.0,0.0,0.0,0.0,0.0,0.0,0.0,0.0,-1.5349,0.0,0.0,0.0,0.0,0.0,-1.6545,-1.581,-1.5357,-1.5404,-1.4736,-1.4322,-1.4304,-1.4305,-1.43,-1.43,-1.43,-1.43,0.0,0.0,0.0,0.0,0.0,-2.0379,-2.2532,-2.1704,-2.253,-2.4569,0.0,-2.4931,-2.6056,0.0,-3.2441,-3.3771,0.0,0.0,0.0,-3.5625,-3.4304,0.0,0.0,0.0,0.0,0.0,0.0,0.0,0.0,0.0,0.0,0.0,0.0,0.0,0.0,0.0,0.0,0.0,0.0,0.0,0.0,0.0,0.0,0.0,0.0,0.0,0.0,0.0,0.0,0.0,0.0,0.0,0.0,0.0,0.0,0.0,0.0,0.0,0.0,0.0,-4.107,-4.1086,-4.0901,-4.0696,-4.0524,-4.0489,-4.0489,-4.0489,-4.0489,-4.0489,-4.0489,-4.0489,-4.0489,-4.0489,-4.0489,-4.0489,-4.0489,-4.0489,-4.0489,-4.0489,-4.0489,-4.0489,-4.0489,-4.0489,-4.0489,-4.0489,-4.0489,-4.0489,-4.0489,0.0,0.0,0.0,0.0,0.0,0.0,0.0,0.0,0.0,0.0,0.0,0.0,-1.7337,-1.7395,-1.7459,-1.7563,-1.6853,-1.6152,-1.5585,-1.5344,-1.4987,-1.4393,-1.4381,-1.4362,-1.4362,-1.4362,-1.4362,0.0,0.0,0.0,0.0,0.0,0.0,0.0,-1.9662,-2.0418,-2.1512,-2.2536,0.0,0.0,-3.0291,-3.3456,0.0,0.0,0.0,0.0,0.0,-3.8088,0.0,0.0,-3.426,-3.1263,0.0,0.0,0.0,0.0,0.0,0.0,-1.6908,0.0,0.0,0.0,0.0,0.0,0.0,0.0,0.0,0.0,0.0,0.0,0.0,0.0,0.0,0.0,0.0,0.0,0.0,0.0,0.0,0.0,0.0,0.0,0.0,0.0,0.0,0.0,-3.956,-3.9807,-4.0273,-4.0637,-4.0848,-4.0932,-4.0643,-4.0558,-4.073,-4.0558,-4.0489,-4.0489,-4.0489,-4.0489,-4.0489,-4.0489,-4.0489,-4.0489,-4.0489,-4.0489,-4.0489,-4.0489,-4.0489,-4.0489,-4.0489,-4.0489,-4.0489,-4.0489,-4.0489,-4.0489,0.0,0.0,0.0,0.0,0.0,0.0,0.0,0.0,0.0,0.0,0.0,0.0,-1.935,-1.9385,-1.9282,-1.902,-1.8263,-1.7322,-1.6185,-1.5784,-1.5244,-1.4435,-1.4399,-1.4399,-1.4399,-1.4399,-1.4399,0.0,0.0,0.0,0.0,0.0,0.0,0.0,0.0,0.0,0.0,0.0,0.0,0.0,-3.088,0.0,0.0,-4.0023,-4.1235,0.0,0.0,0.0,-3.9166,-3.8923,-3.6414,0.0,0.0,0.0,0.0,0.0,0.0,0.0,0.0,0.0,0.0,0.0,0.0,0.0,0.0,-3.2205,0.0,0.0,0.0,0.0,0.0,0.0,0.0,0.0,0.0,0.0,0.0,0.0,0.0,0.0,0.0,0.0,0.0,0.0,0.0,-3.8968,-3.9109,-3.9343,-3.9702,-4.0259,-4.0616,-4.0631,-4.0709,-4.0814,-4.0916,-4.073,-4.0677,-4.0746,-4.0677,-4.0677,-4.0746,-4.0662,-4.0627,-4.0627,-4.0524,-4.0489,-4.0489,-4.0489,-4.0489,-4.0489,-4.0489,-4.0489,-4.0489,-4.0489,-4.0489,-4.0489,0.0,0.0,0.0,0.0,0.0,0.0,0.0,0.0,0.0,0.0,-2.1325,-2.1871,-2.1871,-2.1881,-2.1598,-2.0886,-1.9926,-1.8695,-1.7176,-1.6235,-1.5384,-1.4587,-1.4459,-1.4405,-1.4405,-1.4405,-1.4405,0.0,0.0,0.0,0.0,0.0,0.0,0.0,0.0,0.0,0.0,0.0,0.0,-2.7725,-3.1823,-3.5285,0.0,0.0,-4.1766,0.0,-4.0995,-4.068,-4.0362,-4.0521,-3.7868,0.0,0.0,0.0,0.0,0.0,-2.0648,0.0,0.0,0.0,0.0,0.0,0.0,0.0,-2.9602,-3.1655,-3.3734,0.0,0.0,0.0,0.0,0.0,0.0,0.0,0.0,0.0,0.0,0.0,0.0,0.0,0.0,0.0,0.0,-3.8033,-3.8397,-3.8397,-3.9013,-3.9345,-3.922,-3.9816,-4.0159,-4.0058,-4.0665,-4.1024,-4.1102,-4.0916,-4.0916,-4.1117,-4.0916,-4.0916,-4.1083,-4.0916,-4.0833,-4.0833,-4.0627,-4.0558,-4.0524,-4.0524,-4.0524,-4.0489,-4.0489,-4.0489,-4.0489,-4.0489,-4.0489,-4.0489,-1.7096,0.0,0.0,0.0,0.0,0.0,0.0,0.0,0.0,0.0,-2.2665,-2.355,-2.3617,-2.3617,-2.3563,-2.3464,-2.1484,-1.9835,-1.8889,-1.7444,-1.629,-1.5478,-1.483,-1.4476,-1.4476,-1.4476,-1.4476,0.0,0.0,0.0,0.0,0.0,0.0,0.0,0.0,0.0,0.0,0.0,0.0,-2.884,-3.2819,0.0,-4.004,-4.1699,-4.2029,-4.1556,-4.1237,-4.0924,-4.0546,0.0,-3.852,-3.646,0.0,0.0,0.0,0.0,0.0,0.0,0.0,0.0,0.0,0.0,0.0,0.0,-2.5737,-2.8699,-3.1507,0.0,0.0,0.0,0.0,0.0,0.0,0.0,0.0,0.0,0.0,0.0,0.0,0.0,0.0,0.0,0.0,-3.7636,-3.7686,-3.7686,-3.8318,-3.8682,-3.8651,-3.9188,-3.9785,-4.048,-4.0313,-4.0542,-4.1256,-4.112,-4.1068,-4.1117,-4.1068,-4.1068,-4.1117,-4.1068,-4.1034,-4.1034,-4.1,-4.0882,-4.073,-4.073,-4.0662,-4.0489,-4.0489,-4.0489,-4.0489,-4.0489,-4.0489,-4.0489,-1.8353,0.0,0.0,0.0,0.0,0.0,0.0,0.0,0.0,-2.3437,-2.4571,-2.5311,-2.5342,-2.5342,-2.5206,-2.4842,-2.3657,-2.2263,-2.0656,-1.9373,-1.8163,-1.6958,-1.5747,-1.5105,-1.5105,-1.4714,-1.4493,0.0,0.0,0.0,0.0,0.0,0.0,0.0,0.0,0.0,0.0,0.0,-2.6224,-3.0878,-3.3603,0.0,-4.0691,-4.1999,-4.2172,-4.1666,-4.1328,-4.0995,-4.0645,-4.0305,-3.9239,0.0,0.0,-3.4731,-3.2886,0.0,-2.842,-2.7369,0.0,0.0,0.0,-2.3298,0.0,0.0,0.0,-2.8079,-2.9937,0.0,0.0,0.0,0.0,0.0,0.0,0.0,0.0,0.0,0.0,0.0,0.0,0.0,0.0,0.0,0.0,-3.751,-3.751,-3.751,-3.7796,-3.8002,-3.8002,-3.8573,-3.9109,-3.955,-3.9676,-4.0147,-4.0952,-4.077,-4.091,-4.1355,-4.1254,-4.1254,-4.1355,-4.1254,-4.1221,-4.1187,-4.1135,-4.1034,-4.095,-4.095,-4.0882,-4.078,-4.0574,-4.0489,-4.0489,-4.0489,-4.0489,-4.0489,-1.9611,0.0,0.0,0.0,0.0,0.0,0.0,0.0,0.0,-2.5239,-2.6237,-2.6888,-2.7042,-2.7189,0.0,-2.6605,-2.6403,-2.5374,0.0,0.0,0.0,-1.8886,-1.7105,-1.6151,-1.6151,-1.5215,-1.4732,-1.4732,0.0,0.0,0.0,0.0,0.0,0.0,0.0,0.0,0.0,0.0,0.0,-3.3378,0.0,-3.7792,-4.1051,-4.23,-4.2333,-4.1644,-4.1255,-4.0948,-4.0745,-4.0745,0.0,-3.8927,-3.8168,-3.7185,0.0,0.0,0.0,0.0,0.0,0.0,0.0,0.0,0.0,-2.5631,0.0,0.0,0.0,-2.9969,0.0,0.0,0.0,0.0,0.0,0.0,0.0,0.0,0.0,0.0,0.0,0.0,0.0,0.0,0.0,-3.7553,-3.751,-3.751,-3.751,-3.751,-3.751,-3.8002,-3.8381,-3.8507,-3.9029,-3.9661,-4.0388,-4.0369,-4.0716,-4.1399,-4.136,-4.1456,-4.1588,-4.1423,-4.1357,-4.1357,-4.1254,-4.1169,-4.1135,-4.1135,-4.1135,-4.1068,-4.0712,-4.0558,-4.0558,-4.0524,-4.0489,-4.0489,-1.9651,-1.9732,0.0,0.0,0.0,0.0,0.0,0.0,0.0,-2.538,-2.6754,0.0,0.0,0.0,0.0,0.0,0.0,0.0,-2.7229,0.0,0.0,0.0,-1.9106,-1.7839,-1.7839,-1.6334,-1.5564,-1.5564,0.0,0.0,0.0,0.0,0.0,0.0,-2.14,0.0,0.0,0.0,-3.3959,0.0,-3.8321,-4.0241,0.0,-4.2904,-4.2634,-4.1622,-4.0971,-4.0817,-4.0888,0.0,-4.0767,-4.0498,0.0,-3.9819,0.0,0.0,0.0,0.0,0.0,0.0,0.0,0.0,-2.6506,0.0,0.0,0.0,-2.5471,-2.57,0.0,0.0,0.0,0.0,0.0,0.0,0.0,0.0,0.0,0.0,0.0,0.0,0.0,0.0,0.0,0.0,-3.751,-3.751,-3.751,-3.751,-3.751,-3.7589,-3.7875,-3.8491,-3.8586,-3.895,-3.9629,-4.0245,-4.0608,-4.0719,-4.1304,-4.1588,-4.1588,-4.1588,-4.1555,-4.1555,-4.1555,-4.1423,-4.129,-4.129,-4.1221,-4.1083,-4.0833,-4.0765,-4.073,-4.0558,-4.0489,-4.0489,-1.8971,-1.9463,0.0,0.0,0.0,0.0,0.0,0.0,0.0,-2.6172,-2.7981,0.0,0.0,0.0,0.0,0.0,0.0,-3.1806,0.0,0.0,0.0,0.0,0.0,0.0,0.0,-1.7931,-1.6646,-1.5698,-1.5362,0.0,0.0,0.0,0.0,0.0,-2.2914,0.0,-2.8007,0.0,0.0,0.0,0.0,0.0,0.0,-4.2759,-4.2378,-4.1463,-4.0989,-4.0864,-4.0912,0.0,-4.0912,0.0,0.0,0.0,0.0,0.0,0.0,0.0,0.0,0.0,0.0,0.0,0.0,0.0,0.0,0.0,-2.4181,0.0,0.0,0.0,0.0,0.0,0.0,0.0,0.0,0.0,0.0,0.0,0.0,0.0,0.0,0.0,0.0,0.0,0.0,0.0,0.0,-3.751,-3.751,-3.751,-3.7636,-3.7907,-3.7923,-3.8239,-3.8918,-3.9613,-4.0182,-4.0609,-4.1272,-4.1588,-4.1588,-4.1588,-4.1588,-4.1588,-4.1588,-4.1555,-4.1489,-4.1489,-4.1423,-4.1372,-4.1171,-4.0953,-4.0765,-4.0558,-4.0489,-4.0489,-1.8584,0.0,0.0,0.0,0.0,0.0,0.0,0.0,0.0,0.0,0.0,0.0,-3.1109,-3.2417,0.0,0.0,0.0,-3.4706,0.0,0.0,-3.0179,0.0,0.0,0.0,0.0,0.0,-1.8078,-1.669,-1.6243,-1.5723,0.0,0.0,0.0,0.0,0.0,-2.8044,-3.1146,0.0,0.0,-3.9808,-4.1203,-4.202,-4.2413,-4.2609,-4.2338,-4.1753,-4.1373,-4.1163,-4.1065,-4.1065,-4.0989,0.0,-4.0912,0.0,0.0,0.0,0.0,0.0,-3.4663,0.0,0.0,0.0,0.0,0.0,0.0,0.0,0.0,0.0,0.0,0.0,0.0,0.0,0.0,0.0,0.0,0.0,0.0,0.0,0.0,0.0,0.0,0.0,0.0,0.0,0.0,0.0,-3.7114,-3.7304,-3.7494,-3.751,-3.751,-3.751,-3.751,-3.7717,-3.8223,-3.8886,-3.9598,-4.0309,-4.1004,-4.1415,-4.1588,-4.1588,-4.1588,-4.1588,-4.1588,-4.1588,-4.1588,-4.1588,-4.1588,-4.1588,-4.139,-4.1156,-4.0901,-4.0662,-4.0558,-4.0489,-1.8894,-1.9497,0.0,0.0,0.0,0.0,0.0,0.0,0.0,0.0,0.0,0.0,0.0,0.0,0.0,0.0,0.0,-3.7863,-3.6285,0.0,-3.4105,0.0,0.0,-2.7236,0.0,0.0,0.0,-1.9187,-1.7612,-1.6853,0.0,0.0,0.0,0.0,0.0,-3.0234,-3.2894,-3.8545,-4.1442,-4.2268,-4.3075,-4.3195,-4.2865,0.0,-4.275,-4.2787,-4.2338,0.0,0.0,-4.1472,-4.1214,0.0,0.0,0.0,0.0,0.0,0.0,0.0,0.0,0.0,0.0,-3.3179,0.0,0.0,0.0,0.0,-2.4954,0.0,0.0,0.0,0.0,0.0,0.0,-2.1854,0.0,0.0,0.0,0.0,0.0,0.0,0.0,0.0,0.0,0.0,0.0,-3.557,-3.6131,-3.6753,-3.7478,-3.751,-3.751,-3.751,-3.751,-3.7526,-3.7541,-3.8207,-3.8886,-3.9534,-4.0277,-4.0972,-4.1588,-4.1588,-4.1588,-4.1588,-4.1588,-4.1588,-4.1588,-4.1588,-4.1588,-4.1588,-4.139,-4.129,-4.1256,-4.0919,-4.0662,-4.0489,0.0,0.0,0.0,0.0,0.0,0.0,0.0,-2.7541,0.0,0.0,0.0,0.0,0.0,0.0,-3.6886,0.0,0.0,-3.8469,-3.7918,-3.711,0.0,0.0,0.0,-3.0889,0.0,0.0,0.0,-2.1749,-1.9565,-1.8225,0.0,0.0,0.0,0.0,0.0,-3.0418,0.0,0.0,0.0,0.0,0.0,-4.341,-4.3268,0.0,0.0,-4.2418,-4.2257,-4.2095,0.0,-4.1604,-4.1401,-4.1237,-4.0971,-4.0912,-4.0739,-3.9939,-3.9508,0.0,0.0,0.0,-3.756,-3.5042,0.0,0.0,0.0,0.0,0.0,0.0,0.0,0.0,0.0,0.0,-2.3147,-2.1118,-2.1027,0.0,0.0,0.0,0.0,0.0,0.0,0.0,0.0,0.0,0.0,-3.5589,-3.6568,-3.7227,0.0,-3.751,-3.751,-3.751,-3.751,-3.751,-3.751,-3.816,-3.8618,-3.8855,-4.004,-4.0719,-4.0956,-4.1399,-4.1588,-4.1588,-4.1588,-4.1588,-4.1588,-4.1588,-4.1588,-4.1588,-4.1522,-4.1372,-4.112,-4.0901,-4.0765,-4.0696,-2.2756,0.0,0.0,0.0,0.0,0.0,0.0,0.0,0.0,0.0,-3.3414,0.0,-3.632,0.0,-3.8172,0.0,-3.9273,-3.9536,-3.9536,-3.9074,0.0,-3.8028,-3.6413,0.0,0.0,0.0,0.0,0.0,-2.2244,-2.0335,-1.8951,0.0,0.0,0.0,0.0,0.0,0.0,0.0,-4.0779,0.0,0.0,-4.3515,0.0,0.0,-4.292,-4.2656,0.0,-4.246,-4.2157,-4.1842,-4.1556,-4.1237,-4.0989,-4.0912,-4.0808,-4.0267,-4.0112,-4.0008,-3.9566,-3.9543,0.0,-3.6956,-3.599,0.0,-3.2145,0.0,0.0,0.0,0.0,0.0,0.0,0.0,0.0,-2.1595,-2.0756,-1.9981,0.0,-1.8915,0.0,0.0,0.0,0.0,0.0,0.0,-3.3363,-3.5566,-3.6242,-3.6737,0.0,0.0,-3.751,-3.751,-3.751,-3.751,-3.751,-3.7923,-3.827,-3.8523,-3.9661,-4.0356,-4.0625,-4.1288,-4.1588,-4.1588,-4.1588,-4.1588,-4.1588,-4.1588,-4.1588,-4.1588,-4.1588,-4.1472,-4.1254,-4.0984,-4.0814,-4.0662,0.0,0.0,0.0,0.0,-2.4429,0.0,0.0,0.0,-3.2031,0.0,-3.5069,-3.6371,-3.8674,-3.886,-3.9454,-4.1059,-4.1126,0.0,-4.1095,-4.1132,0.0,0.0,-3.968,-3.8487,-3.7639,0.0,0.0,0.0,0.0,0.0,-2.0613,0.0,0.0,0.0,-2.4218,0.0,-3.3788,-3.6317,-3.9751,-4.3515,-4.3515,-4.3515,-4.3515,-4.3515,-4.3515,-4.3515,-4.3515,-4.2976,-4.2259,-4.2239,-4.1666,-4.0965,-4.0942,-4.0935,-4.0912,-4.0912,-4.0912,-4.0912,-4.0912,-4.0359,-3.9577,-3.8836,0.0,0.0,0.0,0.0,-3.4286,0.0,0.0,0.0,0.0,0.0,0.0,-2.3181,-2.1492,-2.0205,-1.951,0.0,0.0,0.0,0.0,0.0,0.0,-2.8791,-3.0285,-3.5341,-3.5107,0.0,0.0,0.0,-3.7478,-3.751,-3.751,-3.751,-3.751,-3.751,-3.7812,-3.8476,-3.9139,-3.9835,-4.0577,-4.1241,-4.1557,-4.1588,-4.1588,-4.1588,-4.1588,-4.1588,-4.1588,-4.1588,-4.1588,-4.1588,-4.1555,-4.1236,-4.0848,-4.0539,-2.4827,-2.5178,-2.6212,0.0,-2.9273,-3.0235,0.0,0.0,0.0,0.0,-3.7757,-3.8714,-4.0465,-4.0593,-4.0714,-4.1089,-4.1111,0.0,0.0,0.0,0.0,-4.1132,-4.1277,-4.0726,-3.931,-3.7088,0.0,-3.1372,0.0,0.0,-2.2327,0.0,0.0,0.0,0.0,0.0,-3.1329,-3.4362,-3.8689,-4.3515,-4.3515,-4.3515,0.0,0.0,-4.3515,-4.3515,-4.3515,-4.3375,-4.3124,-4.2826,-4.2338,-4.1817,-4.1445,-4.114,-4.0912,-4.0912,-4.0912,-4.0912,-4.0912,-4.0756,-4.0411,-3.9612,-3.8698,-3.7818,0.0,0.0,0.0,0.0,0.0,0.0,0.0,0.0,0.0,0.0,0.0,0.0,0.0,0.0,0.0,0.0,0.0,0.0,0.0,-2.7644,-2.9959,-3.4068,-3.4333,0.0,0.0,0.0,0.0,-3.7494,-3.751,-3.751,-3.751,-3.751,-3.7605,-3.7749,-3.8444,-3.9123,-3.9803,-4.053,-4.113,-4.1588,-4.1588,-4.1588,-4.1588,-4.1588,-4.1588,-4.1588,-4.1588,-4.1522,-4.1357,-4.129,-4.112,-4.0932,-2.6601,0.0,0.0,-3.0154,0.0,0.0,-3.3853,0.0,0.0,-3.9251,-3.9773,0.0,-4.1776,-4.1849,-4.1952,-4.2255,-4.2224,0.0,0.0,0.0,0.0,-4.2176,-4.258,-4.2396,-4.1479,-3.99,0.0,-3.3647,0.0,0.0,-2.2969,0.0,0.0,0.0,0.0,-2.5684,0.0,-3.5536,-3.9735,-4.3002,-4.3368,0.0,0.0,-4.3515,-4.3515,-4.3515,-4.3515,-4.3392,-4.3196,-4.2994,-4.2595,-4.2157,-4.1885,-4.1512,-4.1163,-4.1163,-4.1041,-4.0912,-4.0912,-4.0912,-4.0791,-4.0359,-3.9928,-3.9514,-3.9083,-3.8996,-3.91,0.0,0.0,0.0,0.0,0.0,0.0,0.0,0.0,0.0,0.0,0.0,0.0,0.0,0.0,0.0,0.0,0.0,0.0,0.0,0.0,0.0,0.0,0.0,0.0,-3.7006,-3.7568,-3.7727,-3.751,-3.7727,-3.7727,-3.7526,-3.8175,-3.8855,-3.9534,-4.0261,-4.0972,-4.1588,-4.1588,-4.1588,-4.1588,-4.1588,-4.1588,-4.1588,-4.1588,-4.1522,-4.1423,-4.1423,-4.1272,-4.1083,0.0,0.0,0.0,0.0,0.0,0.0,0.0,-3.8203,0.0,-4.0966,0.0,-4.1835,-4.2764,-4.2813,-4.3061,-4.3749,0.0,-4.36,-4.3549,-4.3549,-4.3549,-4.3549,-4.3513,-4.3496,-4.3496,-4.2121,0.0,0.0,0.0,0.0,0.0,0.0,0.0,0.0,0.0,0.0,0.0,-3.7903,-4.1442,0.0,-4.3222,-4.3515,-4.3515,-4.3515,-4.3515,-4.3515,-4.3515,-4.3286,-4.2976,-4.2976,-4.2673,-4.2279,-4.2279,-4.1927,-4.1516,-4.1561,-4.126,-4.0894,-4.0965,-4.0942,-4.0912,-4.0912,-4.0912,-4.0912,-4.0912,-4.0912,-4.0912,-4.0912,-3.9842,-3.8629,0.0,0.0,0.0,0.0,0.0,0.0,0.0,0.0,0.0,0.0,0.0,0.0,0.0,0.0,0.0,0.0,0.0,0.0,0.0,0.0,0.0,-3.6564,-3.7607,0.0,-3.7612,0.0,-3.8014,-3.7612,-3.8111,-3.8728,-3.9392,-4.0119,-4.083,-4.1462,-4.1541,-4.1588,-4.1588,-4.1588,-4.1588,-4.1588,-4.1588,-4.1588,-4.1588,-4.1588,-4.1406,-4.1169,0.0,0.0,0.0,0.0,0.0,-3.8654,-4.058,-4.1302,-4.1968,-4.291,-4.2745,-4.2829,-4.3616,-4.3677,-4.3719,-4.3786,-4.3788,0.0,0.0,0.0,0.0,-4.3754,-4.3634,-4.3582,-4.3582,-4.3238,-4.1093,0.0,0.0,0.0,0.0,0.0,0.0,0.0,0.0,0.0,-3.344,-3.7441,0.0,-4.3313,-4.3441,-4.3515,-4.3515,-4.3515,-4.3515,-4.3515,-4.3515,-4.3444,-4.3392,-4.3392,-4.3124,-4.2787,-4.2787,-4.2177,-4.1561,-4.1969,-4.1529,-4.0965,-4.1305,-4.114,-4.0912,-4.0912,-4.0912,-4.0912,-4.0912,-4.0912,-4.0912,-4.0912,-4.0687,-4.0083,-3.8686,0.0,0.0,0.0,0.0,0.0,0.0,0.0,0.0,0.0,0.0,0.0,0.0,0.0,0.0,0.0,0.0,0.0,0.0,0.0,0.0,0.0,-3.7519,0.0,0.0,0.0,-3.7815,-3.8169,-3.7841,-3.8017,-3.8713,-3.9376,-4.0087,-4.0798,-4.1351,-4.1588,-4.1588,-4.1588,-4.1588,-4.1588,-4.1588,-4.1588,-4.1588,-4.1588,-4.1555,-4.1505,0.0,0.0,0.0,0.0,0.0,0.0,0.0,-4.3235,0.0,-4.4137,-4.3828,-4.3677,-4.3921,-4.3942,-4.3929,-4.3851,-4.3851,-4.3853,-4.3804,-4.3804,-4.3771,-4.3703,-4.3615,0.0,-4.3548,-4.3532,-4.1532,-3.7492,0.0,0.0,0.0,0.0,0.0,0.0,0.0,-2.9237,0.0,0.0,0.0,-4.291,-4.3331,-4.3515,-4.3515,-4.3515,-4.3515,-4.3515,-4.3515,-4.3515,-4.3515,-4.3515,-4.3375,-4.3214,-4.3214,-4.2751,-4.2277,-4.2498,-4.2074,-4.1622,-4.1799,-4.1731,-4.1529,-4.126,-4.1192,-4.1163,-4.0942,-4.0912,-4.0912,-4.0912,-4.0912,-4.067,-3.9928,-3.8232,0.0,0.0,0.0,0.0,0.0,0.0,0.0,0.0,0.0,0.0,0.0,0.0,0.0,0.0,0.0,0.0,0.0,0.0,0.0,0.0,0.0,0.0,0.0,0.0,0.0,-3.7886,-3.7626,-3.7844,-3.8508,-3.9202,-3.9898,-4.064,-4.1304,-4.1588,-4.1588,-4.1588,-4.1588,-4.1588,-4.1588,-4.1588,-4.1588,-4.1588,-4.1588,-4.1588,0.0,-3.7065,0.0,0.0,-4.0623,0.0,-4.322,-4.446,-4.518,-4.4837,-4.4519,-4.425,-4.4017,-4.4005,-4.3974,-4.3929,-4.3929,-4.3897,-4.3853,-4.3835,-4.3802,-4.3682,-4.3666,-4.3632,-4.36,-4.3566,-4.1838,0.0,0.0,0.0,0.0,0.0,0.0,0.0,0.0,0.0,0.0,0.0,-4.1645,-4.2598,-4.3239,-4.3515,-4.3515,-4.3515,-4.3515,-4.3515,-4.3515,-4.3515,-4.3515,-4.3515,-4.3515,-4.3515,-4.3515,-4.3214,-4.2919,-4.2995,-4.2635,-4.2218,-4.2318,-4.2277,-4.2115,-4.1735,-4.1561,-4.1423,-4.1094,-4.0965,-4.0912,-4.0912,-4.0912,-4.0912,-4.0912,-3.9911,0.0,0.0,0.0,0.0,0.0,0.0,0.0,0.0,0.0,0.0,0.0,0.0,0.0,0.0,0.0,0.0,0.0,0.0,0.0,0.0,0.0,-3.8717,-3.7685,0.0,-3.8084,0.0,-3.7553,-3.7765,-3.8318,-3.9123,-3.9819,-4.0403,-4.1241,-4.1588,-4.1588,-4.1588,-4.1588,-4.1588,-4.1588,-4.1588,-4.1588,-4.1588,-4.1588,-4.1588,0.0,0.0,0.0,0.0,0.0,0.0,0.0,-4.4981,-4.539,-4.4879,-4.4559,-4.4289,-4.4036,-4.4005,-4.4005,-4.3989,-4.3989,-4.3989,-4.3974,-4.3974,-4.3974,-4.3974,-4.3913,-4.3865,-4.3865,-4.3802,-4.2883,0.0,0.0,0.0,0.0,0.0,0.0,0.0,0.0,0.0,0.0,-4.0306,-4.1992,-4.3404,-4.3478,-4.3515,-4.3515,-4.3515,-4.3515,-4.3515,-4.3515,-4.3515,-4.3515,-4.3515,-4.3515,-4.3515,-4.3515,-4.3214,-4.2957,-4.3339,-4.2846,-4.2279,-4.2711,-4.2518,-4.2177,-4.2154,-4.1821,-4.1494,-4.1468,-4.1163,-4.0912,-4.0912,-4.0912,-4.0912,-4.0912,-4.0791,-4.0687,0.0,0.0,0.0,0.0,0.0,0.0,0.0,0.0,0.0,0.0,0.0,0.0,0.0,0.0,0.0,0.0,0.0,0.0,-3.8225,0.0,-3.8892,-3.8238,-3.8278,0.0,-3.821,-3.7727,-3.7541,-3.7652,-3.8918,-3.9534,-3.9677,-4.102,-4.1588,-4.1588,-4.1588,-4.1588,-4.1588,-4.1588,-4.1588,-4.1588,-4.1588,-4.1588,-4.1588,0.0,0.0,0.0,0.0,0.0,0.0,0.0,-4.5383,-4.5476,-4.5085,-4.4943,-4.4726,-4.4294,-4.425,-4.4181,-4.4002,-4.4005,-4.4005,-4.4005,-4.4005,-4.3974,-4.3945,-4.3913,-4.3883,-4.3835,-4.382,-4.301,0.0,0.0,0.0,0.0,0.0,0.0,0.0,0.0,-3.7742,-4.0251,-4.1864,-4.291,-4.3515,-4.3515,-4.3515,-4.3515,-4.3515,-4.3515,-4.3515,-4.3515,-4.3515,-4.3515,-4.3515,-4.3515,-4.3515,-4.3515,-4.3392,-4.3304,-4.3444,-4.325,-4.3032,-4.3196,-4.3105,-4.2921,-4.2692,-4.2478,-4.2277,-4.199,-4.1796,-4.16,-4.1328,-4.1065,-4.0912,-4.0912,-4.0912,-4.0912,0.0,0.0,0.0,0.0,0.0,0.0,0.0,0.0,0.0,0.0,0.0,0.0,0.0,0.0,0.0,0.0,0.0,0.0,-3.8165,0.0,-3.9236,-3.8322,-3.8306,-3.8306,-3.8278,-3.7756,-3.751,-3.7541,-3.8476,-3.936,-4.0214,-4.1178,-4.1588,-4.1588,-4.1588,-4.1588,-4.1588,-4.1588,-4.1588,-4.1588,-4.1588,-4.1588,-4.1555,-4.3866,0.0,-4.4034,0.0,-4.4699,-4.4893,-4.5518,-4.5594,-4.5522,-4.5342,-4.5322,-4.5085,-4.4465,-4.4465,-4.4374,-4.4017,-4.4079,-4.4075,-4.4005,-4.4005,-4.3974,-4.3929,-4.3929,0.0,-4.3867,-4.3867,-4.3312,-4.2162,-4.0485,0.0,0.0,0.0,0.0,0.0,-3.8689,-4.0446,-4.1967,-4.3105,-4.3583,-4.3583,-4.3583,-4.3583,-4.3583,-4.3583,-4.3566,-4.3531,-4.3566,-4.3566,-4.3513,-4.3513,-4.3513,-4.3532,-4.3515,-4.3515,-4.3515,-4.3515,-4.3515,-4.3515,-4.3515,-4.3515,-4.3427,-4.316,-4.2976,-4.2806,-4.2478,-4.2297,-4.2095,-4.1778,-4.1373,-4.1088,-4.1088,-4.0989,-4.0912,-4.0912,0.0,0.0,0.0,0.0,0.0,0.0,0.0,-4.0664,-4.0036,0.0,0.0,0.0,0.0,0.0,0.0,0.0,0.0,0.0,0.0,0.0,0.0,-3.8723,-3.8624,-3.8294,-3.7915,-3.7655,-3.7541,-3.8397,-3.9455,-4.064,-4.1304,-4.1588,-4.1588,-4.1588,-4.1588,-4.1588,-4.1588,-4.1588,-4.1588,-4.1588,-4.1588,-4.1555,-4.5669,-4.5668,-4.5662,-4.5682,-4.562,-4.5594,-4.5594,-4.5594,-4.5594,-4.5605,-4.5605,-4.5283,-4.4493,-4.4637,-4.4572,-4.4048,-4.425,-4.4275,-4.402,-4.4005,-4.4005,0.0,0.0,-4.4005,-4.4005,-4.4005,-4.3986,-4.3968,0.0,0.0,-4.017,0.0,-3.85,-4.0074,-4.0975,-4.2253,-4.3769,-4.3788,-4.3788,-4.3788,-4.3788,-4.3788,-4.3788,-4.3788,-4.3719,-4.3634,-4.3736,-4.3719,-4.3599,-4.3599,-4.3599,-4.3582,-4.3513,-4.3515,-4.3515,-4.3515,-4.3515,-4.3515,-4.3515,-4.3515,-4.3515,-4.3479,-4.3178,-4.2901,-4.2882,-4.2518,-4.2198,-4.2177,-4.1821,-4.1494,-4.1494,-4.1163,-4.0912,-4.0912,0.0,0.0,0.0,0.0,0.0,0.0,-4.0912,-4.0912,-4.0894,0.0,0.0,0.0,0.0,0.0,0.0,0.0,0.0,-3.9969,-4.0573,0.0,-3.9206,-3.9697,-3.9404,-3.8306,-3.8278,-3.8014,-3.7557,-3.8871,-3.9898,-4.064,-4.1304,-4.1588,-4.1588,-4.1588,-4.1588,-4.1588,-4.1588,-4.1588,-4.1588,-4.1588,-4.1588,-4.1555,-4.5708,-4.5692,-4.5695,-4.5709,-4.5684,-4.5648,-4.5614,-4.5594,-4.5594,-4.5594,-4.5594,-4.5429,-4.4988,-4.503,-4.4919,0.0,-4.4624,-4.4559,0.0,-4.426,-4.4177,-4.402,-4.4005,-4.4005,-4.4005,-4.4005,-4.4005,-4.4005,0.0,0.0,0.0,-4.0878,-4.1204,-4.2702,-4.2976,-4.3354,-4.3804,-4.3804,-4.3804,-4.3804,-4.3804,-4.3804,-4.3804,-4.3804,-4.3769,-4.3736,-4.3788,-4.3769,-4.3736,-4.3736,-4.3736,-4.3736,-4.3703,-4.3634,-4.3565,-4.3565,-4.3634,-4.3703,-4.3703,-4.3634,-4.36,-4.3686,-4.3549,-4.341,-4.3497,-4.3124,-4.2733,-4.2692,-4.23,-4.1885,-4.1561,-4.1401,-4.1232,-4.0942,-4.0912,0.0,0.0,0.0,0.0,0.0,0.0,-4.0912,0.0,-3.9904,0.0,0.0,0.0,0.0,0.0,0.0,0.0,0.0,-4.0316,0.0,-3.9749,-3.9902,-3.9808,-3.943,-3.8652,-3.8014,-3.7557,-3.8886,-3.9629,-3.9914,-4.1083,-4.1588,-4.1588,-4.1588,-4.1588,-4.1588,-4.1588,-4.1588,-4.1588,-4.1588,-4.1588,-4.1555,-4.5754,-4.5739,-4.5735,-4.5695,-4.569,-4.5684,-4.5622,-4.5594,-4.5594,-4.5594,-4.5594,-4.555,-4.5362,-4.5342,0.0,-4.4825,-4.4884,-4.4788,-4.4411,-4.4397,-4.4275,-4.4002,-4.4005,-4.4005,-4.4005,0.0,0.0,-4.4005,-4.3503,-4.3243,-4.3243,-4.2742,-4.3008,-4.3945,-4.3945,-4.3913,-4.3883,-4.3883,-4.3883,-4.3883,-4.3883,-4.3883,-4.3883,-4.3883,-4.3867,-4.3835,-4.3867,-4.3867,-4.3853,-4.3853,-4.3853,-4.3818,-4.3804,-4.3753,-4.3718,-4.3684,-4.3736,-4.3804,-4.3804,-4.3736,-4.3703,-4.3788,-4.3736,-4.3684,-4.3719,-4.3479,-4.3214,-4.3142,-4.2789,-4.242,-4.2118,-4.1973,-4.1717,-4.126,-4.1209,-4.1134,-4.0918,0.0,0.0,0.0,0.0,0.0,0.0,-4.041,0.0,0.0,0.0,0.0,0.0,0.0,0.0,-3.9637,-4.047,0.0,-4.0003,-4.022,-4.0003,-3.9351,-3.8435,-3.7828,-3.7557,-3.8886,-3.9503,-3.9582,-4.0972,-4.1588,-4.1588,-4.1588,-4.1588,-4.1588,-4.1588,-4.1588,-4.1588,-4.1588,-4.1588,-4.1588,-4.5884,-4.5933,0.0,0.0,-4.5888,0.0,-4.5796,-4.5787,-4.5768,-4.5768,-4.5768,-4.5748,-4.571,-4.5691,-4.5458,-4.4896,0.0,0.0,0.0,-4.4452,-4.4332,-4.4033,-4.4036,-4.4036,-4.4005,-4.4005,-4.4005,-4.4005,-4.4005,-4.4005,-4.4005,-4.4005,-4.4005,-4.4005,-4.4005,-4.4005,-4.4005,-4.4005,-4.4005,-4.4005,-4.4005,-4.4005,-4.4005,-4.4005,-4.3958,-4.3913,-4.3974,-4.3958,-4.3897,-4.3897,-4.3897,-4.3899,-4.3818,-4.3851,-4.3881,-4.3837,-4.3804,-4.382,-4.382,-4.3804,-4.3804,-4.382,-4.382,-4.3769,-4.3651,-4.3615,-4.3599,-4.3513,-4.3286,-4.3051,-4.3014,-4.2734,-4.2324,-4.1778,-4.1687,-4.1485,-4.0965,0.0,0.0,0.0,0.0,0.0,0.0,-4.0912,-4.0912,0.0,0.0,0.0,0.0,0.0,-4.0053,-4.0877,-4.0912,-4.0638,-4.0053,-4.0573,-3.9978,-3.8278,-3.7786,-3.7539,-3.7557,-3.8886,-3.9503,-3.9582,-4.0972,-4.1588,-4.1588,-4.1588,-4.1588,-4.1588,-4.1588,-4.1588,-4.1588,-4.1588,-4.1588,-4.1588,0.0,0.0,-4.777,-4.7712,-4.7684,-4.7662,-4.758,-4.7536,-4.7509,-4.7509,-4.7509,-4.7278,-4.6663,-4.6586,-4.6261,-4.5477,-4.5476,-4.5362,-4.5041,-4.5,-4.48,-4.4318,-4.4303,-4.4206,-4.3986,-4.4005,-4.4005,-4.4005,-4.4005,-4.4005,-4.4005,-4.4005,-4.4005,-4.4005,-4.4005,-4.4005,-4.4005,-4.4005,-4.4005,-4.4005,-4.4005,-4.4005,-4.4005,-4.4005,-4.3989,-4.3974,-4.3989,-4.3989,-4.3974,-4.3974,-4.3974,-4.3974,-4.3961,-4.3958,-4.3958,-4.3899,-4.3913,-4.3942,-4.3942,-4.3913,-4.3899,-4.3945,-4.3942,-4.3929,-4.3786,-4.3802,-4.3783,-4.3599,-4.36,-4.3513,-4.3141,-4.2754,-4.2324,-4.1778,-4.1436,-4.1169,-4.0918,-4.0912,0.0,0.0,-4.0912,-4.0912,-4.0912,-4.0912,-4.0912,0.0,0.0,0.0,0.0,-4.0698,-4.0698,-4.0894,-4.0912,-4.0823,-4.0686,-4.0385,-3.9577,-3.8306,-3.8153,-3.7886,-3.7557,-3.8886,-3.9503,-3.9582,-4.0972,-4.1588,-4.1588,-4.1588,-4.1588,-4.1588,-4.1588,-4.1588,-4.1588,-4.1588,-4.1588,-4.1588,-4.7695,-4.8082,-4.8377,-4.83,-4.8295,-4.829,-4.8249,-4.8197,-4.8142,-4.8142,-4.8115,-4.7932,-4.7509,-4.7451,-4.7105,-4.6278,-4.5825,-4.5495,-4.5222,-4.5201,-4.4954,-4.4411,-4.4397,-4.426,-4.4005,-4.4005,-4.4005,-4.4005,-4.4005,-4.4005,-4.4005,-4.4005,-4.4005,-4.4005,-4.4005,-4.4005,-4.4005,-4.4005,-4.4005,-4.4005,-4.4005,-4.4005,-4.4005,-4.4005,-4.4005,-4.4005,-4.4005,-4.4005,-4.4005,-4.4005,-4.4005,-4.4005,-4.4005,-4.4005,-4.3989,-4.3961,-4.3974,-4.4005,-4.4005,-4.3974,-4.3942,-4.3989,-4.4005,-4.3974,-4.3867,-4.3883,-4.3849,-4.3718,-4.3769,-4.3767,-4.351,-4.3105,-4.2659,-4.2183,-4.1687,-4.1272,-4.1029,-4.0935,0.0,-4.0912,-4.0912,-4.0912,-4.0912,-4.0912,-4.0912,-4.0912,0.0,0.0,-4.0912,-4.0912,-4.0912,-4.0912,-4.0912,-4.0776,-4.05,-3.9919,-3.9332,-3.8712,-3.8418,-3.8014,-3.7557,-3.8886,-3.9503,-3.9582,-4.0972,-4.1588,-4.1588,-4.1588,-4.1588,-4.1588,-4.1588,-4.1588,-4.1588,-4.1588,-4.1588,-4.1588,-4.8604,-4.8682,-4.8771,-4.8694,-4.8686,-4.8689,-4.8696,-4.8634,-4.8581,-4.8581,-4.8545,-4.8451,-4.8335,-4.8307,-4.7922,-4.698,-4.6229,-4.5638,-4.5282,-4.5253,-4.5041,-4.4546,-4.4519,-4.4374,-4.4064,-4.4036,-4.4005,-4.4005,-4.4005,-4.4005,-4.4005,-4.4005,-4.4005,-4.4005,-4.4005,-4.4005,-4.4005,-4.4005,-4.4005,-4.4005,-4.4005,-4.4005,-4.4005,-4.4005,-4.4005,-4.4005,-4.4005,-4.4005,-4.4005,-4.4005,-4.4005,-4.4005,-4.4005,-4.4005,-4.4005,-4.4005,-4.4005,-4.4005,-4.4005,-4.4005,-4.4005,-4.4005,-4.4005,-4.3974,-4.3913,-4.3897,-4.3899,-4.3837,-4.3867,-4.3913,-4.3913,-4.3474,-4.3032,-4.2736,-4.208,-4.1507,-4.1198,0.0,-4.0912,-4.0912,-4.0912,-4.0912,-4.0912,-4.0912,-4.0912,-4.0912,-4.0912,-4.0912,0.0,-4.0912,-4.0912,-4.0912,-4.0912,-4.0597,-4.0003,-3.9558,-3.9269,-3.9206,-3.8684,-3.8141,-3.7689,-3.9024,-3.9596,-3.9582,-4.0972,-4.1588,-4.1588,-4.1588,-4.1588,-4.1588,-4.1588,-4.1588,-4.1588,-4.1588,-4.1588,-4.1588,-4.9494,-5.0055,-5.0511,-5.0503,-5.0499,-5.0494,-5.0505,-5.0433,-5.0407,-5.0407,-5.0398,-5.01,-4.9367,-4.9294,-4.865,-4.7032,-4.6786,-4.6365,-4.5589,-4.555,-4.541,-4.5085,-4.5074,-4.4849,-4.4346,-4.4106,-4.4005,-4.4005,-4.4005,-4.4005,-4.4005,-4.4005,-4.4005,-4.4005,-4.4005,-4.4005,-4.4005,-4.4005,-4.4005,-4.4005,-4.4005,-4.4005,-4.4005,-4.4005,-4.4005,-4.4005,-4.4005,-4.4005,-4.4005,-4.4005,-4.4005,-4.4005,-4.4005,-4.4005,-4.4005,-4.4005,-4.4005,-4.4005,-4.4005,-4.4005,-4.4005,-4.4005,-4.4005,-4.3974,-4.3913,-4.3926,-4.3976,-4.3915,-4.3945,-4.3989,-4.3989,-4.3371,-4.2904,-4.2996,-4.2041,-4.1305,-4.1423,0.0,-4.0912,-4.0912,-4.0912,-4.0912,-4.0912,-4.0912,-4.0912,-4.0912,-4.0912,-4.0912,-4.0912,-4.0912,-4.0912,-4.0912,-4.0912,-4.0597,-4.0003,-3.9927,-3.9662,-3.9206,-3.9125,-3.8756,-3.823,-3.9624,-3.9982,-3.9582,-4.0972,-4.1588,-4.1588,-4.1588,-4.1588,-4.1588,-4.1588,-4.1588,-4.1588,-4.1588,-4.1588,-4.1588,-5.0337,-5.0647,-5.0898,-5.0898,-5.0901,-5.0893,-5.0893,-5.088,-5.0855,-5.0855,-5.081,-5.0647,-5.0242,-5.0196,-4.9686,-4.8414,-4.7895,-4.7281,-4.6422,-4.5871,-4.5485,-4.5211,-4.5201,-4.4943,-4.4411,-4.4275,-4.4151,-4.4005,-4.4005,-4.4005,-4.4005,-4.4005,-4.4005,-4.4005,-4.4005,-4.4005,-4.4005,-4.4005,-4.4005,-4.4005,-4.4005,-4.4005,-4.4005,-4.4005,-4.4005,-4.4005,-4.4005,-4.4005,-4.4005,-4.4005,-4.4005,-4.4005,-4.4005,-4.4005,-4.4005,-4.4005,-4.4005,-4.4005,-4.4005,-4.4005,-4.4005,-4.4005,-4.4005,-4.3989,-4.3958,-4.3974,-4.3989,-4.3958,-4.3974,-4.4005,-4.4005,-4.3474,-4.2996,-4.2941,-4.2101,0.0,0.0,-4.1134,-4.0935,-4.1,-4.0935,-4.0912,-4.0912,-4.0912,-4.0912,-4.0912,-4.0912,-4.0912,-4.0912,-4.0912,-4.0912,-4.0912,-4.0912,-4.0776,-4.05,-4.0483,-4.0212,-3.9636,-3.9636,-3.9332,-3.8816,-4.0258,-4.0723,-4.0569,-4.2014,-4.2599,-4.2599,-4.2599,-4.2599,-4.2584,-4.2269,-4.2142,-4.2077,-4.1737,-4.1588,-4.1588,-5.0898,-5.0898,-5.0898,-5.0898,-5.0898,-5.0898,-5.0898,-5.0893,-5.0897,-5.0897,-5.0872,-5.0827,-5.0827,-5.0819,-5.0463,-4.9594,-4.893,-4.8139,-4.7078,-4.6337,-4.5751,-4.5322,-4.5243,-4.5019,-4.458,-4.4465,-4.4289,-4.4075,-4.4017,-4.4005,-4.4005,-4.4005,-4.4005,-4.4005,-4.4005,-4.4005,-4.4005,-4.4005,-4.4005,-4.4005,-4.4005,-4.4005,-4.4005,-4.4005,-4.4005,-4.4005,-4.4005,-4.4005,-4.4005,-4.4005,-4.4005,-4.4005,-4.4005,-4.4005,-4.4005,-4.4005,-4.4005,-4.4005,-4.4005,-4.4005,-4.4005,-4.4005,-4.4005,-4.4005,-4.4005,-4.4005,-4.4005,-4.4005,-4.4005,-4.4005,-4.4005,-4.3592,-4.3194,-4.3069,0.0,0.0,0.0,-4.1323,-4.1082,-4.1093,-4.1023,-4.0959,-4.0959,-4.0959,-4.0959,-4.0959,-4.0935,-4.0912,-4.0912,-4.0912,-4.0912,-4.0912,-4.0912,-4.0912,-4.0912,-4.0912,-4.0662,-4.022,-4.022,-4.002,-3.9718,-4.0939,-4.1532,-4.1669,-4.2932,-4.3512,-4.3482,-4.3363,-4.3273,-4.3213,-4.26,-4.2365,-4.2301,-4.1785,-4.1588,-4.1588,-5.0898,-5.0898,-5.0898,-5.0898,-5.0898,-5.0898,-5.0898,-5.0898,-5.0898,-5.0898,-5.089,-5.089,-5.089,-5.0897,-5.0552,-4.9663,-4.9468,-4.8737,-4.7116,-4.6934,-4.6524,-4.5695,-4.5381,-4.5191,-4.514,-4.4644,-4.4402,-4.4374,-4.4121,-4.4005,-4.4005,-4.4005,-4.4005,-4.4005,-4.4005,-4.4005,-4.4005,-4.4005,-4.4005,-4.4005,-4.4005,-4.4005,-4.4005,-4.4005,-4.4005,-4.4005,-4.4005,-4.4005,-4.4005,-4.4005,-4.4005,-4.4005,-4.4005,-4.4005,-4.4005,-4.4005,-4.4005,-4.4005,-4.4005,-4.4005,-4.4005,-4.4005,-4.4005,-4.4005,-4.4005,-4.4005,-4.4005,-4.4005,-4.4005,-4.4005,-4.4005,-4.366,-4.3474,-4.3781,0.0,0.0,-4.2424,-4.1973,-4.1507,-4.114,-4.1093,-4.1087,-4.1087,-4.1087,-4.1087,-4.1087,-4.0959,-4.0912,-4.0912,-4.0912,-4.0912,-4.0912,-4.0912,-4.0912,-4.0912,-4.0912,-4.0871,-4.0823,-4.0823,-4.0901,-4.1076,-4.1818,-4.2227,-4.2443,-4.3164,-4.3512,-4.3453,-4.2911,-4.2679,-4.2617,-4.1932,-4.1687,-4.1687,-4.1621,-4.1588,-4.1588,-5.0898,-5.0898,-5.0898,-5.0898,-5.0898,-5.0898,-5.0898,-5.0898,-5.0898,-5.0898,-5.0898,-5.0898,-5.0898,-5.0909,-5.0766,-5.0438,-4.9938,-4.9351,-4.8713,-4.765,-4.6661,-4.5742,-4.5582,-4.5437,-4.5265,-4.5066,-4.48,-4.4465,-4.4318,-4.4166,-4.4005,-4.4005,-4.4005,-4.4005,-4.4005,-4.4005,-4.4005,-4.4005,-4.4005,-4.4005,-4.4005,-4.4005,-4.4005,-4.4005,-4.4005,-4.4005,-4.4005,-4.4005,-4.4005,-4.4005,-4.4005,-4.4005,-4.4005,-4.4005,-4.4005,-4.4005,-4.4005,-4.4005,-4.4005,-4.4005,-4.4005,-4.4005,-4.4005,-4.4005,-4.4005,-4.4005,-4.4005,-4.4005,-4.4005,-4.4005,-4.4005,-4.3876,-4.3728,-4.3612,0.0,-4.2904,-4.2716,-4.218,-4.1774,-4.1683,-4.1368,-4.1157,-4.1157,-4.1123,-4.1093,-4.1093,-4.0976,-4.0912,-4.0912,-4.0912,-4.0912,-4.0912,-4.0912,-4.0912,-4.0912,-4.0912,-4.0912,-4.0912,-4.0912,-4.1171,-4.1721,-4.2483,-4.3116,-4.3664,-4.4385,-4.468,-4.4652,-4.4412,-4.4328,-4.4271,-4.3647,-4.341,-4.329,-4.2506,-4.2206,-4.2142,-5.0898,-5.0898,-5.0898,-5.0898,-5.0898,-5.0898,-5.0898,-5.0898,-5.0898,-5.0898,-5.0898,-5.0898,-5.0898,-5.0898,-5.0898,-5.0898,-5.0395,-4.9977,-4.9726,-4.8063,-4.6687,-4.577,-4.5715,-4.5613,-4.5426,-4.5343,-4.512,-4.475,-4.4572,-4.436,-4.4166,-4.4097,-4.4036,-4.4005,-4.4005,-4.4005,-4.4005,-4.4005,-4.4005,-4.4005,-4.4005,-4.4005,-4.4005,-4.4005,-4.4005,-4.4005,-4.4005,-4.4005,-4.4005,-4.4005,-4.4005,-4.4005,-4.4005,-4.4005,-4.4005,-4.4005,-4.4005,-4.4005,-4.4005,-4.4005,-4.4005,-4.4005,-4.4005,-4.4005,-4.4005,-4.4005,-4.4005,-4.4005,-4.4005,-4.4005,-4.4005,-4.4005,-4.3908,-4.3627,-4.3525,-4.3334,-4.3014,-4.26,-4.2282,-4.2183,-4.1739,-4.1445,-4.1418,-4.1249,-4.1123,-4.1093,-4.0976,-4.0912,-4.0912,-4.0912,-4.0912,-4.0912,-4.0912,-4.0912,-4.0912,-4.0912,-4.0912,-4.0912,-4.0912,-4.1429,-4.2413,-4.2948,-4.3741,-4.4665,-4.5173,-4.5397,-4.5397,-4.5194,-4.5113,-4.5059,-4.4429,-4.4202,-4.4071,-4.3199,-4.288,-4.2787,-5.0898,-5.0898,-5.0898,-5.0898,-5.0898,-5.0898,-5.0898,-5.0898,-5.0898,-5.0898,-5.0898,-5.0898,-5.0898,-5.0898,-5.0898,-5.0898,-5.0898,-5.055,-4.9745,-4.8063,-4.6714,-4.5846,-4.575,-4.5708,-4.5708,-4.5435,-4.5304,-4.5304,-4.4842,-4.4559,-4.4506,-4.4292,-4.4135,-4.402,-4.402,-4.402,-4.3986,-4.3986,-4.4005,-4.4005,-4.4005,-4.4005,-4.4005,-4.4005,-4.4005,-4.4005,-4.4005,-4.4005,-4.4005,-4.4005,-4.4005,-4.4005,-4.4005,-4.4005,-4.4005,-4.4005,-4.4005,-4.4005,-4.4005,-4.4005,-4.4005,-4.4005,-4.4005,-4.4005,-4.4005,-4.4005,-4.4005,-4.4005,-4.4005,-4.4005,-4.4005,-4.4005,-4.4005,-4.4005,-4.4005,-4.386,-4.3457,-4.3282,-4.3051,-4.2659,-4.2244,-4.1969,-4.1903,-4.1485,-4.118,-4.1093,-4.0976,-4.0912,-4.0912,-4.0912,-4.0912,-4.0912,-4.0912,-4.0912,-4.0912,-4.0912,-4.0912,-4.0912,-4.0912,-4.1705,-4.3189,-4.3207,-4.4009,-4.5397,-4.5397,-4.5397,-4.5344,-4.4769,-4.4502,-4.4446,-4.3748,-4.3512,-4.3512,-4.3512,-4.3512,-4.3423,-5.0898,-5.0898,-5.0898,-5.0898,-5.0898,-5.0898,-5.0898,-5.0898,-5.0898,-5.0898,-5.0898,-5.0898,-5.0898,-5.0898,-5.0898,-5.0898,-5.0898,-5.055,-4.9745,-4.8643,-4.7618,-4.6752,-4.6107,-4.5771,-4.5771,-4.5696,-4.5552,-4.538,-4.5176,-4.4976,-4.4792,-4.4726,-4.4676,-4.4625,-4.4625,-4.4535,-4.436,-4.436,-4.4221,-4.4005,-4.4005,-4.4005,-4.4005,-4.4005,-4.4005,-4.4005,-4.4005,-4.4005,-4.4005,-4.4005,-4.4005,-4.4005,-4.4005,-4.4005,-4.4005,-4.4005,-4.4005,-4.4005,-4.4005,-4.4005,-4.4005,-4.4005,-4.4005,-4.4005,-4.4005,-4.4005,-4.4005,-4.4005,-4.4005,-4.4005,-4.4005,-4.4005,-4.4005,-4.4005,-4.4005,-4.3955,-4.3844,-4.3542,-4.33,-4.3195,-4.256,-4.2136,-4.2095,-4.1556,-4.1186,-4.118,-4.1012,-4.0912,-4.0912,-4.0912,-4.0912,-4.0912,-4.0912,-4.0912,-4.0912,-4.0912,-4.0912,-4.0912,-4.1429,-4.2206,-4.3224,-4.3741,-4.4475,-4.5397,-4.5397,-4.5397,-4.5397,-4.5194,-4.514,-4.5113,-4.4917,-4.4818,-4.4763,-4.4373,-4.4186,-4.41,-5.0898,-5.0898,-5.0898,-5.0898,-5.0898,-5.0898,-5.0898,-5.0898,-5.0898,-5.0898,-5.0898,-5.0898,-5.0898,-5.0898,-5.0898,-5.0898,-5.0898,-5.055,-4.9745,-4.9204,-4.8372,-4.7154,-4.66,-4.6155,-4.5807,-4.5805,-4.5727,-4.5558,-4.5435,-4.5275,-4.5095,-4.5028,-4.4954,-4.4901,-4.4901,-4.4804,-4.4663,-4.4663,-4.4519,-4.4322,-4.4322,-4.425,-4.4181,-4.4279,-4.4177,-4.4002,-4.4121,-4.4094,-4.4005,-4.4005,-4.4005,-4.4005,-4.4005,-4.4005,-4.4005,-4.4005,-4.4005,-4.4005,-4.4005,-4.4005,-4.4005,-4.4005,-4.4005,-4.4005,-4.4005,-4.4005,-4.4005,-4.4005,-4.4005,-4.4005,-4.4005,-4.4005,-4.4005,-4.4005,-4.4005,-4.4005,-4.4005,-4.3793,-4.3644,-4.3644,-4.3069,-4.2639,-4.26,-4.1909,-4.1373,-4.1094,-4.0965,-4.0912,-4.0912,-4.0959,-4.0959,-4.0912,-4.0959,-4.0959,-4.0912,-4.0912,-4.0912,-4.0912,-4.1654,-4.243,-4.3224,-4.3966,-4.4699,-4.5397,-4.5397,-4.5397,-4.5397,-4.5397,-4.5397,-4.5397,-4.5397,-4.5247,-4.5032,-4.4906,-4.4558,-4.4042,-5.0898,-5.0898,-5.0898,-5.0898,-5.0898,-5.0898,-5.0898,-5.0898,-5.0898,-5.0898,-5.0898,-5.0898,-5.0898,-5.0898,-5.0898,-5.0898,-5.0898,-5.0589,-4.9861,-4.9745,-4.8952,-4.7289,-4.7134,-4.6689,-4.5826,-4.5807,-4.5807,-4.5807,-4.5618,-4.5498,-4.5426,-4.5245,-4.5101,-4.499,-4.499,-4.4965,-4.4943,-4.4931,-4.4884,-4.48,-4.48,-4.465,-4.4452,-4.4701,-4.4498,-4.4091,-4.4346,-4.4246,-4.4033,-4.402,-4.4005,-4.4005,-4.4005,-4.4005,-4.4005,-4.4005,-4.4005,-4.4005,-4.4005,-4.4005,-4.4005,-4.4005,-4.4005,-4.4005,-4.4005,-4.4005,-4.4005,-4.4005,-4.4005,-4.4005,-4.4005,-4.4005,-4.4005,-4.4005,-4.4005,-4.4005,-4.4005,-4.4005,-4.4005,-4.4005,-4.3644,-4.3353,-4.323,-4.2424,-4.1644,-4.1035,-4.0942,-4.0918,-4.0918,-4.1029,-4.1053,-4.0918,-4.1047,-4.1047,-4.0935,-4.0963,-4.1015,-4.1015,-4.1757,-4.2534,-4.331,-4.4069,-4.4768,-4.5397,-4.5397,-4.5397,-4.5397,-4.5397,-4.5397,-4.5397,-4.5397,-4.5042,-4.4642,-4.514,-4.4597,-4.3571,-5.0898,-5.0898,-5.0898,-5.0898,-5.0898,-5.0898,-5.0898,-5.0898,-5.0898,-5.0898,-5.0898,-5.0898,-5.0898,-5.0898,-5.0898,-5.0898,-5.0898,-5.0821,-5.0647,-5.0055,-4.9223,-4.8159,-4.7463,-4.6689,-4.5826,-4.5807,-4.5807,-4.5807,-4.5752,-4.573,-4.5703,-4.5665,-4.5623,-4.5595,-4.5595,-4.5496,-4.5294,-4.5236,-4.508,-4.4861,-4.4812,-4.4763,-4.4714,-4.4776,-4.4726,-4.4624,-4.4688,-4.4533,-4.4275,-4.4079,-4.4005,-4.4005,-4.4005,-4.4005,-4.4005,-4.4005,-4.4005,-4.4005,-4.4005,-4.4005,-4.4005,-4.4005,-4.4005,-4.4005,-4.4005,-4.4005,-4.4005,-4.4005,-4.4005,-4.4005,-4.4005,-4.4005,-4.4005,-4.4005,-4.4005,-4.4005,-4.4005,-4.4005,-4.4005,-4.4005,-4.3644,-4.3388,-4.3353,-4.2523,-4.1885,-4.1705,-4.1328,-4.114,-4.114,-4.1163,-4.1163,-4.114,-4.1163,-4.1152,-4.1047,-4.1635,-4.1864,-4.1774,-4.2568,-4.3327,-4.4087,-4.4837,-4.5242,-4.5397,-4.5397,-4.5397,-4.5397,-4.5397,-4.5397,-4.5397,-4.5397,-4.5318,-4.5167,-4.4824,-4.453,-4.4128,-5.0898,-5.0898,-5.0898,-5.0898,-5.0898,-5.0898,-5.0898,-5.0898,-5.0898,-5.0898,-5.0898,-5.0898,-5.0898,-5.0898,-5.0898,-5.0898,-5.0898,-5.0898,-5.0898,-5.0511,-4.9707,-4.845,-4.7966,-4.7115,-4.5826,-4.5807,-4.5807,-4.5807,-4.5807,-4.5807,-4.5807,-4.5807,-4.5807,-4.5807,-4.5807,-4.5715,-4.5596,-4.5526,-4.5419,-4.5282,-4.5211,-4.5096,-4.5007,-4.5129,-4.503,-4.4812,-4.4931,-4.4739,-4.4388,-4.4236,-4.4124,-4.4005,-4.4005,-4.4005,-4.4005,-4.4005,-4.4005,-4.4005,-4.4005,-4.4005,-4.4005,-4.4005,-4.4005,-4.4005,-4.4005,-4.4005,-4.4005,-4.4005,-4.4005,-4.4005,-4.4005,-4.4005,-4.4005,-4.4005,-4.4005,-4.4005,-4.4005,-4.4005,-4.4005,-4.4005,-4.3809,-4.3594,-4.3335,-4.2867,-4.2483,-4.22,-4.1778,-4.1534,-4.1534,-4.1391,-4.1272,-4.1209,-4.1255,-4.1244,-4.1093,-4.1838,-4.232,-4.2585,-4.3362,-4.3931,-4.4328,-4.5079,-4.5397,-4.5397,-4.5397,-4.5397,-4.5397,-4.5397,-4.5397,-4.5397,-4.5397,-4.522,-4.4961,-4.4934,-4.4541,-4.3881,-5.0898,-5.0898,-5.0898,-5.0898,-5.0898,-5.0898,-5.0898,-5.0898,-5.0898,-5.0898,-5.0898,-5.0898,-5.0898,-5.0898,-5.0898,-5.0898,-5.0898,-5.084,-5.0705,-5.0685,-4.9939,-4.8256,-4.8179,-4.7424,-4.5826,-4.5807,-4.5807,-4.5807,-4.5807,-4.5807,-4.5807,-4.5807,-4.5807,-4.5807,-4.5807,-4.5805,-4.5795,-4.5731,-4.5719,-4.5717,-4.5637,-4.5475,-4.5312,-4.5522,-4.5332,-4.4973,-4.5191,-4.4954,-4.4533,-4.4479,-4.4275,-4.4064,-4.4064,-4.4033,-4.4005,-4.4005,-4.4005,-4.4005,-4.4005,-4.4005,-4.4005,-4.4005,-4.4005,-4.4005,-4.4005,-4.4005,-4.4005,-4.4005,-4.4005,-4.4005,-4.4005,-4.4005,-4.4005,-4.4005,-4.4005,-4.4005,-4.4005,-4.4005,-4.4005,-4.4005,-4.4005,-4.3825,-4.3369,-4.3282,-4.3069,-4.2678,-4.2221,-4.1945,-4.1945,-4.1613,-4.1386,-4.1277,-4.1363,-4.1405,-4.1307,-4.2053,-4.2743,-4.3396,-4.4138,-4.4501,-4.4518,-4.513,-4.5397,-4.5397,-4.5397,-4.5397,-4.5397,-4.5397,-4.5397,-4.5397,-4.5397,-4.5086,-4.4697,-4.5113,-4.4496,-4.3423,-5.0898,-5.0898,-5.0898,-5.0898,-5.0898,-5.0898,-5.0898,-5.0898,-5.0898,-5.0898,-5.0898,-5.0898,-5.0898,-5.0898,-5.0898,-5.0898,-5.0898,-5.0589,-4.9919,-4.9861,-4.9088,-4.7347,-4.727,-4.6806,-4.5826,-4.5807,-4.5807,-4.5807,-4.5807,-4.5807,-4.5807,-4.5807,-4.5807,-4.5807,-4.5807,-4.58,-4.5793,-4.5795,-4.5792,-4.5785,-4.5708,-4.5651,-4.564,-4.5665,-4.5614,-4.5495,-4.5522,-4.5352,-4.5063,-4.4825,-4.4559,-4.4346,-4.4346,-4.4196,-4.4005,-4.4005,-4.4005,-4.4005,-4.4005,-4.4005,-4.4005,-4.4005,-4.4005,-4.4005,-4.4005,-4.4005,-4.4005,-4.4005,-4.4005,-4.4005,-4.4005,-4.4005,-4.4005,-4.4005,-4.4005,-4.4005,-4.4005,-4.4005,-4.4005,-4.4005,-4.4005,-4.3955,-4.3908,-4.3575,-4.3335,-4.3283,-4.258,-4.2157,-4.2157,-4.1788,-4.156,-4.156,-4.156,-4.1763,-4.2212,-4.296,-4.3603,-4.4156,-4.4906,-4.5242,-4.5242,-4.5345,-4.5397,-4.5397,-4.5397,-4.5397,-4.5397,-4.5397,-4.5397,-4.5397,-4.5397,-4.5344,-4.522,-4.4797,-4.4157,-4.3482,-5.0898,-5.0898,-5.0898,-5.0898,-5.0898,-5.0898,-5.0898,-5.0898,-5.0898,-5.0898,-5.0898,-5.0898,-5.0898,-5.0898,-5.0898,-5.0898,-5.0492,-5.0074,-4.9726,-4.9243,-4.8411,-4.7154,-4.7096,-4.6689,-4.5826,-4.5807,-4.5807,-4.5807,-4.5807,-4.5807,-4.5807,-4.5807,-4.5807,-4.5807,-4.5807,-4.5807,-4.58,-4.5803,-4.5807,-4.5781,-4.5723,-4.5692,-4.5695,-4.5695,-4.5687,-4.5671,-4.5671,-4.5493,-4.5245,-4.5123,-4.4886,-4.4657,-4.4546,-4.443,-4.4312,-4.4162,-4.4119,-4.4104,-4.402,-4.4005,-4.4005,-4.4005,-4.4005,-4.4005,-4.4005,-4.4005,-4.4005,-4.4005,-4.4005,-4.4005,-4.4005,-4.4005,-4.4005,-4.4005,-4.4005,-4.4005,-4.4005,-4.4005,-4.4005,-4.4005,-4.4005,-4.4005,-4.4005,-4.3825,-4.3644,-4.3423,-4.2848,-4.244,-4.2198,-4.1831,-4.1604,-4.1604,-4.1604,-4.1883,-4.2509,-4.3236,-4.3882,-4.4413,-4.5148,-4.5476,-4.5397,-4.5397,-4.5397,-4.5397,-4.5397,-4.5397,-4.5397,-4.5397,-4.5397,-4.5397,-4.5397,-4.5397,-4.5371,-4.5113,-4.4597,-4.4071]},{"header":{"parameterUnit":"m.s-1","parameterCategory":1,"la1":30.6,"la2":28.766,"lo1":-90.7593,"lo2":-88.6598,"dy":0.0162,"dx":0.0183,"nx":116,"ny":114,"refTime":"2023-07-28T12:00:00:Z","depth":0,"parameterNumber":3,"parameterNumberName":"V-component_of_WINDS"},"data":[0.0,0.0,0.0,0.0,0.0,0.0,0.0,0.0,0.0,0.0,0.0,0.0,0.0,0.0,0.0,0.0,0.0,0.0,0.0,0.0,0.0,0.0,0.0,0.0,0.0,0.0,0.0,0.0,0.0,0.0,0.0,0.0,0.0,0.0,0.0,0.0,0.0,0.0,0.0,0.0,0.0,0.0,0.0,0.0,0.0,0.0,0.0,0.0,0.0,0.0,0.0,0.0,0.0,0.0,0.0,0.0,0.0,0.0,0.0,0.0,0.0,0.0,0.0,0.0,0.0,0.0,0.0,0.0,0.0,0.0,0.0,0.0,0.0,0.0,0.0,0.0,0.0,0.0,0.0,0.0,0.0,0.0,0.0,0.0,0.0,0.0,0.0,0.0,0.0,0.0,0.0,0.0,0.0,0.0,0.0,0.0,0.0,0.0,0.0,0.0,0.0,0.0,0.0,0.0,0.0,0.0,0.0,0.0,0.0,0.0,0.0,0.0,0.0,0.0,0.0,0.0,0.0,0.0,0.0,0.0,0.0,0.0,0.0,0.0,0.0,0.0,0.0,0.0,0.0,0.0,0.0,0.0,0.0,0.0,0.0,0.0,0.0,0.0,0.0,0.0,0.0,0.0,0.0,0.0,0.0,0.0,0.0,0.0,0.0,0.0,0.0,0.0,0.0,0.0,0.0,0.0,0.0,0.0,0.0,0.0,0.0,0.0,0.0,0.0,0.0,0.0,0.0,0.0,0.0,0.0,0.0,0.0,0.0,0.0,0.0,0.0,0.0,0.0,0.0,0.0,0.0,0.0,0.0,0.0,0.0,0.0,0.0,0.0,0.0,0.0,0.0,0.0,0.0,0.0,0.0,0.0,0.0,0.0,0.0,0.0,0.0,0.0,0.0,0.0,0.0,0.0,0.0,0.0,0.0,0.0,0.0,0.0,0.0,0.0,0.0,0.0,0.0,0.0,0.0,0.0,0.0,0.0,0.0,0.0,0.0,0.0,0.0,0.0,0.0,0.0,0.0,0.0,0.0,0.0,0.0,0.0,0.0,0.0,0.0,0.0,0.0,0.0,0.0,0.0,0.0,0.0,0.0,0.0,0.0,0.0,0.0,0.0,0.0,0.0,0.0,0.0,0.0,0.0,0.0,0.0,0.0,0.0,0.0,0.0,0.0,0.0,0.0,0.0,0.0,0.0,0.0,0.0,0.0,0.0,0.0,0.0,0.0,0.0,0.0,0.0,0.0,0.0,0.0,0.0,0.0,0.0,0.0,0.0,0.0,0.0,0.0,0.0,0.0,0.0,0.0,0.0,0.0,0.0,0.0,0.0,0.0,0.0,0.0,0.0,0.0,0.0,0.0,0.0,0.0,0.0,0.0,0.0,0.0,0.0,0.0,0.0,0.0,0.0,0.0,0.0,0.0,0.0,0.0,0.0,0.0,0.0,0.0,0.0,0.0,0.0,0.0,0.0,0.0,0.0,0.0,0.0,0.0,0.0,0.0,0.0,0.0,0.0,0.0,0.0,0.0,0.0,0.0,0.0,0.0,0.0,0.0,0.0,0.0,0.0,0.0,0.0,0.0,0.0,0.0,0.0,0.0,0.0,0.0,0.0,0.0,0.0,0.0,0.0,0.0,0.0,0.0,0.0,0.0,0.0,0.0,0.0,0.0,0.0,0.0,0.0,0.0,0.0,0.0,0.0,0.0,0.0,0.0,0.0,0.0,0.0,0.0,0.0,0.0,0.0,0.0,0.0,0.0,0.0,0.0,0.0,0.0,0.0,0.0,0.0,0.0,0.0,0.0,0.0,0.0,0.0,0.0,0.0,0.0,0.0,0.0,0.0,0.0,0.0,0.0,0.0,0.0,0.0,0.0,0.0,0.0,0.0,0.0,0.0,0.0,0.0,0.0,0.0,0.0,0.0,0.0,0.0,0.0,0.0,0.0,0.0,0.0,0.0,0.0,0.0,0.0,0.0,0.0,0.0,0.0,0.0,0.0,0.0,0.0,0.0,0.0,0.0,0.0,0.0,0.0,0.0,0.0,0.0,0.0,0.0,0.0,0.0,0.0,0.0,0.0,0.0,0.0,0.0,0.0,0.0,0.0,0.0,0.0,0.0,0.0,0.0,0.0,0.0,0.0,0.0,0.0,0.0,0.0,0.0,0.0,0.0,0.0,0.0,0.0,0.0,0.0,0.0,0.0,0.0,0.0,0.0,0.0,0.0,0.0,0.0,0.0,0.0,0.0,0.0,0.0,0.0,0.0,0.0,0.0,0.0,0.0,0.0,0.0,0.0,0.0,0.0,0.0,0.0,0.0,0.0,0.0,0.0,0.0,0.0,0.0,0.0,0.0,0.0,0.0,0.0,0.0,0.0,0.0,0.0,0.0,0.0,0.0,0.0,0.0,0.0,0.0,0.0,0.0,0.0,0.0,0.0,0.0,0.0,0.0,0.0,0.0,0.0,0.0,0.0,0.0,0.0,0.0,0.0,0.0,0.0,0.0,0.0,0.0,0.0,0.0,0.0,0.0,0.0,0.0,0.0,0.0,0.0,0.0,0.0,0.0,0.0,0.0,0.0,0.0,0.0,0.0,0.0,0.0,0.0,0.0,0.0,0.0,0.0,0.0,0.0,0.0,0.0,0.0,0.0,0.0,0.0,0.0,0.0,0.0,0.0,0.0,0.0,0.0,0.0,0.0,0.0,0.0,0.0,0.0,0.0,0.0,0.0,0.0,0.0,0.0,0.0,0.0,0.0,0.0,0.0,0.0,0.0,0.0,0.0,0.0,0.0,0.0,0.0,0.0,0.0,0.0,0.0,0.0,0.0,0.0,0.0,0.0,0.0,0.0,0.0,0.0,0.0,0.0,0.0,0.0,0.0,0.0,0.0,0.0,0.0,0.0,0.0,0.0,0.0,0.0,0.0,0.0,0.0,0.0,0.0,0.0,0.0,0.0,0.0,0.0,0.0,0.0,0.0,0.0,0.0,0.0,0.0,0.0,0.0,0.0,0.0,0.0,0.0,0.0,0.0,0.0,0.0,0.0,0.0,0.0,0.0,0.0,0.0,0.0,0.0,0.0,0.0,0.0,0.0,0.0,0.0,0.0,0.0,0.0,0.0,0.0,0.0,0.0,0.0,0.0,0.0,0.0,0.0,0.0,0.0,0.0,0.0,0.0,0.0,0.0,0.0,0.0,0.0,0.0,0.0,0.0,0.0,0.0,0.0,0.0,0.0,0.0,0.0,0.0,0.0,0.0,0.0,0.0,0.0,0.0,0.0,0.0,0.0,0.0,0.0,0.0,0.0,0.0,0.0,0.0,0.0,0.0,0.0,0.0,0.0,0.0,0.0,0.0,0.0,0.0,0.0,0.0,0.0,0.0,0.0,0.0,0.0,0.0,0.0,0.0,0.0,0.0,0.0,0.0,0.0,0.0,0.0,0.0,0.0,0.0,0.0,0.0,0.0,0.0,0.0,0.0,0.0,0.0,0.0,0.0,0.0,0.0,0.0,0.0,0.0,0.0,0.0,0.0,0.0,0.0,0.0,0.0,0.0,0.0,0.0,0.0,0.0,0.0,0.0,0.0,0.0,0.0,0.0,0.0,0.0,0.0,0.0,0.0,0.0,0.0,0.0,0.0,0.0,0.0,0.0,0.0,0.0,0.0,0.0,0.0,0.0,0.0,0.0,0.0,0.0,0.0,0.0,0.0,0.0,0.0,0.0,0.0,0.0,0.0,0.0,0.0,0.0,0.0,0.0,0.0,0.0,0.0,0.0,0.0,0.0,0.0,0.0,0.0,0.0,0.0,0.0,0.0,0.0,0.0,0.0,0.0,0.0,0.0,0.0,0.0,0.0,0.0,0.0,0.0,0.0,0.0,0.0,0.0,0.0,0.0,0.0,0.0,0.0,0.0,0.0,0.0,0.0,0.0,0.0,0.0,0.0,0.0,0.0,0.0,0.0,0.0,0.0,0.0,0.0,0.0,0.0,0.0,0.0,0.0,0.0,0.0,0.0,0.0,0.0,0.0,0.0,0.0,0.0,0.0,0.0,0.0,0.0,0.0,0.0,0.0,0.0,0.0,0.0,0.0,0.0,0.0,0.0,0.0,0.0,0.0,0.0,0.0,0.0,0.0,0.0,0.0,0.0,0.0,0.0,0.0,0.0,0.0,0.0,0.0,0.0,0.0,0.0,0.0,0.0,0.0,0.0,0.0,0.0,0.0,0.0,0.0,0.0,0.0,0.0,0.0,0.0,0.0,0.0,0.0,0.0,0.0,0.0,0.0,0.0,0.0,0.0,0.0,0.0,0.0,0.0,0.0,0.0,0.0,0.0,0.0,0.0,0.0,0.0,0.0,0.0,0.0,0.0,0.0,0.0,0.0,0.0,0.0,0.0,0.0,0.0,0.0,0.0,0.0,0.0,0.0,0.0,0.0,0.0,0.0,0.0,0.0,0.0,0.0,0.0,0.0,0.0,0.0,0.0,0.0,0.0,0.0,0.0,0.0,0.0,0.0,0.0,0.0,0.0,0.0,0.0,0.0,0.0,0.0,0.0,0.0,0.0,0.0,0.0,0.0,0.0,0.0,0.0,0.0,0.0,0.0,0.0,0.0,0.0,0.0,0.0,0.0,0.0,0.0,0.0,0.0,0.0,0.0,0.0,0.0,0.0,0.0,0.0,0.0,0.0,0.0,0.0,0.0,0.0,0.0,0.0,0.0,0.0,0.0,0.0,0.0,0.0,0.0,0.0,0.0,0.0,0.0,0.0,0.0,0.0,0.0,0.0,0.0,0.0,0.0,0.0,0.0,0.0,0.0,0.0,0.0,0.0,0.0,0.0,0.0,0.0,0.0,0.0,0.0,0.0,0.0,0.0,0.0,0.0,0.0,0.0,0.0,0.0,0.0,0.0,0.0,0.0,0.0,0.0,0.0,0.0,0.0,0.0,0.0,0.0,0.0,0.0,0.0,0.0,0.0,0.0,0.0,0.0,0.0,0.0,0.0,0.0,0.0,0.0,0.0,0.0,0.0,0.0,0.0,0.0,0.0,0.0,0.0,0.0,0.0,0.0,0.0,0.0,0.0,0.0,0.0,0.0,0.0,0.0,0.0,0.0,0.0,0.0,0.0,0.0,0.0,0.0,0.0,0.0,0.0,0.0,0.0,0.0,0.0,0.0,0.0,0.0,0.0,0.0,0.0,0.0,0.0,0.0,0.0,0.0,0.0,0.0,0.0,0.0,0.0,0.0,0.0,0.0,0.0,0.0,0.0,0.0,0.0,0.0,0.0,0.0,0.0,0.0,0.0,0.0,0.0,0.0,0.0,0.0,0.0,0.0,0.0,0.0,0.0,0.0,0.0,0.0,0.0,0.0,0.0,0.0,0.0,0.0,0.0,0.0,0.0,0.0,0.0,0.0,0.0,0.0,0.0,0.0,0.0,0.0,0.0,0.0,0.0,0.0,0.0,0.0,0.0,0.0,0.0,0.0,0.0,0.0,0.0,0.0,0.0,0.0,0.0,0.0,0.0,0.0,0.0,0.0,0.0,0.0,0.0,0.0,0.0,0.0,0.0,0.0,0.0,0.0,0.0,0.0,0.0,0.0,0.0,0.0,0.0,0.0,0.0,0.0,0.0,0.0,0.0,0.0,0.0,0.0,0.0,0.0,0.0,0.0,0.0,0.0,0.0,0.0,0.0,0.0,0.0,0.0,0.0,0.0,0.0,0.0,0.0,0.0,0.0,0.0,0.0,0.0,0.0,0.0,0.0,0.0,0.0,0.0,0.0,0.0,0.0,0.0,0.0,0.0,0.0,0.0,0.0,0.0,0.0,0.0,0.0,0.0,0.0,0.0,0.0,0.0,0.0,0.0,0.0,0.0,0.0,0.0,0.0,0.0,0.0,0.0,0.0,0.0,0.0,0.0,0.0,0.0,0.0,0.0,0.0,0.0,0.0,0.0,0.0,0.0,0.0,0.0,0.0,0.0,0.0,0.0,0.0,0.0,0.0,0.0,0.0,0.0,0.0,0.0,0.0,0.0,0.0,0.0,0.0,0.0,0.0,0.0,0.0,0.0,0.0,0.0,0.0,0.0,0.0,0.0,0.0,0.0,0.0,0.0,-2.0758,0.0,0.0,0.0,0.0,0.0,0.0,0.0,0.0,0.0,0.0,0.0,0.0,0.0,0.0,0.0,0.0,0.0,0.0,0.0,0.0,0.0,0.0,0.0,0.0,0.0,0.0,0.0,0.0,0.0,0.0,0.0,0.0,0.0,0.0,0.0,0.0,0.0,0.0,0.0,0.0,0.0,0.0,0.0,0.0,0.0,0.0,0.0,0.0,0.0,0.0,0.0,0.0,0.0,0.0,0.0,0.0,0.0,0.0,0.0,0.0,0.0,0.0,0.0,0.0,0.0,0.0,0.0,0.0,0.0,0.0,0.0,0.0,0.0,0.0,0.0,0.0,0.0,0.0,0.0,0.0,0.0,0.0,0.0,0.0,0.0,0.0,0.0,0.0,0.0,0.0,0.0,0.0,0.0,0.0,0.0,0.0,0.0,0.0,0.0,0.0,0.0,0.0,0.0,0.0,0.0,0.0,0.0,0.0,0.0,0.0,0.0,0.0,0.0,0.0,0.0,0.0,-2.1842,0.0,0.0,0.0,0.0,0.0,0.0,0.0,0.0,0.0,0.0,0.0,0.0,0.0,0.0,0.0,0.0,0.0,0.0,0.0,0.0,0.0,0.0,0.0,0.0,0.0,0.0,0.0,0.0,0.0,0.0,0.0,0.0,0.0,0.0,0.0,0.0,0.0,0.0,0.0,0.0,0.0,0.0,0.0,0.0,0.0,0.0,0.0,0.0,0.0,0.0,0.0,0.0,0.0,0.0,0.0,0.0,0.0,0.0,0.0,0.0,0.0,0.0,0.0,0.0,0.0,0.0,0.0,0.0,0.0,0.0,0.0,0.0,0.0,0.0,0.0,0.0,0.0,0.0,0.0,0.0,0.0,0.0,0.0,0.0,0.0,0.0,0.0,0.0,0.0,0.0,0.0,0.0,0.0,0.0,0.0,0.0,0.0,0.0,0.0,0.0,0.0,0.0,0.0,0.0,0.0,0.0,0.0,0.0,-2.4709,-2.5295,-2.6341,-2.6998,-2.7511,-2.7724,-2.5169,-2.4241,-2.4411,0.0,0.0,0.0,0.0,0.0,0.0,0.0,0.0,0.0,0.0,0.0,0.0,0.0,0.0,0.0,0.0,0.0,0.0,0.0,0.0,0.0,0.0,0.0,0.0,0.0,0.0,0.0,0.0,0.0,0.0,0.0,0.0,0.0,0.0,0.0,0.0,0.0,0.0,0.0,-2.36,-2.36,-2.3431,-2.2995,0.0,0.0,0.0,0.0,0.0,0.0,0.0,0.0,0.0,0.0,0.0,0.0,0.0,0.0,0.0,0.0,0.0,0.0,0.0,0.0,0.0,0.0,0.0,0.0,0.0,0.0,0.0,0.0,0.0,0.0,0.0,0.0,0.0,0.0,0.0,0.0,0.0,0.0,0.0,0.0,0.0,0.0,0.0,0.0,-2.1069,-2.137,0.0,0.0,0.0,0.0,0.0,0.0,0.0,0.0,0.0,0.0,0.0,0.0,0.0,-2.4741,-2.5501,-2.5955,-2.6544,-2.7229,-2.7781,-2.8171,-2.8331,-2.8418,-2.8505,-2.8564,-2.8128,0.0,-2.6499,-2.6301,0.0,0.0,0.0,0.0,0.0,0.0,0.0,0.0,0.0,0.0,0.0,0.0,0.0,0.0,0.0,0.0,0.0,0.0,0.0,0.0,0.0,0.0,0.0,0.0,0.0,0.0,0.0,0.0,0.0,0.0,0.0,0.0,0.0,0.0,0.0,0.0,-2.2559,-2.4163,-2.5119,-2.5119,-2.5119,-2.5063,-2.3674,-2.21,-2.0414,-1.962,0.0,0.0,0.0,0.0,0.0,0.0,0.0,0.0,0.0,0.0,0.0,0.0,0.0,0.0,0.0,0.0,0.0,0.0,0.0,0.0,0.0,0.0,0.0,0.0,0.0,0.0,0.0,0.0,0.0,0.0,0.0,0.0,0.0,0.0,0.0,0.0,0.0,0.0,0.0,-2.1119,-2.2585,-2.3435,-2.2989,-2.2418,0.0,0.0,0.0,0.0,0.0,0.0,0.0,0.0,0.0,-2.5829,-2.6648,-2.7382,-2.8024,-2.8622,-2.9232,-2.9827,-3.0147,-3.0466,-3.0843,-3.0843,-3.0843,-3.0843,-3.0843,-3.0539,-2.99,-2.8194,-2.6992,-2.6253,0.0,0.0,0.0,0.0,-2.5648,-2.5968,0.0,0.0,0.0,0.0,0.0,0.0,0.0,0.0,0.0,0.0,0.0,0.0,0.0,0.0,0.0,-1.7086,0.0,0.0,0.0,0.0,0.0,0.0,0.0,0.0,0.0,0.0,0.0,0.0,-2.4163,-2.5021,-2.5893,-2.6062,-2.6132,-2.6132,-2.6301,-2.4936,-2.2461,-2.2161,-2.0843,0.0,0.0,0.0,0.0,0.0,0.0,0.0,0.0,0.0,0.0,0.0,0.0,0.0,0.0,0.0,0.0,0.0,0.0,0.0,0.0,0.0,0.0,0.0,0.0,0.0,0.0,0.0,0.0,0.0,0.0,0.0,0.0,0.0,0.0,0.0,0.0,0.0,0.0,-2.2973,-2.4023,-2.5241,-2.496,-2.4505,0.0,0.0,0.0,0.0,0.0,0.0,-2.6788,-2.7211,-2.7873,-2.8793,-2.9377,-2.9885,-3.0335,-3.0829,-3.1308,-3.1741,-3.1741,-3.2002,-3.2481,-3.2481,-3.2481,-3.2481,-3.2481,-3.2481,-3.2338,-3.0032,-2.8983,-2.8779,-2.8378,-2.8113,-2.8008,-2.8008,-2.8008,-2.804,0.0,0.0,0.0,0.0,0.0,0.0,0.0,0.0,0.0,0.0,0.0,0.0,0.0,0.0,-1.7872,-1.9491,-2.0154,-2.0228,0.0,0.0,0.0,0.0,0.0,0.0,0.0,0.0,0.0,-2.4036,-2.5246,-2.5837,-2.5907,-2.6497,-2.6764,-2.6793,-2.744,-2.6961,-2.5584,-2.4444,-2.353,-2.2564,0.0,0.0,0.0,0.0,0.0,0.0,0.0,0.0,0.0,0.0,0.0,0.0,0.0,0.0,0.0,0.0,0.0,0.0,0.0,0.0,0.0,0.0,0.0,0.0,0.0,0.0,0.0,0.0,0.0,0.0,0.0,0.0,0.0,0.0,0.0,0.0,0.0,0.0,0.0,-2.6631,-2.6663,0.0,0.0,0.0,0.0,-2.6761,-2.7942,-2.87,-2.8773,-3.044,-3.1387,-3.1322,-3.1944,-3.2307,-3.2336,-3.2379,-3.244,-3.2469,-3.2469,-3.2452,-3.2481,-3.2481,-3.2481,-3.2481,-3.2481,-3.2481,-3.2481,-3.2338,-3.1903,-3.1322,-3.1293,-3.0946,-3.0409,-3.0409,-3.0409,-3.0409,0.0,0.0,0.0,0.0,0.0,0.0,0.0,0.0,0.0,0.0,0.0,0.0,0.0,-1.7932,-1.9423,-2.0364,-2.1516,-2.1926,-2.1236,0.0,0.0,0.0,0.0,0.0,0.0,0.0,-2.4219,-2.5837,-2.6273,-2.6694,-2.7144,-2.7326,-2.7425,-2.7439,-2.7693,-2.7552,-2.7102,-2.6666,-2.5653,-2.4205,-2.2714,-2.0625,0.0,0.0,0.0,0.0,0.0,0.0,0.0,0.0,0.0,0.0,0.0,0.0,0.0,0.0,0.0,0.0,0.0,0.0,0.0,0.0,0.0,0.0,0.0,0.0,0.0,0.0,0.0,0.0,0.0,0.0,0.0,0.0,0.0,0.0,0.0,0.0,0.0,-2.7289,-2.7752,0.0,0.0,-2.8608,-2.8942,-2.9813,-3.0308,-3.0758,-3.1195,-3.1864,-3.2196,-3.2133,-3.2788,-3.3122,-3.3122,-3.3529,-3.3732,-3.3732,-3.3732,-3.3732,-3.3732,-3.3732,-3.3732,-3.3732,-3.3732,-3.3732,-3.3732,-3.3732,-3.309,-3.2133,-3.2133,-3.2019,-3.183,-3.183,-3.183,-3.183,0.0,0.0,0.0,0.0,0.0,0.0,0.0,0.0,0.0,0.0,0.0,-1.5522,-1.7518,-1.921,-2.0657,-2.1786,-2.2614,-2.2945,-2.2522,0.0,0.0,0.0,0.0,0.0,0.0,-2.4064,-2.54,-2.6807,-2.7031,-2.7355,-2.7805,-2.8016,-2.8115,-2.8129,-2.831,-2.8394,-2.8394,-2.8394,-2.7439,-2.5878,-2.5035,-2.3322,-2.1094,0.0,0.0,0.0,0.0,0.0,0.0,0.0,0.0,0.0,0.0,0.0,0.0,0.0,0.0,0.0,0.0,0.0,0.0,0.0,0.0,0.0,0.0,0.0,0.0,0.0,0.0,0.0,0.0,0.0,0.0,0.0,0.0,0.0,0.0,0.0,-2.7505,-2.8565,-2.9058,-2.9653,-3.0494,-3.0567,-3.0915,-3.1756,-3.2063,-3.2367,-3.2817,-3.3035,-3.3151,-3.3151,-3.3572,-3.3823,-3.3823,-3.4196,-3.4414,-3.4414,-3.4414,-3.4414,-3.4414,-3.4414,-3.4414,-3.4414,-3.4414,-3.4414,-3.4414,-3.4414,-3.3906,-3.3137,-3.2919,-3.2701,-3.2481,-3.2481,-3.2481,-3.2481,0.0,0.0,0.0,0.0,0.0,0.0,0.0,0.0,0.0,0.0,-1.3807,-1.6134,-1.8722,-1.9989,-2.1519,-2.3755,-2.3433,-2.3206,-2.3454,-2.2658,0.0,0.0,0.0,0.0,-2.4106,-2.533,-2.6231,-2.6877,-2.7495,-2.7847,-2.7876,-2.8436,-2.8717,-2.8745,-2.935,-2.9602,-2.9602,-2.9602,-2.8928,-2.7749,-2.6483,-2.5598,-2.4795,0.0,0.0,0.0,0.0,0.0,0.0,0.0,0.0,0.0,0.0,0.0,0.0,0.0,0.0,0.0,0.0,0.0,0.0,0.0,0.0,0.0,0.0,0.0,0.0,0.0,0.0,0.0,0.0,0.0,0.0,0.0,0.0,0.0,-2.6852,-2.7403,-2.8493,-3.0409,-3.0656,-3.1134,-3.2425,-3.2542,-3.2556,-3.2539,-3.3151,-3.3532,-3.3532,-3.4095,-3.4443,-3.4443,-3.4457,-3.4472,-3.4472,-3.4472,-3.4472,-3.4472,-3.4472,-3.4472,-3.4472,-3.4472,-3.4472,-3.4472,-3.4443,-3.4443,-3.4443,-3.4428,-3.4414,-3.4356,-3.3779,-3.3122,-3.2539,-3.2539,-3.2539,-3.2539,0.0,0.0,0.0,0.0,0.0,0.0,0.0,0.0,0.0,0.0,-1.4581,-1.7051,-1.9338,-2.0526,-2.1589,-2.2622,-2.295,-2.3052,-2.2931,0.0,0.0,0.0,0.0,0.0,-2.5359,-2.616,-2.7088,-2.8183,-2.8352,-2.8675,-2.9111,-2.9265,-2.935,-2.9364,-2.9532,-2.9602,-2.9602,-2.9602,-2.942,-2.904,-2.824,-2.727,-2.6174,0.0,0.0,0.0,0.0,0.0,0.0,0.0,0.0,0.0,0.0,0.0,0.0,0.0,0.0,0.0,0.0,0.0,0.0,0.0,0.0,0.0,0.0,0.0,0.0,0.0,0.0,0.0,0.0,0.0,0.0,0.0,0.0,-2.8681,-2.8244,-2.913,-3.0161,-3.1148,-3.1685,-3.2309,-3.3122,-3.3242,-3.3398,-3.3848,-3.4051,-3.4153,-3.4153,-3.4762,-3.5145,-3.5145,-3.5546,-3.5793,-3.5793,-3.5793,-3.5793,-3.5793,-3.5793,-3.5793,-3.5793,-3.5793,-3.5793,-3.5764,-3.5299,-3.5145,-3.5101,-3.4603,-3.4414,-3.4385,-3.4225,-3.4051,-3.3891,-3.3891,-3.3891,-3.3891,0.0,0.0,0.0,0.0,0.0,0.0,0.0,0.0,0.0,0.0,-1.5183,-1.7495,-1.988,-2.0887,-2.1729,-2.2512,-2.2671,-2.2767,-2.2824,0.0,0.0,0.0,0.0,-2.5049,-2.6245,-2.6891,-2.7706,-2.8689,-2.8942,-2.9265,-2.9602,-2.9602,-2.9743,-2.9996,-2.9996,-2.9996,-2.9996,-2.9996,-2.9841,-2.9574,-2.9223,-2.8633,-2.7888,-2.7017,-2.6036,-2.4929,-2.3622,-2.2631,-2.1849,-2.1028,0.0,0.0,0.0,0.0,0.0,0.0,0.0,0.0,0.0,0.0,0.0,0.0,0.0,0.0,0.0,0.0,0.0,0.0,0.0,0.0,0.0,0.0,0.0,0.0,-2.9972,-3.08,-3.0728,-3.1121,-3.1627,-3.2251,-3.2672,-3.3166,-3.3804,-3.3862,-3.4124,-3.4762,-3.482,-3.4936,-3.5198,-3.5561,-3.5799,-3.5799,-3.6112,-3.6301,-3.6301,-3.6301,-3.6301,-3.6301,-3.6301,-3.6301,-3.6301,-3.6301,-3.6301,0.0,-3.5923,-3.5799,-3.577,-3.5357,-3.5053,0.0,0.0,0.0,0.0,0.0,-3.4414,-3.4414,0.0,0.0,0.0,0.0,0.0,0.0,0.0,0.0,0.0,0.0,0.0,-1.7676,-2.0314,-2.1127,-2.191,-2.2912,-2.2439,-2.2316,0.0,0.0,0.0,-2.482,-2.5024,-2.5655,-2.6891,-2.7481,-2.8143,-2.8788,-2.935,-2.9602,-2.9602,-2.9673,-3.001,-3.0498,-3.0568,-3.0554,-3.0498,-3.0498,-3.0133,-2.9602,-2.9602,-2.9602,-2.949,-2.8394,-2.7483,-2.6562,-2.537,-2.435,-2.3475,-2.2951,0.0,0.0,0.0,0.0,0.0,0.0,0.0,0.0,0.0,0.0,0.0,0.0,0.0,0.0,0.0,0.0,0.0,0.0,0.0,0.0,0.0,0.0,0.0,0.0,-3.183,-3.2846,-3.3518,-3.3093,-3.2933,-3.3532,-3.3605,-3.3819,-3.4457,-3.4516,-3.4791,-3.545,-3.5508,-3.5755,-3.6272,0.0,0.0,0.0,0.0,-3.6519,-3.6519,-3.6519,-3.6519,-3.6519,-3.6519,-3.6519,-3.6519,-3.6519,-3.6519,-3.6519,-3.6446,-3.6417,-3.6417,-3.6344,-3.5967,-3.5436,-3.469,-3.4414,-3.4414,-3.4414,-3.4414,-3.4414,0.0,0.0,0.0,0.0,0.0,0.0,0.0,0.0,0.0,-1.3603,-1.5848,-1.8045,-2.0358,-2.1464,-2.2139,-2.2347,-2.1861,-2.1545,0.0,0.0,-2.3729,-2.4096,-2.5147,-2.6301,-2.7594,-2.7735,-2.831,-2.9434,-2.9546,-2.9602,-2.9617,-3.0091,-3.0385,-3.0512,-3.1078,-3.1021,-3.0498,-3.0498,-3.0133,-2.9602,-2.9602,-2.9602,-2.9574,-2.935,-2.8775,-2.8012,-2.7207,-2.6425,-2.5632,-2.4698,-2.41,-2.3742,-2.3207,0.0,0.0,0.0,0.0,0.0,0.0,0.0,0.0,0.0,0.0,0.0,0.0,0.0,0.0,0.0,0.0,0.0,0.0,0.0,0.0,-3.1932,-3.2788,-3.3499,-3.4138,-3.4124,-3.4095,-3.4211,-3.424,-3.4472,-3.5145,-3.5218,-3.5479,-3.6083,-3.6127,-3.6185,-3.6301,-3.6823,0.0,-3.7114,-3.7593,-3.7839,-3.7839,-3.7839,-3.7839,-3.7839,0.0,0.0,-3.7839,-3.7839,-3.7839,-3.781,-3.7317,-3.7114,-3.707,-3.6533,-3.6228,-3.6011,-3.4864,-3.4414,-3.4414,-3.4414,-3.4414,-3.4414,0.0,0.0,0.0,0.0,0.0,0.0,0.0,0.0,0.0,0.0,-1.505,-1.724,-1.9494,-2.02,-2.0727,-2.1356,-2.1139,0.0,0.0,-2.3062,-2.4027,-2.4418,-2.537,-2.6511,-2.7777,-2.7805,-2.838,-2.9602,-2.9602,-2.9602,-2.9617,-2.9926,-3.0203,-3.0498,-3.0867,-3.0825,-3.0498,-3.0498,-3.0133,-2.9602,-2.9602,-2.9602,-2.9602,-2.9602,-2.9153,-2.8395,-2.7736,-2.7015,-2.6274,-2.5359,-2.4931,-2.4733,-2.4509,-2.381,-2.301,0.0,0.0,0.0,0.0,0.0,0.0,0.0,0.0,0.0,0.0,0.0,0.0,0.0,0.0,-2.8861,0.0,0.0,-3.2101,-3.3132,-3.3665,-3.4051,-3.437,-3.469,-3.4893,-3.4893,-3.4893,-3.514,-3.5778,-3.5836,-3.6098,-3.6765,-3.6809,-3.6939,-3.7244,-3.7897,-3.826,-3.826,-3.8841,-3.9146,-3.9146,-3.9146,-3.9,-3.8696,-3.8696,-3.8522,-3.8202,-3.8202,-3.8202,-3.8188,-3.7883,-3.7752,-3.7709,-3.707,-3.6809,-3.6707,-3.5735,-3.5357,-3.5357,-3.5357,-3.5357,-3.5357,0.0,0.0,0.0,0.0,0.0,0.0,0.0,0.0,0.0,0.0,-1.3862,-1.5972,-1.8029,-1.8396,-1.886,0.0,0.0,0.0,0.0,-2.3041,-2.4063,-2.4565,-2.5328,-2.626,-2.7406,-2.7516,-2.819,-2.9434,-2.9407,-2.9463,-2.9602,-2.9729,-3.0052,-3.0498,-3.0656,-3.061,-3.0498,-3.0498,-3.0133,-2.9602,-2.9602,-2.9509,-2.9401,-2.9401,-2.9012,-2.8395,-2.7736,-2.7116,-2.6517,-2.5756,-2.5523,-2.5488,-2.5347,-2.4838,-2.422,-2.4105,-2.3393,0.0,0.0,0.0,0.0,0.0,0.0,0.0,0.0,0.0,-2.9125,-2.9364,-3.0224,-3.1143,-3.1929,-3.262,-3.3302,-3.3953,-3.4311,-3.45,-3.452,-3.5105,-3.559,-3.5755,-3.5654,-3.5828,-3.6446,-3.6504,-3.678,-3.7433,-3.7607,-3.7883,-3.8376,-3.9015,-3.9378,-3.9378,-3.9842,-4.0104,-4.0104,-4.0104,-3.9857,-3.9363,-3.9262,-3.8928,-3.8391,-3.826,-3.8202,-3.8202,-3.8202,-3.8202,-3.8159,-3.768,-3.7476,-3.7433,-3.6881,-3.6678,-3.6649,-3.6402,-3.6301,-3.6301,0.0,0.0,0.0,0.0,0.0,0.0,0.0,0.0,0.0,0.0,0.0,0.0,0.0,0.0,0.0,0.0,0.0,0.0,-1.9733,-2.191,-2.3177,-2.313,-2.4408,-2.5418,-2.6116,-2.6587,-2.7473,-2.8788,-2.8687,-2.8949,-2.9617,-3.0133,-3.0427,-3.0512,-3.112,-3.1064,-3.0498,-3.0498,-3.0133,-2.9602,-2.9602,-2.923,-2.8634,-2.8634,-2.8556,-2.8395,-2.7736,-2.7451,-2.7271,-2.6517,-2.6277,-2.6173,-2.5523,-2.5228,-2.514,-2.4995,0.0,-2.4822,-2.4623,-2.5273,-2.6226,-2.7255,-2.796,-2.8689,0.0,0.0,-3.0642,-3.1766,-3.2238,-3.267,-3.3279,-3.3602,-3.3811,-3.3917,-3.4388,-3.4816,-3.4998,-3.5546,-3.6238,-3.699,-3.6562,-3.646,-3.7128,-3.7201,-3.7447,-3.8057,-3.8652,-3.903,-3.9088,-3.9668,-4.0002,-4.0002,-4.006,-4.0104,-4.0104,-4.0104,-4.006,-3.9987,-3.9465,-3.916,-3.9073,-3.8463,-3.8202,-3.8202,-3.8202,-3.8202,-3.8202,-3.813,-3.8101,-3.8086,-3.8028,-3.7984,-3.7854,-3.6722,-3.6301,-3.6301,0.0,0.0,0.0,0.0,0.0,0.0,0.0,0.0,0.0,0.0,0.0,0.0,0.0,0.0,0.0,0.0,0.0,0.0,-1.9463,-2.1526,-2.2786,-2.2997,-2.3842,-2.4644,-2.5362,-2.6293,-2.7192,-2.8115,-2.8785,-2.9293,-2.9617,-2.9869,-2.9996,-3.001,-3.0277,-2.9997,-2.9352,-2.9352,-2.8957,-2.8384,-2.8384,-2.8208,-2.7855,-2.7425,-2.7524,-2.7782,-2.6887,-2.6572,0.0,0.0,-2.5815,-2.5524,-2.5832,-2.5734,-2.5426,-2.528,-2.5485,0.0,-2.6967,-2.7597,0.0,0.0,-3.0403,-3.0993,-3.1499,-3.1859,-3.2266,-3.2799,-3.2981,-3.3135,-3.3388,-3.3605,-3.3744,0.0,-3.4516,-3.5043,-3.5253,-3.6136,-3.6874,-3.7273,-3.736,-3.752,-3.7796,-3.8188,-3.8507,-3.8768,-3.9363,-3.9726,-3.9726,-4.0321,-4.067,-4.067,-4.1062,-4.1265,-4.1265,-4.1265,-4.1062,-4.067,-4.0423,-3.9915,-3.9189,-3.8913,-3.8565,-3.8202,-3.8202,-3.8202,-3.8202,-3.8202,-3.8202,-3.8202,-3.8202,-3.8202,-3.8144,-3.7607,-3.7418,-3.7418,0.0,0.0,0.0,0.0,0.0,0.0,0.0,0.0,0.0,0.0,0.0,0.0,0.0,0.0,0.0,0.0,0.0,0.0,0.0,-2.0798,-2.2068,-2.2622,-2.3267,-2.3846,-2.4421,-2.5467,-2.6293,-2.6968,-2.7985,-2.8588,-2.8791,-2.8957,-2.9008,-2.9008,-2.9008,-2.8725,-2.8214,-2.8214,-2.7953,-2.7517,-2.7517,-2.7384,-2.7149,-2.6586,-2.6519,-2.6573,-2.5859,-2.5733,0.0,0.0,-2.4988,-2.4826,-2.5377,-2.541,-2.5223,-2.5283,-2.5909,-2.6914,-2.859,0.0,0.0,-3.1338,-3.2075,-3.244,-3.2623,-3.3002,-3.329,-3.329,-3.329,-3.329,-3.329,-3.3431,0.0,-3.3937,-3.4618,-3.5253,-3.5618,-3.6671,-3.7416,-3.7453,-3.7904,-3.8275,-3.8463,-3.8913,-3.9276,-3.9436,-4.0017,-4.0379,-4.0379,-4.1004,-4.1381,-4.1381,-4.1845,-4.2092,-4.2092,-4.2092,-4.186,-4.1366,-4.1192,-4.0525,-3.9436,-3.9088,-3.8667,-3.8202,-3.8202,-3.8202,-3.8202,-3.8202,-3.8202,-3.8202,-3.8202,-3.8202,-3.8202,-3.8202,-3.8202,-3.8202,0.0,0.0,0.0,0.0,0.0,0.0,0.0,0.0,0.0,0.0,0.0,0.0,0.0,0.0,0.0,0.0,0.0,0.0,0.0,-1.9356,-2.0766,-2.1404,-2.2512,-2.307,-2.2975,-2.3629,-2.4351,-2.5096,-2.5505,-2.6107,-2.679,-2.7321,-2.7571,-2.7571,-2.7571,-2.7537,-2.755,-2.755,-2.7517,-2.7517,-2.7517,-2.7082,-2.6414,-2.6414,-2.5645,-2.4607,-2.4763,0.0,0.0,0.0,-2.3935,-2.4389,-2.3715,-2.385,0.0,-2.5094,-2.6321,0.0,0.0,0.0,-3.0363,-3.1963,-3.2398,-3.2553,-3.3122,-3.3276,-3.329,-3.329,-3.329,-3.329,-3.329,-3.329,-3.3508,-3.4076,-3.4767,-3.5483,-3.6278,-3.7068,-3.7672,-3.7877,-3.8052,-3.8463,0.0,-3.9189,-3.945,-4.0031,-4.0684,-4.1062,-4.1062,-4.17,-4.2063,-4.2063,-4.2092,-4.2092,-4.2092,-4.2092,-4.2092,-4.2063,-4.141,-4.0742,-4.0031,-3.8797,-3.8217,-3.8202,-3.8202,-3.8202,-3.8202,-3.8202,-3.8202,-3.8202,-3.8202,-3.8202,-3.8202,-3.8202,-3.8202,-3.8202,0.0,0.0,0.0,0.0,0.0,0.0,0.0,0.0,0.0,0.0,0.0,0.0,0.0,0.0,0.0,0.0,0.0,0.0,0.0,-1.8669,-2.0152,-2.0569,-2.149,-2.2013,-2.2111,-2.3219,-2.396,-2.4195,-2.5273,-2.6096,-2.6686,-2.6882,-2.7151,-2.7517,-2.7517,-2.7217,-2.6778,-2.6778,-2.6505,-2.6057,-2.6057,-2.5896,-2.5615,-2.5261,-2.4662,-2.3842,0.0,0.0,0.0,0.0,0.0,0.0,-2.3536,-2.4261,0.0,-2.622,-2.7119,-2.8081,0.0,0.0,-3.0986,-3.2591,-3.3016,-3.3073,-3.3234,-3.329,-3.329,-3.329,-3.329,-3.329,-3.329,-3.329,-3.3558,-3.4284,-3.4978,-3.5674,-3.6484,-3.7187,-3.7625,-3.7701,-3.8097,0.0,0.0,0.0,0.0,-4.0713,-4.1381,-4.1758,-4.1758,-4.1976,-4.2092,-4.2092,-4.2092,-4.2092,-4.2092,-4.2092,-4.2092,-4.2092,-4.096,-4.0321,-4.006,-3.8783,-3.8202,-3.8202,-3.8202,-3.8202,-3.8202,-3.8202,-3.8202,-3.8202,-3.8202,-3.8202,-3.8202,-3.8202,-3.8202,-3.8202,0.0,0.0,0.0,0.0,0.0,0.0,0.0,0.0,0.0,0.0,0.0,0.0,0.0,0.0,0.0,0.0,0.0,0.0,0.0,0.0,-1.8811,-1.9714,-2.0357,-2.0801,-2.1042,-2.2194,-2.2757,-2.2757,-2.4079,-2.4919,-2.5287,-2.5555,-2.595,-2.6438,-2.6438,-2.6282,-2.6,-2.6,-2.5687,-2.5194,-2.5002,-2.4788,-2.4526,-2.3988,-2.3269,0.0,0.0,0.0,0.0,0.0,0.0,0.0,0.0,-2.4496,-2.581,-2.6536,-2.7287,-2.8191,-2.9767,-3.0312,-3.0781,-3.2128,-3.2668,-3.286,-3.286,-3.3086,-3.329,-3.329,-3.329,-3.329,-3.329,-3.329,-3.3628,-3.458,-3.5119,-3.5707,-3.667,-3.7201,-3.7495,-3.7495,-3.809,0.0,0.0,0.0,0.0,-4.1151,-4.1666,-4.1953,-4.1953,-4.2051,-4.2092,-4.2092,-4.2092,-4.2092,-4.2092,-4.2092,-4.2092,-4.2078,-4.0742,-4.0104,-4.006,-3.8783,-3.8202,-3.8202,-3.8202,-3.8202,-3.8202,-3.8202,-3.8202,-3.8202,-3.8202,-3.8202,-3.8202,-3.8202,-3.8202,-3.8202,0.0,0.0,0.0,0.0,0.0,0.0,0.0,0.0,0.0,0.0,0.0,0.0,0.0,0.0,0.0,0.0,0.0,0.0,0.0,0.0,0.0,-1.8683,-1.909,-1.9444,-1.9808,-2.0434,-2.0781,-2.0805,-2.1961,-2.2579,-2.2638,-2.3302,-2.3917,-2.4364,-2.4364,-2.464,-2.5108,-2.5108,-2.505,-2.4873,-2.4385,-2.3771,-2.3128,-2.2574,0.0,0.0,0.0,0.0,0.0,0.0,0.0,0.0,0.0,0.0,-2.655,-2.6121,-2.6968,-2.8193,-2.9013,-2.9467,-2.9884,-3.0707,-3.1489,-3.211,-3.211,-3.2739,-3.329,-3.329,-3.3262,-3.3248,0.0,0.0,-3.3677,-3.4936,-3.5175,-3.5611,-3.6768,-3.712,-3.7264,0.0,0.0,0.0,0.0,0.0,0.0,-4.1353,0.0,-4.1688,-4.1688,-4.1939,-4.2092,-4.2092,-4.2092,-4.2092,-4.2092,-4.2092,-4.2092,-4.2078,-4.0742,-4.0104,-4.006,-3.8783,-3.8202,-3.8202,-3.8202,-3.8202,-3.8202,-3.8202,-3.8202,-3.8202,-3.8202,-3.8202,-3.8202,-3.8202,-3.8202,-3.8202,0.0,0.0,0.0,0.0,0.0,0.0,0.0,0.0,0.0,0.0,0.0,0.0,0.0,0.0,0.0,0.0,0.0,0.0,0.0,0.0,0.0,0.0,0.0,0.0,0.0,0.0,0.0,0.0,0.0,-2.0612,-2.1348,-2.154,-2.1914,-2.24,-2.24,-2.2471,-2.2633,-2.2633,-2.2601,-2.2557,0.0,-2.2052,-2.1513,0.0,0.0,0.0,0.0,0.0,0.0,0.0,0.0,0.0,0.0,-2.5335,-2.609,-2.7151,-2.7723,-2.8228,-2.9275,-2.9629,-2.9884,-3.0707,-3.1489,-3.211,-3.211,-3.2739,-3.329,-3.329,-3.296,-3.2778,0.0,0.0,0.0,-3.4267,-3.4857,0.0,-3.623,-3.6775,0.0,0.0,0.0,-3.8922,-3.9254,-4.0234,0.0,0.0,-4.1438,-4.1549,-4.1688,-4.1744,-4.1883,-4.2092,-4.2092,-4.2092,-4.2092,-4.2092,-4.2092,-4.2078,-4.0742,-4.0104,-4.006,-3.8783,-3.8202,-3.8202,-3.8202,-3.8202,-3.8202,-3.8202,-3.8202,-3.8202,-3.8202,-3.8202,-3.8202,-3.8202,-3.8202,-3.8202,0.0,0.0,0.0,0.0,0.0,0.0,0.0,0.0,0.0,0.0,0.0,0.0,0.0,0.0,0.0,0.0,0.0,0.0,0.0,0.0,0.0,0.0,0.0,0.0,0.0,0.0,0.0,0.0,0.0,0.0,0.0,-1.9865,-2.0176,-2.0688,-2.0688,-2.0818,-2.103,-2.103,0.0,0.0,0.0,0.0,0.0,0.0,0.0,0.0,0.0,0.0,0.0,0.0,0.0,-2.3926,-2.5345,-2.6094,-2.6587,-2.7478,0.0,-2.8219,-2.8863,-2.9106,-2.9289,-2.9742,-3.0443,-3.1016,-3.084,-3.129,-3.1708,-3.155,-3.1383,0.0,0.0,0.0,0.0,0.0,0.0,0.0,-3.6019,-3.6638,-3.6978,0.0,-3.8143,0.0,-3.9079,-4.0181,-4.0944,0.0,-4.1381,-4.1577,-4.1688,-4.18,-4.1939,-4.2092,-4.2092,-4.2092,-4.2092,-4.2092,-4.2092,-4.2078,-4.0742,-4.0104,-4.006,-3.8783,-3.8202,-3.8202,0.0,-3.8202,-3.8202,-3.8202,-3.8202,-3.8202,-3.8202,-3.8202,-3.8202,-3.8202,-3.8202,-3.8202,0.0,0.0,0.0,0.0,0.0,0.0,0.0,0.0,0.0,0.0,0.0,0.0,0.0,0.0,0.0,0.0,0.0,0.0,0.0,0.0,0.0,0.0,0.0,0.0,0.0,0.0,0.0,0.0,0.0,0.0,0.0,0.0,0.0,0.0,0.0,0.0,0.0,0.0,0.0,0.0,0.0,0.0,0.0,0.0,0.0,0.0,0.0,0.0,0.0,0.0,-2.3137,-2.4772,-2.5877,-2.6701,-2.7323,-2.7454,-2.7862,-2.8219,-2.8219,-2.8339,-2.851,-2.851,-2.9106,-2.9604,-2.9252,-2.9447,-2.9619,-2.9215,0.0,0.0,-3.0679,0.0,-3.2346,-3.383,0.0,-3.5287,-3.5892,-3.6511,-3.6894,-3.6978,-3.8058,-3.8818,-3.8943,-3.9943,-4.066,-4.0773,-4.1325,-4.1646,-4.1604,-4.1814,-4.1995,-4.2036,-4.2092,-4.2092,-4.2092,-4.2092,-4.2092,-4.2078,-4.0742,-4.0104,-4.006,-3.8783,-3.8202,-3.8202,0.0,0.0,-3.8202,-3.8202,-3.8202,-3.8202,-3.8202,-3.8202,-3.8202,-3.8202,-3.8202,-3.8202,0.0,0.0,0.0,0.0,0.0,0.0,0.0,0.0,0.0,0.0,-0.9347,0.0,0.0,0.0,0.0,0.0,0.0,0.0,0.0,0.0,0.0,0.0,0.0,0.0,0.0,0.0,0.0,0.0,0.0,0.0,0.0,0.0,0.0,0.0,0.0,0.0,0.0,0.0,0.0,0.0,0.0,0.0,0.0,0.0,0.0,0.0,0.0,0.0,0.0,0.0,-2.3266,-2.536,-2.6405,-2.6761,-2.6919,-2.7787,-2.8148,-2.8219,-2.8219,-2.8339,-2.851,-2.851,-2.9106,-2.9566,-2.9089,-2.9168,0.0,0.0,0.0,-2.8219,-2.9816,-3.0297,0.0,-3.3129,0.0,0.0,0.0,0.0,-3.6455,0.0,0.0,0.0,0.0,0.0,0.0,0.0,0.0,-4.1381,-4.1128,-4.1184,-4.1353,-4.1744,-4.1995,-4.2092,-4.2092,-4.2092,-4.2092,-4.2078,-4.0742,-4.0104,-4.006,-3.8783,-3.8202,-3.8202,-3.8202,0.0,-3.8202,-3.8202,-3.8202,-3.8202,-3.8202,-3.8202,-3.8202,-3.8202,-3.8202,-3.8202,0.0,0.0,0.0,0.0,0.0,0.0,0.0,0.0,0.0,0.0,-1.0022,-0.9873,0.0,0.0,0.0,0.0,0.0,0.0,0.0,0.0,0.0,0.0,0.0,0.0,0.0,0.0,0.0,0.0,0.0,0.0,0.0,0.0,0.0,0.0,0.0,0.0,0.0,0.0,0.0,0.0,0.0,0.0,0.0,0.0,0.0,0.0,0.0,0.0,0.0,0.0,-2.2388,-2.4644,-2.6344,-2.6697,-2.6659,-2.7723,-2.7938,-2.7846,-2.7846,-2.8099,-2.8339,-2.8339,-2.8645,-2.8655,-2.7705,0.0,0.0,0.0,0.0,-2.541,-2.709,0.0,0.0,0.0,0.0,0.0,0.0,0.0,0.0,0.0,0.0,0.0,0.0,0.0,0.0,0.0,0.0,-4.1086,-4.1198,-4.1198,-4.1325,-4.1549,-4.1758,-4.1897,-4.1897,-4.2036,-4.2092,-4.2078,-4.0742,-4.0104,-4.006,-3.8783,-3.8202,-3.8202,-3.8202,0.0,-3.8202,-3.8202,-3.8202,-3.8202,-3.8202,-3.8202,-3.8202,-3.8202,-3.8202,-3.8202,0.0,0.0,0.0,0.0,0.0,0.0,0.0,-0.9211,-1.0206,-1.0837,-1.0918,-1.0964,-1.1078,-1.0321,-0.9804,0.0,0.0,0.0,0.0,0.0,0.0,0.0,0.0,0.0,0.0,0.0,0.0,0.0,0.0,0.0,0.0,0.0,0.0,0.0,0.0,0.0,0.0,0.0,0.0,0.0,0.0,0.0,0.0,0.0,0.0,0.0,0.0,0.0,0.0,0.0,-2.1068,-2.314,-2.5409,-2.6144,-2.6341,-2.7371,-2.7504,-2.7383,-2.7487,-2.7846,-2.8179,-2.8139,-2.8179,-2.7842,-2.6391,-2.5194,0.0,0.0,-2.2176,-2.2607,-2.4135,0.0,0.0,0.0,0.0,0.0,0.0,0.0,0.0,0.0,0.0,0.0,0.0,0.0,0.0,0.0,0.0,0.0,-4.1227,-4.1297,-4.1297,-4.1297,-4.1535,-4.1619,-4.1619,-4.1814,-4.1968,-4.1953,-4.0752,-4.0115,-3.9942,-3.8775,-3.822,-3.8127,-3.8089,0.0,0.0,-3.8089,-3.8089,-3.8142,-3.8142,-3.8165,-3.8202,-3.8202,-3.8202,-3.8165,0.0,0.0,0.0,0.0,0.0,0.0,0.0,-0.9531,-1.0872,-1.1831,-1.1957,-1.2141,-1.2636,-1.0952,-0.9804,0.0,0.0,0.0,0.0,0.0,0.0,0.0,0.0,0.0,0.0,0.0,0.0,0.0,0.0,0.0,0.0,0.0,0.0,0.0,0.0,0.0,0.0,0.0,0.0,0.0,0.0,0.0,0.0,0.0,0.0,0.0,0.0,0.0,0.0,0.0,0.0,-2.0626,-2.2895,-2.4508,-2.5737,-2.6636,0.0,0.0,-2.7394,-2.7846,-2.8179,-2.7962,-2.807,-2.7763,-2.603,0.0,0.0,-2.1081,-2.0479,-2.0744,-2.2041,-2.35,0.0,0.0,0.0,0.0,0.0,0.0,0.0,0.0,0.0,0.0,0.0,0.0,0.0,0.0,0.0,0.0,-4.0744,-4.093,-4.1043,-4.1043,-4.1283,-4.1438,-4.1438,-4.1438,-4.1438,-4.148,-4.0709,-4.0079,-3.9533,-3.8807,-3.8269,-3.7929,-3.7739,0.0,0.0,-3.7739,-3.7777,-3.7929,-3.7929,-3.8028,-3.8202,-3.8202,-3.8202,-3.8202,0.0,0.0,0.0,0.0,0.0,0.0,0.0,-0.9566,-1.0849,-1.1538,-1.19,-1.2176,-1.2394,-1.1136,-1.0286,0.0,0.0,0.0,0.0,0.0,0.0,0.0,0.0,0.0,0.0,0.0,0.0,0.0,0.0,0.0,0.0,0.0,0.0,0.0,0.0,0.0,0.0,0.0,0.0,0.0,0.0,0.0,0.0,0.0,0.0,0.0,0.0,0.0,0.0,0.0,0.0,0.0,-2.0772,-2.2211,0.0,0.0,-2.6456,-2.6736,-2.7204,-2.7522,-2.7765,-2.7696,-2.7736,-2.7284,-2.537,0.0,0.0,-2.0118,-1.9199,-1.9196,-2.0296,-2.1178,-2.2647,0.0,0.0,0.0,0.0,0.0,0.0,0.0,0.0,0.0,0.0,0.0,0.0,0.0,0.0,0.0,-4.0702,-4.0773,-4.0816,-4.0816,-4.1029,-4.1142,-4.1142,-4.1297,-4.1396,-4.1381,-4.0877,-4.0232,-3.9467,-3.8957,-3.8365,-3.7701,-3.7625,0.0,0.0,-3.7625,-3.7739,-3.7891,-3.7891,-3.8028,-3.8202,-3.8202,-3.8202,-3.8127,0.0,0.0,0.0,0.0,0.0,0.0,-0.8108,-0.944,-1.0654,-1.1434,-1.1721,-1.198,-1.2291,-1.1411,-1.0741,-1.0619,0.0,0.0,0.0,0.0,0.0,0.0,0.0,0.0,0.0,0.0,0.0,0.0,0.0,0.0,0.0,0.0,0.0,0.0,0.0,0.0,0.0,0.0,0.0,0.0,0.0,0.0,0.0,0.0,0.0,0.0,0.0,0.0,0.0,0.0,0.0,0.0,0.0,0.0,0.0,0.0,-2.5716,-2.6186,-2.7013,-2.733,-2.7482,-2.7441,-2.7209,-2.6577,0.0,0.0,-2.1592,-1.9287,-1.818,-1.7847,-1.8482,-1.9207,-2.0513,-2.2988,0.0,-2.7457,0.0,0.0,0.0,0.0,0.0,0.0,0.0,0.0,0.0,0.0,0.0,0.0,0.0,-4.0702,-4.0702,-4.0702,-4.0859,-4.093,-4.093,-4.1086,-4.1185,-4.117,-4.0911,-4.0396,-3.9672,-3.9204,-3.8574,-3.7882,0.0,0.0,0.0,-3.7457,-3.7534,-3.7739,-3.7777,-3.7915,-3.8142,-3.8165,-3.8037,-3.7682,0.0,0.0,0.0,0.0,0.0,0.0,0.0,-0.912,-1.0355,-1.1888,-1.1641,-1.1704,-1.2774,-1.1939,-1.1108,-1.0642,0.0,0.0,0.0,0.0,0.0,0.0,0.0,0.0,0.0,0.0,0.0,-1.2307,0.0,0.0,0.0,0.0,0.0,0.0,0.0,0.0,0.0,0.0,0.0,0.0,0.0,0.0,0.0,0.0,0.0,0.0,0.0,0.0,0.0,0.0,0.0,0.0,0.0,0.0,0.0,0.0,-2.4545,-2.5268,-2.6766,-2.733,-2.7441,-2.726,-2.6609,-2.5695,0.0,0.0,-2.0626,-1.8547,-1.7425,-1.6744,-1.6574,-1.7727,-1.9207,-2.0766,-2.4116,0.0,0.0,0.0,0.0,0.0,0.0,0.0,0.0,0.0,0.0,0.0,0.0,0.0,0.0,-4.0702,-4.0702,-4.0702,-4.0702,-4.0702,-4.0702,-4.0702,-4.0702,-4.0702,-4.0688,-4.0492,-4.0052,-3.947,-3.8953,0.0,0.0,0.0,0.0,-3.7109,-3.7109,-3.7341,-3.7534,-3.7739,-3.7929,-3.8142,-3.7644,-3.6897,0.0,0.0,0.0,0.0,0.0,0.0,0.0,-0.8362,-0.9443,-0.998,-1.0504,-1.0947,-1.1285,-1.07,-1.0229,-1.008,0.0,0.0,0.0,0.0,0.0,0.0,0.0,0.0,0.0,0.0,-1.2155,-1.2083,-1.2594,-1.2881,0.0,0.0,0.0,0.0,0.0,0.0,0.0,0.0,0.0,0.0,0.0,0.0,0.0,0.0,0.0,0.0,0.0,0.0,0.0,0.0,0.0,0.0,0.0,0.0,0.0,0.0,0.0,0.0,-2.4832,-2.5191,-2.5217,-2.5153,-2.4949,-2.4376,-2.2949,-2.1606,-2.0067,-1.8035,-1.6919,-1.6336,-1.635,-1.7171,-1.8642,-2.1194,-2.3407,0.0,0.0,0.0,0.0,0.0,0.0,0.0,0.0,0.0,0.0,0.0,0.0,0.0,0.0,-4.0702,-4.0702,-4.0702,-4.0702,-4.0702,-4.0702,-4.0702,-4.0702,-4.0702,-4.0845,-4.0619,-4.0066,-3.9485,0.0,0.0,0.0,0.0,0.0,-3.6163,-3.6229,-3.6427,-3.648,-3.6716,-3.695,-3.6399,-3.6148,-3.5909,0.0,0.0,0.0,0.0,0.0,0.0,0.0,-0.762,-0.8555,-0.901,-0.9632,-1.0183,-1.0562,-1.0125,-0.9804,-0.9804,0.0,0.0,0.0,0.0,0.0,0.0,0.0,0.0,0.0,-1.1872,-1.2098,-1.2087,-1.2663,-1.3045,-1.3267,-1.3392,-1.3535,0.0,0.0,0.0,0.0,0.0,0.0,0.0,0.0,0.0,-1.4069,0.0,0.0,0.0,0.0,0.0,0.0,0.0,0.0,0.0,0.0,0.0,0.0,0.0,-1.9551,0.0,0.0,-2.3626,-2.3626,-2.3626,-2.3339,0.0,0.0,-2.0393,-1.9051,-1.7427,-1.6525,-1.6079,-1.6197,-1.7002,-1.8497,-2.1011,-2.3286,0.0,0.0,0.0,0.0,0.0,0.0,0.0,0.0,0.0,0.0,0.0,0.0,0.0,0.0,-4.0702,-4.0702,-4.0702,-4.0702,-4.0702,-4.0702,-4.0702,-4.0702,-4.0702,-4.0816,-4.0732,-4.0434,-3.9893,0.0,0.0,0.0,0.0,0.0,-3.5156,-3.5237,-3.5359,-3.5427,-3.5682,-3.5923,-3.5467,-3.517,-3.4884,0.0,0.0,0.0,0.0,0.0,0.0,0.0,0.0,0.0,0.0,-0.8951,-0.9391,-1.0317,-1.0019,-0.9743,0.0,0.0,0.0,0.0,0.0,0.0,0.0,0.0,0.0,0.0,-1.1448,-1.1954,-1.2191,-1.2581,-1.3141,-1.3872,-1.3451,-1.3481,-1.3861,-1.341,-1.3172,-1.3061,-1.2929,-1.291,-1.2991,-1.3266,-1.3539,0.0,0.0,0.0,0.0,0.0,0.0,0.0,0.0,0.0,0.0,0.0,0.0,0.0,0.0,0.0,0.0,0.0,0.0,0.0,0.0,0.0,0.0,0.0,-1.9097,0.0,-1.6759,-1.6186,-1.5948,-1.6055,-1.7212,-1.8689,-2.0418,-2.3604,0.0,0.0,0.0,0.0,0.0,0.0,0.0,0.0,0.0,0.0,0.0,0.0,0.0,0.0,-4.0702,-4.0702,-4.0702,-4.0702,-4.0702,-4.0702,-4.0702,-4.0702,-4.0702,-4.0645,-4.0716,-4.0887,-4.0391,0.0,0.0,0.0,0.0,0.0,-3.4223,-3.4223,-3.4223,-3.4417,-3.4637,-3.491,-3.5061,-3.4609,-3.3872,0.0,0.0,0.0,0.0,0.0,0.0,0.0,0.0,0.0,0.0,-0.7856,-0.8419,-0.8668,-0.893,-0.9116,0.0,0.0,0.0,0.0,0.0,0.0,0.0,0.0,0.0,0.0,-1.1716,-1.2193,-1.205,-1.301,-1.3521,-1.3592,-1.3808,-1.3789,-1.3582,-1.3474,-1.3199,-1.2774,-1.2759,-1.2749,-1.2788,-1.3001,-1.3266,0.0,0.0,0.0,0.0,-1.4246,-1.4396,0.0,0.0,0.0,0.0,0.0,0.0,0.0,0.0,-1.6142,-1.6591,-1.8212,0.0,-1.9884,-2.0285,-2.0247,-1.9803,0.0,-1.8093,-1.7266,-1.6269,0.0,0.0,-1.5948,-1.7241,-1.9042,0.0,0.0,0.0,0.0,0.0,0.0,0.0,0.0,0.0,0.0,0.0,0.0,0.0,0.0,0.0,0.0,-4.0702,-4.0702,-4.0702,-4.0702,-4.0702,-4.0702,-4.0702,-4.0702,-4.0702,-3.9911,-3.9664,-3.9883,-3.8324,0.0,0.0,0.0,0.0,-3.3322,-3.3322,-3.3322,-3.331,-3.3352,-3.3547,-3.3713,-3.3245,-3.3031,-3.3,0.0,0.0,0.0,0.0,0.0,0.0,0.0,0.0,0.0,0.0,0.0,0.0,0.0,0.0,0.0,0.0,0.0,0.0,0.0,0.0,0.0,0.0,0.0,0.0,-1.0043,-1.1397,-1.2108,-1.2165,-1.315,-1.3789,-1.4092,-1.4094,-1.3987,-1.3753,-1.3389,-1.3046,-1.27,-1.27,-1.2652,-1.2627,-1.2803,0.0,0.0,0.0,0.0,0.0,-1.4069,-1.4244,0.0,-1.4627,-1.4765,-1.4891,0.0,0.0,0.0,0.0,-1.5533,-1.5763,-1.6761,-1.7599,-1.8322,-1.885,-1.896,-1.877,-1.7951,0.0,0.0,0.0,0.0,0.0,0.0,0.0,0.0,0.0,0.0,0.0,0.0,0.0,0.0,0.0,0.0,0.0,0.0,0.0,0.0,0.0,0.0,0.0,0.0,-4.0702,-4.0702,-4.0702,-4.0702,-4.0702,-4.0702,-4.0702,-4.0459,-3.9998,-3.9475,-3.9033,-3.8734,-3.7804,-3.6895,0.0,0.0,0.0,-3.2739,-3.2524,-3.2413,-3.2413,-3.2413,-3.2556,-3.2711,-3.2344,-3.23,-3.2376,0.0,0.0,0.0,0.0,0.0,0.0,0.0,0.0,0.0,0.0,0.0,0.0,0.0,0.0,0.0,0.0,0.0,0.0,0.0,0.0,0.0,0.0,0.0,-0.9413,-0.9493,-1.0944,-1.197,-1.2497,-1.3233,-1.4014,-1.4775,-1.4445,-1.4231,-1.4075,-1.3262,-1.2832,-1.2735,-1.271,-1.2627,-1.2505,-1.2627,0.0,0.0,0.0,0.0,0.0,0.0,0.0,0.0,-1.45,-1.4684,-1.4845,-1.5051,0.0,0.0,0.0,0.0,0.0,-1.6323,-1.7105,-1.7714,-1.8123,-1.8295,-1.8215,-1.7725,0.0,0.0,0.0,0.0,0.0,0.0,0.0,0.0,0.0,0.0,0.0,0.0,0.0,0.0,0.0,0.0,0.0,0.0,0.0,0.0,0.0,0.0,0.0,0.0,-4.0372,-4.0416,-4.0243,-4.0243,-4.0243,-4.0243,-4.0416,-4.0041,-3.921,-3.8885,-3.836,-3.7579,-3.7586,-3.677,0.0,0.0,0.0,-3.2466,-3.1985,-3.1789,-3.1705,-3.1705,-3.1805,-3.195,-3.1994,-3.1994,-3.1994,0.0,0.0,0.0,0.0,0.0,0.0,0.0,0.0,0.0,0.0,0.0,0.0,0.0,0.0,0.0,0.0,0.0,0.0,0.0,0.0,0.0,0.0,-0.8948,-0.9602,-1.0382,-1.1251,-1.2108,-1.2908,-1.3649,-1.427,-1.4823,-1.5078,-1.4806,-1.4075,-1.3262,-1.2881,-1.2856,-1.2759,-1.2627,-1.2505,-1.2529,0.0,0.0,0.0,0.0,0.0,0.0,0.0,0.0,-1.4465,-1.4684,-1.4845,-1.5051,0.0,0.0,0.0,0.0,0.0,-1.6323,-1.7622,-1.8678,-1.8759,-1.9126,-1.931,-1.8782,0.0,0.0,0.0,0.0,0.0,0.0,0.0,0.0,0.0,0.0,0.0,0.0,0.0,0.0,0.0,0.0,0.0,0.0,0.0,0.0,0.0,0.0,0.0,0.0,0.0,-3.9091,-3.8264,-3.8264,-3.8264,-3.8264,-3.9046,-3.9343,-3.9166,-3.754,-3.6684,-3.6496,-3.5655,-3.4907,0.0,0.0,-3.3554,-3.2491,-3.2406,-3.2094,-3.1705,-3.1705,-3.1705,-3.1761,-3.1937,-3.1994,-3.1994,0.0,0.0,0.0,0.0,0.0,0.0,0.0,0.0,0.0,0.0,0.0,0.0,0.0,0.0,0.0,0.0,0.0,0.0,0.0,0.0,0.0,-0.8691,-0.9173,-0.9739,-1.0419,-1.1441,-1.24,-1.3263,-1.4072,-1.4707,-1.5117,-1.4825,-1.4484,-1.4075,-1.3262,-1.2905,-1.2905,-1.2832,-1.2686,-1.2505,0.0,0.0,0.0,0.0,0.0,0.0,0.0,0.0,0.0,0.0,-1.4205,-1.4418,-1.4937,0.0,0.0,0.0,0.0,0.0,-1.6323,-1.7504,-1.8747,-1.9998,-2.0908,-2.1441,-2.13,0.0,0.0,0.0,0.0,0.0,0.0,0.0,0.0,0.0,0.0,0.0,0.0,0.0,0.0,0.0,0.0,0.0,0.0,0.0,0.0,0.0,0.0,0.0,0.0,0.0,-3.7952,-3.7795,-3.7808,-3.7808,-3.7808,-3.7691,-3.7632,-3.7632,-3.673,-3.6048,-3.5475,-3.5017,-3.4643,-3.4402,0.0,-3.3609,-3.2899,-3.2623,-3.2166,-3.1705,-3.1705,-3.1705,-3.1705,-3.1805,-3.1849,-3.1849,0.0,0.0,0.0,0.0,0.0,0.0,0.0,0.0,0.0,0.0,0.0,0.0,0.0,0.0,0.0,0.0,0.0,0.0,0.0,0.0,-0.7988,-0.8882,-0.9361,-0.9913,-1.0586,-1.1768,-1.2779,-1.3627,-1.4414,-1.5,-1.5391,-1.4504,-1.4104,-1.4075,-1.3262,-1.2905,-1.2905,-1.2905,-1.2759,-1.2554,0.0,0.0,0.0,0.0,0.0,0.0,0.0,0.0,0.0,0.0,0.0,0.0,0.0,0.0,0.0,-1.5108,-1.5108,-1.5303,-1.6299,-1.7489,-1.9017,-2.1303,0.0,-2.3048,-2.3542,0.0,0.0,0.0,0.0,0.0,0.0,0.0,0.0,0.0,0.0,0.0,0.0,0.0,0.0,0.0,0.0,0.0,0.0,0.0,0.0,0.0,0.0,0.0,0.0,0.0,-3.656,-3.6765,-3.6731,-3.6731,-3.6731,-3.599,-3.5834,-3.632,-3.6036,-3.5523,-3.4775,-3.4775,-3.4775,-3.4751,-3.4222,-3.3753,-3.3248,-3.2719,-3.2166,-3.1705,-3.1705,-3.1705,-3.1705,-3.1705,-3.1705,-3.1705,0.0,0.0,0.0,0.0,0.0,0.0,0.0,0.0,0.0,0.0,0.0,0.0,0.0,0.0,0.0,0.0,0.0,0.0,0.0,0.0,-0.8019,-0.8948,-0.9387,-1.0196,-1.1489,-1.2387,-1.3242,-1.4065,-1.4561,-1.5,-1.5391,-1.4504,-1.4104,-1.4075,-1.3262,-1.2905,-1.2905,-1.2905,-1.2832,-1.2686,-1.2686,0.0,0.0,0.0,0.0,0.0,0.0,0.0,0.0,0.0,0.0,0.0,0.0,0.0,-1.5108,-1.5108,-1.5108,-1.528,-1.6189,-1.7977,-2.0116,-2.2428,0.0,0.0,-2.439,-2.4541,0.0,0.0,0.0,0.0,0.0,0.0,0.0,0.0,0.0,0.0,0.0,0.0,0.0,0.0,0.0,0.0,0.0,0.0,0.0,0.0,0.0,0.0,0.0,0.0,0.0,-3.3671,-3.3625,-3.3625,-3.3625,-3.3532,-3.4472,-3.6273,-3.5343,-3.4872,-3.4775,-3.4775,-3.4775,-3.4751,-3.4222,-3.3753,-3.3248,-3.2719,-3.2166,-3.1705,-3.1705,-3.1705,-3.1705,-3.1705,-3.1705,-3.1705,0.0,0.0,0.0,0.0,0.0,0.0,0.0,0.0,0.0,0.0,0.0,0.0,0.0,0.0,0.0,0.0,0.0,0.0,0.0,0.0,-0.7942,-0.8829,-0.9333,-1.0234,-1.1577,-1.2709,-1.3555,-1.4104,-1.4834,-1.5117,-1.501,-1.4387,-1.3968,-1.3695,-1.3135,-1.2905,-1.2905,-1.2905,-1.2832,-1.27,-1.27,-1.2344,0.0,0.0,0.0,0.0,0.0,0.0,0.0,0.0,-1.2749,-1.3451,0.0,-1.4618,-1.5108,-1.5108,-1.5028,-1.5176,-1.6128,-1.7655,-1.9588,-2.2256,0.0,0.0,0.0,0.0,0.0,0.0,0.0,0.0,0.0,0.0,0.0,0.0,0.0,0.0,0.0,0.0,0.0,0.0,0.0,0.0,0.0,0.0,0.0,0.0,0.0,0.0,0.0,0.0,0.0,-3.3284,-3.3284,-3.3284,-3.3284,-3.3284,-3.3663,-3.4413,-3.405,-3.3873,-3.3873,-3.3873,-3.3873,-3.3861,-3.3657,-3.3272,-3.2791,-3.2575,-3.2166,-3.1705,-3.1705,-3.1705,-3.1705,-3.1705,-3.1705,-3.1705,0.0,0.0,0.0,0.0,0.0,0.0,0.0,0.0,0.0,0.0,0.0,0.0,0.0,0.0,0.0,0.0,0.0,0.0,0.0,-0.7407,-0.789,-0.8804,-0.9315,-1.0157,-1.1349,-1.2637,-1.3516,-1.3909,-1.463,-1.4863,-1.457,-1.4114,-1.3753,-1.3486,-1.3066,-1.2905,-1.2905,-1.2905,-1.2856,-1.2759,-1.2759,-1.2363,0.0,0.0,0.0,0.0,0.0,0.0,0.0,0.0,-1.2129,-1.2818,0.0,0.0,-1.4755,-1.4755,-1.4903,-1.5298,-1.6252,-1.7573,-1.9395,0.0,0.0,0.0,0.0,0.0,0.0,0.0,0.0,0.0,0.0,0.0,0.0,0.0,0.0,0.0,0.0,0.0,0.0,0.0,0.0,0.0,0.0,0.0,0.0,0.0,0.0,0.0,0.0,0.0,0.0,0.0,-3.2779,-3.2779,-3.2779,-3.2779,-3.2779,-3.2779,-3.2779,-3.2959,-3.3284,-3.3284,-3.3284,-3.3284,-3.3116,-3.2839,-3.2491,-3.231,-3.201,-3.1705,-3.1705,-3.1705,-3.1705,-3.1705,-3.1705,-3.1705,0.0,0.0,0.0,0.0,0.0,0.0,0.0,0.0,0.0,0.0,0.0,0.0,0.0,0.0,0.0,0.0,0.0,0.0,-0.7381,-0.747,-0.7915,-0.8848,-0.9343,-1.001,-1.0868,-1.2197,-1.3076,-1.3516,-1.3899,-1.4104,-1.4094,-1.3701,-1.3506,-1.3486,-1.3066,-1.2905,-1.2905,-1.2905,-1.2905,-1.2905,-1.2905,-1.2377,-1.1584,0.0,0.0,0.0,0.0,0.0,0.0,0.0,-1.1422,-1.2122,0.0,0.0,0.0,-1.4003,-1.4709,-1.567,-1.6483,-1.7878,0.0,0.0,0.0,0.0,0.0,0.0,0.0,0.0,0.0,0.0,0.0,0.0,0.0,0.0,0.0,0.0,0.0,0.0,0.0,0.0,0.0,0.0,0.0,0.0,0.0,0.0,0.0,0.0,0.0,0.0,0.0,0.0,-3.1705,-3.1705,-3.1705,-3.1705,-3.1705,-3.1705,-3.1705,-3.2271,-3.3272,-3.3272,-3.3272,-3.3248,-3.2719,-3.2491,-3.2442,-3.1934,-3.1705,-3.1705,-3.1705,-3.1705,-3.1705,-3.1705,-3.1705,-3.1705,0.0,0.0,0.0,0.0,0.0,0.0,0.0,0.0,0.0,0.0,0.0,0.0,0.0,0.0,0.0,0.0,0.0,0.0,-0.7249,-0.7407,-0.789,-0.8787,-0.9062,-0.9699,-1.0816,-1.1448,-1.2464,-1.3919,-1.4046,-1.3958,-1.3691,-1.3564,-1.335,-1.3066,-1.2964,-1.2905,-1.2905,-1.2905,-1.2905,-1.2905,-1.2905,-1.2377,-1.1606,0.0,0.0,0.0,0.0,0.0,0.0,0.0,0.0,0.0,-1.2054,0.0,-1.3806,-1.3894,-1.4479,-1.5353,-1.6634,-1.8518,0.0,0.0,0.0,0.0,0.0,0.0,0.0,0.0,0.0,0.0,0.0,0.0,0.0,0.0,0.0,0.0,0.0,0.0,0.0,0.0,0.0,0.0,0.0,0.0,0.0,0.0,0.0,0.0,0.0,0.0,0.0,0.0,-3.1705,-3.1705,-3.1705,-3.1705,-3.1705,-3.1705,-3.1705,-3.1874,-3.2187,-3.2187,-3.2187,-3.2187,-3.203,-3.1958,-3.1901,-3.1777,-3.1705,-3.1705,-3.1705,-3.1705,-3.1705,-3.1705,-3.1705,-3.1705,0.0,0.0,0.0,0.0,0.0,0.0,0.0,0.0,0.0,0.0,0.0,0.0,0.0,0.0,0.0,0.0,0.0,0.0,0.0,0.0,-0.7875,-0.8717,-0.8858,-0.9482,-1.0692,-1.0927,-1.1656,-1.2991,-1.3016,-1.2977,-1.2885,-1.2949,-1.2934,-1.2832,-1.2881,-1.2905,-1.2905,-1.2905,-1.2905,-1.2886,-1.2695,-1.222,-1.1587,0.0,0.0,0.0,0.0,0.0,0.0,0.0,0.0,0.0,-1.1274,0.0,0.0,-1.3466,-1.4481,-1.5706,-1.7236,0.0,0.0,0.0,0.0,0.0,0.0,0.0,0.0,0.0,0.0,0.0,0.0,0.0,0.0,0.0,0.0,0.0,0.0,0.0,0.0,0.0,0.0,0.0,0.0,0.0,0.0,0.0,0.0,0.0,0.0,0.0,0.0,0.0,-3.1705,-3.1705,-3.1705,-3.1705,-3.1705,-3.1705,-3.1705,-3.1705,-3.1705,-3.1705,-3.1705,-3.1705,-3.1705,-3.1705,-3.1705,-3.1705,-3.1705,-3.1705,-3.1705,-3.1705,-3.1705,-3.1705,-3.1705,-3.1705,0.0,0.0,0.0,0.0,0.0,0.0,0.0,0.0,0.0,0.0,0.0,0.0,0.0,0.0,0.0,0.0,0.0,0.0,0.0,0.0,-0.785,-0.8664,-0.8814,-0.9393,-1.049,-1.0488,-1.0677,-1.1129,-1.1305,-1.1564,-1.1897,-1.2097,-1.2343,-1.2686,-1.2808,-1.2861,-1.2822,-1.2822,-1.2793,-1.2749,-1.2334,-1.1904,-1.1477,-1.099,0.0,0.0,0.0,0.0,0.0,0.0,0.0,0.0,-1.009,-1.0586,-1.1332,-1.2775,-1.4546,-1.6449,0.0,0.0,0.0,0.0,0.0,0.0,0.0,0.0,0.0,0.0,0.0,0.0,0.0,0.0,0.0,0.0,0.0,0.0,0.0,0.0,0.0,0.0,0.0,0.0,0.0,0.0,0.0,0.0,0.0,0.0,0.0,0.0,0.0,0.0,-3.1705,-3.1705,-3.1705,-3.1705,-3.1705,0.0,-3.1705,-3.1705,-3.1705,-3.1705,-3.1705,-3.1705,-3.1705,-3.1705,-3.1705,-3.1705,-3.1705,-3.1705,-3.1705,-3.1705,-3.1705,-3.1705,-3.1705,-3.1705,0.0,0.0,0.0,0.0,0.0,0.0,0.0,0.0,0.0,0.0,0.0,0.0,0.0,0.0,0.0,0.0,0.0,0.0,0.0,0.0,-0.7797,-0.8664,-0.9208,-0.9634,-0.9882,-0.9683,-0.963,-0.974,-1.0803,-1.1506,-1.1897,-1.1935,-1.2163,-1.2529,-1.2578,-1.2445,-1.2176,-1.2176,-1.2066,-1.1881,-1.176,-1.1424,-1.0971,-1.0833,-1.0202,0.0,0.0,0.0,0.0,0.0,0.0,0.0,-0.9244,-0.9904,-1.0862,-1.2025,-1.4058,-1.6335,0.0,0.0,0.0,0.0,0.0,0.0,0.0,0.0,0.0,0.0,0.0,0.0,0.0,0.0,0.0,0.0,0.0,0.0,0.0,0.0,0.0,0.0,0.0,0.0,0.0,0.0,0.0,0.0,0.0,0.0,0.0,0.0,0.0,-3.1705,-3.1705,-3.1705,-3.1705,-3.1705,-3.1705,0.0,-3.1705,-3.1705,-3.1705,-3.1705,-3.1705,-3.1705,-3.1705,-3.1705,-3.1705,-3.1705,-3.1705,-3.1705,-3.1705,-3.1705,-3.1705,-3.1705,-3.1705,-3.1705,0.0,0.0,0.0,0.0,0.0,0.0,0.0,0.0,0.0,0.0,0.0,0.0,0.0,0.0,0.0,0.0,0.0,0.0,0.0,0.0,0.0,-0.8519,-0.9168,-0.9506,-0.9455,-0.9257,-0.9148,-0.9148,-1.0016,-1.0717,0.0,-1.1528,-1.1868,-1.2224,-1.2357,-1.2219,-1.1902,-1.1962,-1.1859,-1.1587,-1.1359,-1.1081,-1.0744,-1.03,-0.9744,-0.9179,-0.8957,0.0,0.0,0.0,0.0,0.0,0.0,0.0,-1.0071,-1.1528,-1.3736,-1.6168,0.0,0.0,0.0,0.0,0.0,0.0,0.0,0.0,0.0,0.0,0.0,0.0,0.0,0.0,0.0,0.0,0.0,0.0,0.0,0.0,0.0,0.0,0.0,0.0,0.0,0.0,0.0,0.0,0.0,0.0,0.0,-3.1705,-3.1705,-3.1705,-3.1705,-3.1705,-3.1705,-3.1705,-3.1705,-3.1705,-3.1705,-3.1705,-3.1705,-3.1705,-3.1705,-3.1705,-3.1705,-3.1705,-3.1705,-3.1705,-3.1705,-3.1705,-3.1705,-3.1705,-3.1705,-3.1705,-3.1705,-3.1705,0.0,0.0,0.0,0.0,0.0,0.0,0.0,0.0,0.0,0.0,0.0,0.0,0.0,0.0,0.0,0.0,0.0,0.0,0.0,0.0,0.0,-0.8222,-0.8743,-0.8987,-0.8946,-0.8799,-0.8754,-0.8822,-0.9199,0.0,0.0,0.0,0.0,-1.1926,-1.2161,-1.2067,-1.1752,-1.1803,-1.1637,-1.1309,-1.0947,-1.0749,-1.059,-0.9811,-0.9356,-0.904,-0.8661,-0.8406,-0.8231,-0.7955,0.0,0.0,0.0,0.0,-0.9201,-1.1013,-1.3308,-1.5822,0.0,0.0,0.0,0.0,0.0,0.0,0.0,0.0,0.0,0.0,0.0,0.0,0.0,0.0,0.0,0.0,0.0,0.0,0.0,0.0,0.0,0.0,0.0,0.0,0.0,0.0,0.0,0.0,0.0,0.0,-3.1705,-3.1705,-3.1705,-3.1705,-3.1705,-3.1705,-3.1705,-3.1705,-3.1705,-3.1705,-3.1705,-3.1705,-3.1705,-3.1705,-3.1705,-3.1705,-3.1705,-3.1705,-3.1705,-3.1705,-3.1705,-3.1705,-3.1705,-3.1705,-3.1705,-3.1705,-3.1705,-3.1705,0.0,0.0,0.0,0.0,0.0,0.0,0.0,0.0,0.0,0.0,0.0,0.0,0.0,0.0,0.0,0.0,0.0,0.0,-0.714,0.0,0.0,-0.7611,-0.7808,-0.7904,-0.7904,-0.7714,-0.7759,-0.8048,0.0,0.0,0.0,0.0,0.0,-1.2,0.0,-1.1826,-1.1443,-1.1218,-1.0809,-1.0301,-1.0371,-1.0312,-1.0175,-1.004,-0.945,-0.8675,-0.8611,-0.8052,-0.7366,-0.7326,-0.7308,0.0,0.0,0.0,0.0,-0.9973,-1.2374,-1.5051,0.0,0.0,0.0,0.0,0.0,0.0,0.0,0.0,0.0,0.0,0.0,0.0,0.0,0.0,0.0,0.0,0.0,0.0,0.0,0.0,0.0,0.0,0.0,0.0,0.0,0.0,0.0,0.0,0.0,0.0,-3.1705,-3.1705,-3.1705,-3.1705,-3.1705,-3.1705,-3.1705,-3.1705,-3.1705,-3.1705,-3.1705,-3.1705,-3.1705,-3.1705,-3.1705,-3.1705,-3.1705,-3.1705,-3.1705,-3.1705,-3.1705,-3.1705,-3.1705,-3.1705,-3.1705,-3.1705,-3.1705,-3.1705,0.0,0.0,0.0,0.0,0.0,0.0,0.0,0.0,0.0,0.0,0.0,0.0,0.0,0.0,0.0,-0.7095,-0.7101,-0.7062,-0.699,-0.7298,-0.7427,-0.7279,-0.7473,-0.7531,-0.7414,-0.7296,-0.7389,-0.7725,0.0,0.0,0.0,-1.0391,-1.1198,0.0,0.0,0.0,0.0,-1.1049,-1.0687,-1.0393,-1.0433,-1.0864,-1.1363,-1.0649,-1.0419,-1.032,-0.9384,-0.8649,-0.8091,-0.8091,-0.7916,-0.7713,-0.7769,0.0,0.0,0.0,0.0,0.0,0.0,0.0,0.0,0.0,0.0,0.0,0.0,0.0,0.0,0.0,0.0,0.0,0.0,0.0,0.0,0.0,0.0,0.0,0.0,0.0,0.0,0.0,0.0,0.0,0.0,0.0,0.0,0.0,0.0,-3.1705,-3.1705,-3.1705,-3.1705,-3.1705,-3.1705,-3.1705,-3.1705,-3.1705,-3.1705,-3.1705,-3.1705,-3.1705,-3.1705,-3.1705,-3.1705,-3.1705,-3.1705,-3.1705,-3.1705,-3.1705,-3.1705,-3.1705,-3.1705,-3.1705,-3.1705,-3.1705,-3.1705,-3.1705,0.0,0.0,0.0,0.0,0.0,0.0,0.0,0.0,0.0,0.0,0.0,0.0,0.0,0.0,0.0,0.0,-0.6996,-0.6927,-0.6831,-0.7014,-0.7055,-0.6901,-0.7022,-0.7029,-0.6871,-0.6809,-0.6934,0.0,0.0,0.0,-0.895,-0.9897,-1.0794,0.0,-1.1638,0.0,0.0,0.0,0.0,0.0,-1.0869,-1.1649,-1.2556,-1.1631,-1.1696,-1.2096,-1.0687,-0.9772,-0.9221,-0.9152,-0.8793,-0.8338,-0.8162,-0.815,0.0,0.0,0.0,0.0,0.0,0.0,0.0,0.0,0.0,0.0,0.0,0.0,0.0,0.0,0.0,0.0,0.0,0.0,0.0,0.0,0.0,0.0,0.0,0.0,0.0,0.0,0.0,0.0,0.0,0.0,0.0,0.0,0.0,-3.1705,-3.1705,-3.1705,-3.1705,-3.1705,-3.1705,-3.1705,-3.1705,-3.1705,-3.1705,-3.1705,-3.1705,-3.1705,-3.1705,-3.1705,-3.1705,-3.1705,-3.1705,-3.1705,-3.1705,-3.1705,-3.1705,-3.1705,-3.1705,-3.1705,-3.1705,-3.1705,-3.1705,-3.1705,0.0,0.0,0.0,0.0,0.0,0.0,0.0,0.0,0.0,0.0,0.0,0.0,-0.7008,-0.7002,-0.6981,-0.6915,-0.6915,-0.6816,-0.6626,-0.6461,-0.6354,-0.6338,-0.6114,0.0,-0.5972,-0.5902,-0.6041,0.0,0.0,0.0,-0.8723,-0.9368,-1.025,-1.1338,-1.1913,-1.2015,-1.1781,0.0,0.0,0.0,0.0,-1.2381,-1.3082,-1.3074,-1.3177,0.0,0.0,0.0,-1.0371,-1.0134,-0.9639,-0.902,-0.8326,-0.815,-0.8204,0.0,0.0,0.0,0.0,0.0,0.0,0.0,0.0,0.0,0.0,0.0,0.0,0.0,0.0,0.0,0.0,0.0,0.0,0.0,0.0,0.0,0.0,0.0,0.0,0.0,0.0,0.0,0.0,0.0,0.0,0.0,0.0,-3.1705,-3.1705,-3.1705,-3.1705,-3.1705,-3.1705,-3.1705,-3.1705,-3.1705,-3.1705,-3.1705,-3.1705,-3.1705,-3.1705,-3.1705,-3.1705,-3.1705,-3.1705,-3.1705,-3.1705,-3.1705,-3.1705,-3.1705,-3.1705,-3.1705,-3.1705,-3.1705,-3.1705,-3.1705,0.0,0.0,0.0,0.0,0.0,0.0,0.0,0.0,0.0,0.0,0.0,0.0,0.0,-0.6801,-0.6732,-0.6701,-0.6589,-0.6475,-0.636,-0.6191,-0.6091,-0.6044,-0.5951,-0.5888,-0.5834,-0.5811,0.0,0.0,0.0,-0.7289,-0.8085,-0.8933,-0.9725,-1.0421,-1.1,-1.1427,-1.1713,-1.1285,0.0,0.0,0.0,0.0,0.0,0.0,0.0,0.0,0.0,0.0,0.0,-1.2916,-1.1856,-1.0679,-0.999,-0.9228,-0.861,0.0,0.0,0.0,0.0,0.0,0.0,0.0,0.0,0.0,0.0,0.0,0.0,0.0,0.0,0.0,0.0,0.0,0.0,0.0,0.0,0.0,0.0,0.0,0.0,0.0,0.0,0.0,0.0,0.0,0.0,0.0,0.0,0.0,-3.1705,-3.1705,-3.1705,-3.1705,-3.1705,-3.1705,-3.1705,-3.1705,-3.1705,-3.1705,-3.1705,-3.1705,-3.1705,-3.1705,-3.1705,-3.1705,-3.1705,-3.1705,-3.1705,-3.1705,-3.1705,-3.1705,-3.1705,-3.1705,-3.1705,-3.1705,-3.1705,-3.1705,0.0,0.0,0.0,0.0,0.0,0.0,0.0,0.0,0.0,0.0,0.0,0.0,0.0,0.0,-0.6835,-0.6771,-0.6546,-0.6364,-0.63,-0.609,-0.5943,-0.5904,-0.5888,-0.585,-0.5796,-0.5796,-0.5906,0.0,0.0,0.0,0.0,-0.8243,-0.8963,-0.9621,-0.9913,-1.0576,0.0,0.0,0.0,-1.1633,0.0,0.0,-1.58,0.0,0.0,0.0,0.0,0.0,0.0,0.0,0.0,0.0,0.0,0.0,0.0,0.0,0.0,0.0,0.0,0.0,0.0,0.0,0.0,0.0,0.0,0.0,0.0,0.0,0.0,0.0,0.0,0.0,0.0,0.0,0.0,0.0,0.0,0.0,0.0,0.0,0.0,0.0,0.0,0.0,0.0,0.0,0.0,0.0,-3.1451,-3.154,-3.1617,-3.1705,-3.1705,-3.1705,-3.1705,-3.1705,-3.1705,-3.1705,-3.1705,-3.1705,-3.1705,-3.1705,-3.1705,-3.1705,-3.1705,-3.1705,-3.1705,-3.1705,-3.1705,-3.1705,-3.1705,-3.1705,-3.1705,-3.1705,-3.1705,-3.1705,0.0,0.0,0.0,0.0,0.0,0.0,0.0,0.0,0.0,-0.6774,0.0,0.0,0.0,0.0,0.0,-0.7108,-0.6792,-0.6558,-0.6499,-0.6123,-0.5896,-0.5888,-0.5834,-0.5796,-0.5796,-0.5796,-0.5796,0.0,0.0,0.0,0.0,0.0,-0.7951,-0.8933,-0.8742,-0.9505,-1.0939,0.0,-1.1559,-1.2012,0.0,-1.4956,-1.6746,0.0,0.0,0.0,-1.8992,-1.848,0.0,0.0,0.0,0.0,0.0,0.0,0.0,0.0,0.0,0.0,0.0,0.0,0.0,0.0,0.0,0.0,0.0,0.0,0.0,0.0,0.0,0.0,0.0,0.0,0.0,0.0,0.0,0.0,0.0,0.0,0.0,0.0,0.0,0.0,0.0,0.0,0.0,0.0,0.0,-3.0949,-3.096,-3.1172,-3.1439,-3.1661,-3.1705,-3.1705,-3.1705,-3.1705,-3.1705,-3.1705,-3.1705,-3.1705,-3.1705,-3.1705,-3.1705,-3.1705,-3.1705,-3.1705,-3.1705,-3.1705,-3.1705,-3.1705,-3.1705,-3.1705,-3.1705,-3.1705,-3.1705,-3.1705,0.0,0.0,0.0,0.0,0.0,0.0,0.0,0.0,0.0,0.0,0.0,0.0,-0.7493,-0.7406,-0.7254,-0.7051,-0.6724,-0.6424,-0.6159,-0.6025,-0.5866,-0.5615,-0.5592,-0.5585,-0.5585,-0.5585,-0.5585,0.0,0.0,0.0,0.0,0.0,0.0,0.0,-0.7745,-0.8275,-0.9104,-0.9887,0.0,0.0,-1.3014,-1.4504,0.0,0.0,0.0,0.0,0.0,-2.0842,0.0,0.0,-1.8313,-1.6711,0.0,0.0,0.0,0.0,0.0,0.0,-0.9421,0.0,0.0,0.0,0.0,0.0,0.0,0.0,0.0,0.0,0.0,0.0,0.0,0.0,0.0,0.0,0.0,0.0,0.0,0.0,0.0,0.0,0.0,0.0,0.0,0.0,0.0,0.0,-2.9675,-2.9997,-3.0417,-3.0971,-3.1273,-3.1196,-3.154,-3.1617,-3.1395,-3.1617,-3.1705,-3.1705,-3.1705,-3.1705,-3.1705,-3.1705,-3.1705,-3.1705,-3.1705,-3.1705,-3.1705,-3.1705,-3.1705,-3.1705,-3.1705,-3.1705,-3.1705,-3.1705,-3.1705,-3.1705,0.0,0.0,0.0,0.0,0.0,0.0,0.0,0.0,0.0,0.0,0.0,0.0,-0.7842,-0.7808,-0.7644,-0.7349,-0.7033,-0.6649,-0.6233,-0.6079,-0.5851,-0.5505,-0.5491,-0.5491,-0.5491,-0.5491,-0.5491,0.0,0.0,0.0,0.0,0.0,0.0,0.0,0.0,0.0,0.0,0.0,0.0,0.0,-1.3028,0.0,0.0,-1.8663,-1.9889,0.0,0.0,0.0,-2.1598,-2.1024,-1.9463,0.0,0.0,0.0,0.0,0.0,0.0,0.0,0.0,0.0,0.0,0.0,0.0,0.0,0.0,-1.959,0.0,0.0,0.0,0.0,0.0,0.0,0.0,0.0,0.0,0.0,0.0,0.0,0.0,0.0,0.0,0.0,0.0,0.0,0.0,-2.8638,-2.8939,-2.9312,-2.9714,-3.0338,-3.0676,-3.0687,-3.1166,-3.1318,-3.1184,-3.1395,-3.1496,-3.1407,-3.1496,-3.1496,-3.1407,-3.1484,-3.1528,-3.1528,-3.1661,-3.1705,-3.1705,-3.1705,-3.1705,-3.1705,-3.1705,-3.1705,-3.1705,-3.1705,-3.1705,-3.1705,0.0,0.0,0.0,0.0,0.0,0.0,0.0,0.0,0.0,0.0,-0.8266,-0.8478,-0.8478,-0.8454,-0.8318,-0.7939,-0.7549,-0.7106,-0.6593,-0.6212,-0.5867,-0.5545,-0.5496,-0.5475,-0.5475,-0.5475,-0.5475,0.0,0.0,0.0,0.0,0.0,0.0,0.0,0.0,0.0,0.0,0.0,0.0,-1.1662,-1.31,-1.4796,0.0,0.0,-1.9866,0.0,-2.1454,-2.2087,-2.2662,-2.2173,-2.0347,0.0,0.0,0.0,0.0,0.0,-1.1007,0.0,0.0,0.0,0.0,0.0,0.0,0.0,-1.6493,-1.8414,-2.027,0.0,0.0,0.0,0.0,0.0,0.0,0.0,0.0,0.0,0.0,0.0,0.0,0.0,0.0,0.0,0.0,-2.7633,-2.7897,-2.7897,-2.8344,-2.8717,-2.8955,-2.9462,-2.9852,-3.0118,-3.0643,-3.0913,-3.0972,-3.1184,-3.1184,-3.0984,-3.1184,-3.1184,-3.1029,-3.1184,-3.1261,-3.1261,-3.1528,-3.1617,-3.1661,-3.1661,-3.1661,-3.1705,-3.1705,-3.1705,-3.1705,-3.1705,-3.1705,-3.1705,-0.5596,0.0,0.0,0.0,0.0,0.0,0.0,0.0,0.0,0.0,-0.8644,-0.901,-0.8889,-0.8889,-0.881,-0.8627,-0.7899,-0.7293,-0.6922,-0.6436,-0.601,-0.5672,-0.5453,-0.534,-0.534,-0.534,-0.534,0.0,0.0,0.0,0.0,0.0,0.0,0.0,0.0,0.0,0.0,0.0,0.0,-1.1251,-1.2928,0.0,-1.679,-1.8077,-1.9209,-2.0212,-2.0898,-2.1588,-2.2129,0.0,-2.0536,-1.9335,0.0,0.0,0.0,0.0,0.0,0.0,0.0,0.0,0.0,0.0,0.0,0.0,-1.412,-1.5745,-1.7285,0.0,0.0,0.0,0.0,0.0,0.0,0.0,0.0,0.0,0.0,0.0,0.0,0.0,0.0,0.0,0.0,-2.7282,-2.738,-2.738,-2.7839,-2.8169,-2.8211,-2.8866,-2.9372,-2.9614,-3.0103,-3.0481,-3.0668,-3.0916,-3.1017,-3.0984,-3.1017,-3.1017,-3.0984,-3.1017,-3.1062,-3.1062,-3.1107,-3.1229,-3.1395,-3.1395,-3.1484,-3.1705,-3.1705,-3.1705,-3.1705,-3.1705,-3.1705,-3.1705,-0.5897,0.0,0.0,0.0,0.0,0.0,0.0,0.0,0.0,-0.8588,-0.9126,-0.9432,-0.9349,-0.9349,-0.9268,-0.9011,-0.8611,-0.8103,-0.7493,-0.7075,-0.6633,-0.6172,-0.5731,-0.5498,-0.5498,-0.5373,-0.5293,0.0,0.0,0.0,0.0,0.0,0.0,0.0,0.0,0.0,0.0,0.0,-1.0001,-1.1776,-1.3068,0.0,-1.6492,-1.7774,-1.8942,-1.9985,-2.0718,-2.1454,-2.2069,-2.1713,-2.0973,0.0,0.0,-1.8467,-1.7486,0.0,-1.5111,-1.4591,0.0,0.0,0.0,-1.2388,0.0,0.0,0.0,-1.5127,-1.6002,0.0,0.0,0.0,0.0,0.0,0.0,0.0,0.0,0.0,0.0,0.0,0.0,0.0,0.0,0.0,0.0,-2.719,-2.719,-2.719,-2.7461,-2.761,-2.761,-2.8218,-2.861,-2.8735,-2.9225,-2.9639,-3.0027,-3.0306,-3.0479,-3.0601,-3.0736,-3.0736,-3.0601,-3.0736,-3.0781,-3.0826,-3.0927,-3.1062,-3.1139,-3.1139,-3.1229,-3.1362,-3.1629,-3.1705,-3.1705,-3.1705,-3.1705,-3.1705,-0.6066,0.0,0.0,0.0,0.0,0.0,0.0,0.0,0.0,-0.9062,-0.9517,-0.9786,-0.9876,-0.993,0.0,-0.965,-0.9577,-0.9204,0.0,0.0,0.0,-0.6874,-0.6226,-0.5878,-0.5878,-0.5538,-0.538,-0.538,0.0,0.0,0.0,0.0,0.0,0.0,0.0,0.0,0.0,0.0,0.0,-1.2563,0.0,-1.4744,-1.6222,-1.7305,-1.8627,-2.0031,-2.0907,-2.1544,-2.2008,-2.2008,0.0,-2.0644,-2.0241,-1.9719,0.0,0.0,0.0,0.0,0.0,0.0,0.0,0.0,0.0,-1.37,0.0,0.0,0.0,-1.6272,0.0,0.0,0.0,0.0,0.0,0.0,0.0,0.0,0.0,0.0,0.0,0.0,0.0,0.0,0.0,-2.7097,-2.719,-2.719,-2.719,-2.719,-2.719,-2.761,-2.7885,-2.7977,-2.8356,-2.8815,-2.9343,-2.96,-2.9854,-3.0078,-3.0396,-3.0397,-3.0216,-3.0442,-3.0532,-3.0532,-3.0736,-3.0883,-3.0927,-3.0927,-3.0927,-3.1017,-3.1451,-3.1617,-3.1617,-3.1661,-3.1705,-3.1705,-0.5658,-0.5798,0.0,0.0,0.0,0.0,0.0,0.0,0.0,-0.8956,-0.9639,0.0,0.0,0.0,0.0,0.0,0.0,0.0,-0.9877,0.0,0.0,0.0,-0.6954,-0.6493,-0.6493,-0.5945,-0.5665,-0.5665,0.0,0.0,0.0,0.0,0.0,0.0,-0.7789,0.0,0.0,0.0,-1.257,0.0,-1.4232,-1.5397,0.0,-1.6416,-1.7878,-2.0076,-2.1499,-2.1874,-2.1741,0.0,-2.1676,-2.1476,0.0,-2.1172,0.0,0.0,0.0,0.0,0.0,0.0,0.0,0.0,-1.4093,0.0,0.0,0.0,-1.3543,-1.3737,0.0,0.0,0.0,0.0,0.0,0.0,0.0,0.0,0.0,0.0,0.0,0.0,0.0,0.0,0.0,0.0,-2.719,-2.719,-2.719,-2.719,-2.719,-2.7247,-2.7518,-2.7966,-2.8035,-2.8299,-2.8792,-2.9307,-2.9571,-2.9584,-3.0009,-3.0216,-3.0216,-3.0216,-3.0261,-3.0261,-3.0261,-3.0442,-3.0623,-3.0623,-3.0781,-3.1029,-3.1261,-3.135,-3.1395,-3.1617,-3.1705,-3.1705,-0.5261,-0.5535,0.0,0.0,0.0,0.0,0.0,0.0,0.0,-0.9236,-0.9977,0.0,0.0,0.0,0.0,0.0,0.0,-1.1577,0.0,0.0,0.0,0.0,0.0,0.0,0.0,-0.6526,-0.6059,-0.5694,-0.5591,0.0,0.0,0.0,0.0,0.0,-0.8312,0.0,-1.0194,0.0,0.0,0.0,0.0,0.0,0.0,-1.6843,-1.8427,-2.0447,-2.1508,-2.1785,-2.1696,0.0,-2.1696,0.0,0.0,0.0,0.0,0.0,0.0,0.0,0.0,0.0,0.0,0.0,0.0,0.0,0.0,0.0,-1.2891,0.0,0.0,0.0,0.0,0.0,0.0,0.0,0.0,0.0,0.0,0.0,0.0,0.0,0.0,0.0,0.0,0.0,0.0,0.0,0.0,-2.719,-2.719,-2.719,-2.7282,-2.7541,-2.7552,-2.7782,-2.8276,-2.8781,-2.9194,-2.9504,-2.9986,-3.0216,-3.0216,-3.0216,-3.0216,-3.0216,-3.0216,-3.0261,-3.0352,-3.0352,-3.0442,-3.0544,-3.0814,-3.1071,-3.135,-3.1617,-3.1705,-3.1705,-0.4741,0.0,0.0,0.0,0.0,0.0,0.0,0.0,0.0,0.0,0.0,0.0,-1.1323,-1.1839,0.0,0.0,0.0,-1.2632,0.0,0.0,-1.1022,0.0,0.0,0.0,0.0,0.0,-0.658,-0.6054,-0.5912,-0.5742,0.0,0.0,0.0,0.0,0.0,-1.0207,-1.1336,0.0,0.0,-1.4489,-1.4997,-1.5606,-1.6334,-1.7323,-1.8519,-1.9803,-2.0628,-2.1087,-2.132,-2.132,-2.1508,0.0,-2.1696,0.0,0.0,0.0,0.0,0.0,-1.843,0.0,0.0,0.0,0.0,0.0,0.0,0.0,0.0,0.0,0.0,0.0,0.0,0.0,0.0,0.0,0.0,0.0,0.0,0.0,0.0,0.0,0.0,0.0,0.0,0.0,0.0,0.0,-2.6903,-2.7041,-2.7179,-2.719,-2.719,-2.719,-2.719,-2.7403,-2.777,-2.8253,-2.8769,-2.9286,-2.9791,-3.0089,-3.0216,-3.0216,-3.0216,-3.0216,-3.0216,-3.0216,-3.0216,-3.0216,-3.0216,-3.0216,-3.0487,-3.0802,-3.1172,-3.1484,-3.1617,-3.1705,-0.4016,-0.4456,0.0,0.0,0.0,0.0,0.0,0.0,0.0,0.0,0.0,0.0,0.0,0.0,0.0,0.0,0.0,-1.3781,-1.3206,0.0,-1.2455,0.0,0.0,-0.9913,0.0,0.0,0.0,-0.696,-0.6432,-0.6176,0.0,0.0,0.0,0.0,0.0,-1.1042,-1.2013,-1.4077,-1.5084,-1.5384,-1.5678,-1.6365,-1.7264,0.0,-1.7598,-1.7559,-1.8519,0.0,0.0,-2.0339,-2.0943,0.0,0.0,0.0,0.0,0.0,0.0,0.0,0.0,0.0,0.0,-1.7642,0.0,0.0,0.0,0.0,-1.3268,0.0,0.0,0.0,0.0,0.0,0.0,-1.1651,0.0,0.0,0.0,0.0,0.0,0.0,0.0,0.0,0.0,0.0,0.0,-2.5372,-2.613,-2.6703,-2.7167,-2.719,-2.719,-2.719,-2.719,-2.7201,-2.7213,-2.7759,-2.8253,-2.8723,-2.9263,-2.9768,-3.0216,-3.0216,-3.0216,-3.0216,-3.0216,-3.0216,-3.0216,-3.0216,-3.0216,-3.0216,-3.0487,-3.0623,-3.0668,-3.1116,-3.1484,-3.1705,0.0,0.0,0.0,0.0,0.0,0.0,0.0,-0.7832,0.0,0.0,0.0,0.0,0.0,0.0,-1.338,0.0,0.0,-1.4001,-1.3801,-1.3507,0.0,0.0,0.0,-1.1243,0.0,0.0,0.0,-0.7916,-0.7121,-0.6633,0.0,0.0,0.0,0.0,0.0,-1.1109,0.0,0.0,0.0,0.0,0.0,-1.6015,-1.6393,0.0,0.0,-1.8334,-1.8703,-1.9018,0.0,-2.0068,-2.0529,-2.0898,-2.1499,-2.1696,-2.1604,-2.1236,-2.1007,0.0,0.0,0.0,-1.9971,-1.8632,0.0,0.0,0.0,0.0,0.0,0.0,0.0,0.0,0.0,0.0,-1.234,-1.1288,-1.121,0.0,0.0,0.0,0.0,0.0,0.0,0.0,0.0,0.0,0.0,-2.521,-2.6325,-2.7047,0.0,-2.719,-2.719,-2.719,-2.719,-2.719,-2.719,-2.7725,-2.8057,-2.823,-2.9091,-2.9584,-2.9757,-3.0078,-3.0216,-3.0216,-3.0216,-3.0216,-3.0216,-3.0216,-3.0216,-3.0216,-3.0306,-3.0544,-3.0916,-3.1172,-3.135,-3.1439,-0.4115,0.0,0.0,0.0,0.0,0.0,0.0,0.0,0.0,0.0,-1.118,0.0,-1.2817,0.0,-1.3846,0.0,-1.4246,-1.4439,-1.4439,-1.4222,0.0,-1.3841,-1.3253,0.0,0.0,0.0,0.0,0.0,-0.8096,-0.7402,-0.6921,0.0,0.0,0.0,0.0,0.0,0.0,0.0,-1.4792,0.0,0.0,-1.5784,0.0,0.0,-1.7178,-1.7723,0.0,-1.8187,-1.888,-1.9567,-2.0212,-2.0898,-2.1508,-2.1696,-2.1641,-2.141,-2.1328,-2.1273,-2.0982,-2.1025,0.0,-1.965,-1.9136,0.0,-1.7092,0.0,0.0,0.0,0.0,0.0,0.0,0.0,0.0,-1.1513,-1.1094,-1.068,0.0,-1.027,0.0,0.0,0.0,0.0,0.0,0.0,-2.2663,-2.4216,-2.5436,-2.6325,0.0,0.0,-2.719,-2.719,-2.719,-2.719,-2.719,-2.7552,-2.7805,-2.7989,-2.8815,-2.932,-2.9515,-2.9998,-3.0216,-3.0216,-3.0216,-3.0216,-3.0216,-3.0216,-3.0216,-3.0216,-3.0216,-3.0408,-3.0736,-3.1095,-3.1318,-3.1484,0.0,0.0,0.0,0.0,-0.4832,0.0,0.0,0.0,-0.9109,0.0,-1.1649,-1.2612,-1.36,-1.3952,-1.4263,-1.459,-1.4867,0.0,-1.5008,-1.5022,0.0,0.0,-1.4442,-1.4008,-1.3653,0.0,0.0,0.0,0.0,0.0,-0.7553,0.0,0.0,0.0,-0.8785,0.0,-1.2298,-1.3174,-1.4419,-1.5784,-1.5784,-1.5784,-1.5784,-1.5784,-1.5784,-1.5784,-1.5784,-1.7037,-1.865,-1.8696,-1.9985,-2.1553,-2.1597,-2.1651,-2.1696,-2.1696,-2.1696,-2.1696,-2.1696,-2.1403,-2.1044,-2.0649,0.0,0.0,0.0,0.0,-1.8182,0.0,0.0,0.0,0.0,0.0,0.0,-1.2358,-1.1458,-1.08,-1.0401,0.0,0.0,0.0,0.0,0.0,0.0,-1.7686,-1.9201,-2.2352,-2.3569,0.0,0.0,0.0,-2.7167,-2.719,-2.719,-2.719,-2.719,-2.719,-2.7472,-2.7954,-2.8436,-2.8941,-2.9481,-2.9963,-3.0193,-3.0216,-3.0216,-3.0216,-3.0216,-3.0216,-3.0216,-3.0216,-3.0216,-3.0216,-3.0261,-3.0793,-3.1273,-3.1673,-0.4406,-0.444,-0.4651,0.0,-0.5392,-0.5774,0.0,0.0,0.0,0.0,-1.1905,-1.3189,-1.3983,-1.4325,-1.4568,-1.4854,-1.4963,0.0,0.0,0.0,0.0,-1.5022,-1.5023,-1.4823,-1.4259,-1.3453,0.0,-1.1457,0.0,0.0,-0.8154,0.0,0.0,0.0,0.0,0.0,-1.1403,-1.2549,-1.4082,-1.5784,-1.5784,-1.5784,0.0,0.0,-1.5784,-1.5784,-1.5784,-1.6109,-1.6662,-1.7412,-1.8519,-1.9666,-2.0439,-2.1132,-2.1696,-2.1696,-2.1696,-2.1696,-2.1696,-2.1614,-2.1431,-2.1062,-2.0576,-2.0108,0.0,0.0,0.0,0.0,0.0,0.0,0.0,0.0,0.0,0.0,0.0,0.0,0.0,0.0,0.0,0.0,0.0,0.0,0.0,-1.694,-1.8766,-2.1185,-2.251,0.0,0.0,0.0,0.0,-2.7179,-2.719,-2.719,-2.719,-2.719,-2.7259,-2.7426,-2.7931,-2.8425,-2.8919,-2.9447,-2.9883,-3.0216,-3.0216,-3.0216,-3.0216,-3.0216,-3.0216,-3.0216,-3.0216,-3.0306,-3.0532,-3.0623,-3.0916,-3.1196,-0.4691,0.0,0.0,-0.5351,0.0,0.0,-0.6504,0.0,0.0,-1.0701,-1.2397,0.0,-1.413,-1.4461,-1.4702,-1.5015,-1.516,0.0,0.0,0.0,0.0,-1.5351,-1.5498,-1.5431,-1.5097,-1.4522,0.0,-1.2288,0.0,0.0,-0.8389,0.0,0.0,0.0,0.0,-0.938,0.0,-1.2978,-1.4462,-1.5651,-1.5731,0.0,0.0,-1.5784,-1.5784,-1.5784,-1.5784,-1.6062,-1.6527,-1.7099,-1.7971,-1.888,-1.9476,-2.0303,-2.1087,-2.1087,-2.1365,-2.1696,-2.1696,-2.1696,-2.1632,-2.1403,-2.1174,-2.0955,-2.0726,-2.068,-2.0735,0.0,0.0,0.0,0.0,0.0,0.0,0.0,0.0,0.0,0.0,0.0,0.0,0.0,0.0,0.0,0.0,0.0,0.0,0.0,0.0,0.0,0.0,0.0,0.0,-2.6887,-2.6673,-2.6787,-2.719,-2.6787,-2.6787,-2.7201,-2.7736,-2.823,-2.8723,-2.9251,-2.9768,-3.0216,-3.0216,-3.0216,-3.0216,-3.0216,-3.0216,-3.0216,-3.0216,-3.0306,-3.0442,-3.0442,-3.0679,-3.1029,0.0,0.0,0.0,0.0,0.0,0.0,0.0,-0.8952,0.0,-1.1169,0.0,-1.4201,-1.4257,-1.4481,-1.4722,-1.5064,0.0,-1.5547,-1.5689,-1.5689,-1.5689,-1.5689,-1.573,-1.5778,-1.5778,-1.5331,0.0,0.0,0.0,0.0,0.0,0.0,0.0,0.0,0.0,0.0,0.0,-1.3842,-1.5084,0.0,-1.5732,-1.5784,-1.5784,-1.5784,-1.5784,-1.5784,-1.5784,-1.6346,-1.7091,-1.7091,-1.7785,-1.8603,-1.8603,-1.9384,-2.0249,-2.0158,-2.0853,-2.1687,-2.1553,-2.1597,-2.1696,-2.1696,-2.1696,-2.1696,-2.1696,-2.1696,-2.1696,-2.1696,-2.1129,-2.0539,0.0,0.0,0.0,0.0,0.0,0.0,0.0,0.0,0.0,0.0,0.0,0.0,0.0,0.0,0.0,0.0,0.0,0.0,0.0,0.0,0.0,-2.6565,-2.6211,0.0,-2.7015,0.0,-2.631,-2.7015,-2.7626,-2.8138,-2.862,-2.9148,-2.9665,-3.0124,-3.0181,-3.0216,-3.0216,-3.0216,-3.0216,-3.0216,-3.0216,-3.0216,-3.0216,-3.0216,-3.0499,-3.0883,0.0,0.0,0.0,0.0,0.0,-0.6859,-0.7292,-0.9156,-1.0659,-1.0997,-1.2763,-1.4123,-1.4541,-1.4667,-1.4787,-1.5077,-1.5131,0.0,0.0,0.0,0.0,-1.5226,-1.5452,-1.554,-1.554,-1.5631,-1.4957,0.0,0.0,0.0,0.0,0.0,0.0,0.0,0.0,0.0,-1.2171,-1.3627,0.0,-1.5711,-1.5758,-1.5784,-1.5784,-1.5784,-1.5784,-1.5784,-1.5784,-1.592,-1.6062,-1.6062,-1.6716,-1.7559,-1.7559,-1.8834,-2.0158,-1.9293,-2.0311,-2.1553,-2.0763,-2.1132,-2.1696,-2.1696,-2.1696,-2.1696,-2.1696,-2.1696,-2.1696,-2.1696,-2.1577,-2.1257,-2.0515,0.0,0.0,0.0,0.0,0.0,0.0,0.0,0.0,0.0,0.0,0.0,0.0,0.0,0.0,0.0,0.0,0.0,0.0,0.0,0.0,0.0,-2.701,0.0,0.0,0.0,-2.6663,-2.6049,-2.693,-2.7621,-2.8126,-2.8609,-2.9125,-2.9642,-3.0044,-3.0216,-3.0216,-3.0216,-3.0216,-3.0216,-3.0216,-3.0216,-3.0216,-3.0216,-3.0261,-3.0363,0.0,0.0,0.0,0.0,0.0,0.0,0.0,-0.8993,0.0,-1.1005,-1.2464,-1.3719,-1.443,-1.449,-1.4592,-1.4885,-1.4885,-1.4939,-1.5083,-1.5083,-1.5178,-1.5315,-1.5445,0.0,-1.5635,-1.5737,-1.5065,-1.36,0.0,0.0,0.0,0.0,0.0,0.0,0.0,-1.0641,0.0,0.0,0.0,-1.5618,-1.5718,-1.5784,-1.5784,-1.5784,-1.5784,-1.5784,-1.5784,-1.5784,-1.5784,-1.5784,-1.6109,-1.6534,-1.6534,-1.7544,-1.8657,-1.8149,-1.9063,-2.0076,-1.9658,-1.9849,-2.0311,-2.0853,-2.0988,-2.1087,-2.1597,-2.1696,-2.1696,-2.1696,-2.1696,-2.1568,-2.1174,-2.0328,0.0,0.0,0.0,0.0,0.0,0.0,0.0,0.0,0.0,0.0,0.0,0.0,0.0,0.0,0.0,0.0,0.0,0.0,0.0,0.0,0.0,0.0,0.0,0.0,0.0,-2.6528,-2.6962,-2.7495,-2.8042,-2.8482,-2.8987,-2.9527,-3.0009,-3.0216,-3.0216,-3.0216,-3.0216,-3.0216,-3.0216,-3.0216,-3.0216,-3.0216,-3.0216,-3.0216,0.0,-0.6536,0.0,0.0,-0.7163,0.0,-0.7621,-0.8542,-0.9706,-1.1023,-1.2242,-1.3318,-1.4196,-1.4298,-1.4394,-1.4592,-1.4592,-1.4688,-1.4939,-1.4933,-1.5029,-1.5255,-1.5302,-1.5397,-1.5547,-1.5642,-1.5021,0.0,0.0,0.0,0.0,0.0,0.0,0.0,0.0,0.0,0.0,0.0,-1.5209,-1.5504,-1.5684,-1.5784,-1.5784,-1.5784,-1.5784,-1.5784,-1.5784,-1.5784,-1.5784,-1.5784,-1.5784,-1.5784,-1.5784,-1.648,-1.7286,-1.7044,-1.7824,-1.8742,-1.8565,-1.8657,-1.8972,-1.9795,-2.0158,-2.0484,-2.1221,-2.1553,-2.1696,-2.1696,-2.1696,-2.1696,-2.1696,-2.1165,0.0,0.0,0.0,0.0,0.0,0.0,0.0,0.0,0.0,0.0,0.0,0.0,0.0,0.0,0.0,0.0,0.0,0.0,0.0,0.0,0.0,-2.5263,-2.688,0.0,-2.6174,0.0,-2.7097,-2.7438,-2.7839,-2.8425,-2.893,-2.9355,-2.9963,-3.0216,-3.0216,-3.0216,-3.0216,-3.0216,-3.0216,-3.0216,-3.0216,-3.0216,-3.0216,-3.0216,0.0,0.0,0.0,0.0,0.0,0.0,0.0,-0.7982,-0.8874,-1.093,-1.2096,-1.3119,-1.4202,-1.4298,-1.4298,-1.4346,-1.4346,-1.4346,-1.4394,-1.4394,-1.4394,-1.4394,-1.464,-1.4783,-1.4783,-1.5029,-1.4818,0.0,0.0,0.0,0.0,0.0,0.0,0.0,0.0,0.0,0.0,-1.472,-1.5284,-1.5744,-1.5771,-1.5784,-1.5784,-1.5784,-1.5784,-1.5784,-1.5784,-1.5784,-1.5784,-1.5784,-1.5784,-1.5784,-1.5784,-1.648,-1.7138,-1.6204,-1.7311,-1.8603,-1.7692,-1.8102,-1.8834,-1.8934,-1.9613,-2.0294,-2.0393,-2.1087,-2.1696,-2.1696,-2.1696,-2.1696,-2.1696,-2.1632,-2.1577,0.0,0.0,0.0,0.0,0.0,0.0,0.0,0.0,0.0,0.0,0.0,0.0,0.0,0.0,0.0,0.0,0.0,0.0,-2.5723,0.0,-2.4956,-2.5913,-2.5819,0.0,-2.5955,-2.6787,-2.7213,-2.7293,-2.8276,-2.8723,-2.8827,-2.9802,-3.0216,-3.0216,-3.0216,-3.0216,-3.0216,-3.0216,-3.0216,-3.0216,-3.0216,-3.0216,-3.0216,0.0,0.0,0.0,0.0,0.0,0.0,0.0,-0.7951,-0.8531,-1.0047,-1.0583,-1.1463,-1.3173,-1.3318,-1.3613,-1.4244,-1.4298,-1.4298,-1.4298,-1.4298,-1.4394,-1.4544,-1.464,-1.479,-1.4933,-1.5035,-1.481,0.0,0.0,0.0,0.0,0.0,0.0,0.0,0.0,-1.3597,-1.47,-1.5237,-1.5618,-1.5784,-1.5784,-1.5784,-1.5784,-1.5784,-1.5784,-1.5784,-1.5784,-1.5784,-1.5784,-1.5784,-1.5784,-1.5784,-1.5784,-1.6062,-1.6298,-1.592,-1.6386,-1.6897,-1.6527,-1.6709,-1.7124,-1.7738,-1.8195,-1.8657,-1.9247,-1.9712,-2.0121,-2.0718,-2.132,-2.1696,-2.1696,-2.1696,-2.1696,0.0,0.0,0.0,0.0,0.0,0.0,0.0,0.0,0.0,0.0,0.0,0.0,0.0,0.0,0.0,0.0,0.0,0.0,-2.4607,0.0,-2.4339,-2.5788,-2.5777,-2.5777,-2.5819,-2.6745,-2.719,-2.7213,-2.7954,-2.8597,-2.9217,-2.9917,-3.0216,-3.0216,-3.0216,-3.0216,-3.0216,-3.0216,-3.0216,-3.0216,-3.0216,-3.0216,-3.0261,-0.7439,0.0,-0.7616,0.0,-0.7781,-0.7916,-0.7975,-0.7988,-0.8283,-0.9019,-0.9118,-1.0047,-1.2436,-1.2436,-1.2829,-1.4196,-1.4004,-1.395,-1.4298,-1.4298,-1.4394,-1.4592,-1.4592,0.0,-1.4838,-1.4838,-1.465,-1.421,-1.3743,0.0,0.0,0.0,0.0,0.0,-1.3558,-1.4273,-1.5068,-1.5423,-1.5594,-1.5594,-1.5594,-1.5594,-1.5594,-1.5594,-1.5642,-1.5683,-1.5642,-1.5642,-1.573,-1.573,-1.573,-1.5737,-1.5784,-1.5784,-1.5784,-1.5784,-1.5784,-1.5784,-1.5784,-1.5784,-1.5967,-1.6676,-1.7091,-1.7512,-1.8195,-1.8611,-1.9018,-1.9704,-2.0628,-2.1275,-2.1275,-2.1508,-2.1696,-2.1696,0.0,0.0,0.0,0.0,0.0,0.0,0.0,-2.1621,-2.1512,0.0,0.0,0.0,0.0,0.0,0.0,0.0,0.0,0.0,0.0,0.0,0.0,-2.5147,-2.5263,-2.583,-2.6487,-2.6921,-2.7213,-2.7897,-2.8666,-2.9527,-3.0009,-3.0216,-3.0216,-3.0216,-3.0216,-3.0216,-3.0216,-3.0216,-3.0216,-3.0216,-3.0216,-3.0261,-0.7182,-0.7437,-0.759,-0.7593,-0.7839,-0.7988,-0.7988,-0.7988,-0.7988,-0.8041,-0.8041,-0.9213,-1.2339,-1.1804,-1.2047,-1.41,-1.3318,-1.3167,-1.425,-1.4298,-1.4298,0.0,0.0,-1.4298,-1.4298,-1.4298,-1.4292,-1.4286,0.0,0.0,-1.3392,0.0,-1.321,-1.3798,-1.4059,-1.4549,-1.5124,-1.5131,-1.5131,-1.5131,-1.5131,-1.5131,-1.5131,-1.5131,-1.5267,-1.5452,-1.522,-1.5267,-1.5493,-1.5493,-1.5493,-1.554,-1.573,-1.5784,-1.5784,-1.5784,-1.5784,-1.5784,-1.5784,-1.5784,-1.5784,-1.5825,-1.6574,-1.7279,-1.7326,-1.8102,-1.8788,-1.8834,-1.9613,-2.0294,-2.0294,-2.1087,-2.1696,-2.1696,0.0,0.0,0.0,0.0,0.0,0.0,-2.1696,-2.1696,-2.1687,0.0,0.0,0.0,0.0,0.0,0.0,0.0,0.0,-2.3076,-2.2201,0.0,-2.4498,-2.3617,-2.4029,-2.5777,-2.5819,-2.631,-2.7224,-2.8241,-2.8987,-2.9527,-3.0009,-3.0216,-3.0216,-3.0216,-3.0216,-3.0216,-3.0216,-3.0216,-3.0216,-3.0216,-3.0216,-3.0261,-0.7188,-0.7288,-0.7391,-0.7547,-0.7696,-0.7793,-0.7992,-0.7988,-0.7988,-0.7988,-0.7988,-0.8676,-1.0386,-1.0293,-1.0681,0.0,-1.1853,-1.2096,0.0,-1.3216,-1.3559,-1.425,-1.4298,-1.4298,-1.4298,-1.4298,-1.4298,-1.4298,0.0,0.0,0.0,-1.343,-1.3687,-1.4443,-1.4484,-1.4769,-1.5083,-1.5083,-1.5083,-1.5083,-1.5083,-1.5083,-1.5083,-1.5083,-1.5124,-1.522,-1.5131,-1.5124,-1.522,-1.522,-1.522,-1.522,-1.5315,-1.5452,-1.5588,-1.5588,-1.5452,-1.5315,-1.5315,-1.5452,-1.5547,-1.5363,-1.5689,-1.6015,-1.5832,-1.6662,-1.7537,-1.7738,-1.8557,-1.9476,-2.0158,-2.0529,-2.0952,-2.1597,-2.1696,0.0,0.0,0.0,0.0,0.0,0.0,-2.1696,0.0,-2.1385,0.0,0.0,0.0,0.0,0.0,0.0,0.0,0.0,-2.2061,0.0,-2.3531,-2.327,-2.3391,-2.3986,-2.5221,-2.631,-2.7224,-2.8253,-2.8792,-2.8999,-2.9848,-3.0216,-3.0216,-3.0216,-3.0216,-3.0216,-3.0216,-3.0216,-3.0216,-3.0216,-3.0216,-3.0261,-0.6889,-0.6989,-0.7141,-0.7391,-0.7543,-0.7696,-0.7942,-0.7988,-0.7988,-0.7988,-0.7988,-0.8237,-0.892,-0.9019,0.0,-1.1072,-1.0828,-1.1219,-1.263,-1.2678,-1.3167,-1.4244,-1.4298,-1.4298,-1.4298,0.0,0.0,-1.4298,-1.4135,-1.4051,-1.4051,-1.3888,-1.4078,-1.4544,-1.4544,-1.464,-1.479,-1.479,-1.479,-1.479,-1.479,-1.479,-1.479,-1.479,-1.4838,-1.4933,-1.4838,-1.4838,-1.4939,-1.4939,-1.4939,-1.4981,-1.5083,-1.5172,-1.5213,-1.5309,-1.522,-1.5083,-1.5083,-1.522,-1.5315,-1.5131,-1.522,-1.5309,-1.5267,-1.5825,-1.6426,-1.6669,-1.7451,-1.828,-1.8918,-1.9239,-1.9786,-2.0853,-2.0997,-2.1186,-2.1642,0.0,0.0,0.0,0.0,0.0,0.0,-2.1599,0.0,0.0,0.0,0.0,0.0,0.0,0.0,-2.2198,-2.1859,0.0,-2.3096,-2.2755,-2.3096,-2.4114,-2.5621,-2.661,-2.7224,-2.8253,-2.87,-2.8758,-2.9768,-3.0216,-3.0216,-3.0216,-3.0216,-3.0216,-3.0216,-3.0216,-3.0216,-3.0216,-3.0216,-3.0216,-0.6398,-0.6609,0.0,0.0,-0.7422,0.0,-0.7972,-0.8022,-0.8019,-0.8019,-0.8019,-0.8015,-0.8008,-0.8005,-0.8836,-1.0779,0.0,0.0,0.0,-1.2484,-1.2974,-1.4148,-1.4202,-1.4202,-1.4298,-1.4298,-1.4298,-1.4298,-1.4298,-1.4298,-1.4298,-1.4298,-1.4298,-1.4298,-1.4298,-1.4298,-1.4298,-1.4298,-1.4298,-1.4298,-1.4298,-1.4298,-1.4298,-1.4298,-1.4442,-1.464,-1.4394,-1.4442,-1.4688,-1.4688,-1.4688,-1.4742,-1.4981,-1.4885,-1.4736,-1.4987,-1.5083,-1.5035,-1.5035,-1.5083,-1.5083,-1.5035,-1.5035,-1.5124,-1.5404,-1.5445,-1.5493,-1.573,-1.6292,-1.6796,-1.6835,-1.7483,-1.8403,-1.9704,-1.994,-2.0402,-2.1553,0.0,0.0,0.0,0.0,0.0,0.0,-2.1696,-2.1696,0.0,0.0,0.0,0.0,0.0,-2.1521,-2.1678,-2.1696,-2.2122,-2.3008,-2.2201,-2.3139,-2.5819,-2.6704,-2.7149,-2.7224,-2.8253,-2.87,-2.8758,-2.9768,-3.0216,-3.0216,-3.0216,-3.0216,-3.0216,-3.0216,-3.0216,-3.0216,-3.0216,-3.0216,-3.0216,0.0,0.0,-0.6873,-0.7131,-0.7446,-0.7709,-0.7962,-0.8222,-0.8377,-0.8377,-0.8377,-0.8336,-0.8228,-0.8214,-0.8365,-0.8737,-0.8531,-0.892,-1.0243,-1.0337,-1.117,-1.3022,-1.3071,-1.3463,-1.4292,-1.4298,-1.4298,-1.4298,-1.4298,-1.4298,-1.4298,-1.4298,-1.4298,-1.4298,-1.4298,-1.4298,-1.4298,-1.4298,-1.4298,-1.4298,-1.4298,-1.4298,-1.4298,-1.4298,-1.4346,-1.4394,-1.4346,-1.4346,-1.4394,-1.4394,-1.4394,-1.4394,-1.4496,-1.4442,-1.4442,-1.4742,-1.464,-1.449,-1.449,-1.464,-1.4742,-1.4544,-1.449,-1.4592,-1.5077,-1.5029,-1.5022,-1.5493,-1.5547,-1.573,-1.6452,-1.7382,-1.8403,-1.9704,-2.0546,-2.1203,-2.1642,-2.1696,0.0,0.0,-2.1696,-2.1696,-2.1696,-2.1696,-2.1696,0.0,0.0,0.0,0.0,-2.164,-2.164,-2.1687,-2.1696,-2.182,-2.2033,-2.2501,-2.378,-2.5777,-2.6038,-2.6528,-2.7224,-2.8253,-2.87,-2.8758,-2.9768,-3.0216,-3.0216,-3.0216,-3.0216,-3.0216,-3.0216,-3.0216,-3.0216,-3.0216,-3.0216,-3.0216,-0.6703,-0.6757,-0.6907,-0.7165,-0.7326,-0.7487,-0.775,-0.8065,-0.8272,-0.8272,-0.843,-0.8452,-0.8377,-0.8367,-0.8306,-0.816,-0.8029,-0.8432,-0.9509,-0.9608,-1.0534,-1.263,-1.2678,-1.3216,-1.4298,-1.4298,-1.4298,-1.4298,-1.4298,-1.4298,-1.4298,-1.4298,-1.4298,-1.4298,-1.4298,-1.4298,-1.4298,-1.4298,-1.4298,-1.4298,-1.4298,-1.4298,-1.4298,-1.4298,-1.4298,-1.4298,-1.4298,-1.4298,-1.4298,-1.4298,-1.4298,-1.4298,-1.4298,-1.4298,-1.4346,-1.4496,-1.4394,-1.4298,-1.4298,-1.4394,-1.449,-1.4346,-1.4298,-1.4394,-1.4838,-1.479,-1.4831,-1.5213,-1.5124,-1.507,-1.5568,-1.6492,-1.7561,-1.8726,-1.994,-2.0916,-2.1472,-2.1651,0.0,-2.1696,-2.1696,-2.1696,-2.1696,-2.1696,-2.1696,-2.1696,0.0,0.0,-2.1696,-2.1696,-2.1696,-2.1696,-2.1696,-2.1909,-2.2334,-2.328,-2.4221,-2.52,-2.561,-2.631,-2.7224,-2.8253,-2.87,-2.8758,-2.9768,-3.0216,-3.0216,-3.0216,-3.0216,-3.0216,-3.0216,-3.0216,-3.0216,-3.0216,-3.0216,-3.0216,-0.6831,-0.6842,-0.6909,-0.7169,-0.7222,-0.7331,-0.7549,-0.7812,-0.8021,-0.8021,-0.8233,-0.8434,-0.8414,-0.8464,-0.8396,-0.8231,-0.8099,-0.8407,-0.9316,-0.9361,-1.0243,-1.2145,-1.2242,-1.2829,-1.4052,-1.4202,-1.4298,-1.4298,-1.4298,-1.4298,-1.4298,-1.4298,-1.4298,-1.4298,-1.4298,-1.4298,-1.4298,-1.4298,-1.4298,-1.4298,-1.4298,-1.4298,-1.4298,-1.4298,-1.4298,-1.4298,-1.4298,-1.4298,-1.4298,-1.4298,-1.4298,-1.4298,-1.4298,-1.4298,-1.4298,-1.4298,-1.4298,-1.4298,-1.4298,-1.4298,-1.4298,-1.4298,-1.4298,-1.4394,-1.464,-1.4688,-1.4742,-1.4987,-1.4838,-1.464,-1.464,-1.5609,-1.6626,-1.7375,-1.8956,-2.0357,-2.1105,0.0,-2.1696,-2.1696,-2.1696,-2.1696,-2.1696,-2.1696,-2.1696,-2.1696,-2.1696,-2.1696,0.0,-2.1696,-2.1696,-2.1696,-2.1696,-2.2157,-2.3096,-2.3887,-2.436,-2.4498,-2.5242,-2.6091,-2.7008,-2.8029,-2.8571,-2.8758,-2.9768,-3.0216,-3.0216,-3.0216,-3.0216,-3.0216,-3.0216,-3.0216,-3.0216,-3.0216,-3.0216,-3.0216,-0.6956,-0.7035,-0.7155,-0.721,-0.7378,-0.7546,-0.7604,-0.7819,-0.7984,-0.7984,-0.8039,-0.8047,-0.7929,-0.8138,-0.8196,-0.7923,-0.8092,-0.8228,-0.8244,-0.8237,-0.8775,-1.0047,-1.0096,-1.0974,-1.2926,-1.3854,-1.4298,-1.4298,-1.4298,-1.4298,-1.4298,-1.4298,-1.4298,-1.4298,-1.4298,-1.4298,-1.4298,-1.4298,-1.4298,-1.4298,-1.4298,-1.4298,-1.4298,-1.4298,-1.4298,-1.4298,-1.4298,-1.4298,-1.4298,-1.4298,-1.4298,-1.4298,-1.4298,-1.4298,-1.4298,-1.4298,-1.4298,-1.4298,-1.4298,-1.4298,-1.4298,-1.4298,-1.4298,-1.4394,-1.464,-1.4538,-1.4448,-1.4694,-1.4544,-1.4346,-1.4346,-1.5893,-1.7008,-1.672,-1.8993,-2.0763,-2.0484,0.0,-2.1696,-2.1696,-2.1696,-2.1696,-2.1696,-2.1696,-2.1696,-2.1696,-2.1696,-2.1696,-2.1696,-2.1696,-2.1696,-2.1696,-2.1696,-2.2157,-2.3096,-2.3226,-2.3714,-2.4498,-2.4627,-2.5168,-2.603,-2.7105,-2.7995,-2.8758,-2.9768,-3.0216,-3.0216,-3.0216,-3.0216,-3.0216,-3.0216,-3.0216,-3.0216,-3.0216,-3.0216,-3.0216,-0.713,-0.7174,-0.721,-0.721,-0.7324,-0.7379,-0.7379,-0.7604,-0.7771,-0.7771,-0.7934,-0.7965,-0.7901,-0.8063,-0.8036,-0.783,-0.7854,-0.7859,-0.7664,-0.7882,-0.8482,-0.9558,-0.9608,-1.0583,-1.263,-1.3167,-1.3709,-1.4298,-1.4298,-1.4298,-1.4298,-1.4298,-1.4298,-1.4298,-1.4298,-1.4298,-1.4298,-1.4298,-1.4298,-1.4298,-1.4298,-1.4298,-1.4298,-1.4298,-1.4298,-1.4298,-1.4298,-1.4298,-1.4298,-1.4298,-1.4298,-1.4298,-1.4298,-1.4298,-1.4298,-1.4298,-1.4298,-1.4298,-1.4298,-1.4298,-1.4298,-1.4298,-1.4298,-1.4346,-1.4442,-1.4394,-1.4346,-1.4442,-1.4394,-1.4298,-1.4298,-1.5609,-1.6774,-1.6915,-1.891,0.0,0.0,-2.1186,-2.1651,-2.1571,-2.1651,-2.1696,-2.1696,-2.1696,-2.1696,-2.1696,-2.1696,-2.1696,-2.1696,-2.1696,-2.1696,-2.1696,-2.1696,-2.1909,-2.2334,-2.2325,-2.2809,-2.3757,-2.3757,-2.4221,-2.5147,-2.6082,-2.6763,-2.7172,-2.8139,-2.8598,-2.8598,-2.8598,-2.8598,-2.8656,-2.9187,-2.9371,-2.9463,-2.9977,-3.0216,-3.0216,-0.721,-0.721,-0.721,-0.721,-0.721,-0.721,-0.721,-0.7379,-0.7493,-0.7493,-0.766,-0.7823,-0.7823,-0.7878,-0.788,-0.7744,-0.7695,-0.7571,-0.7404,-0.7702,-0.8222,-0.9118,-0.941,-1.0342,-1.1945,-1.2436,-1.3119,-1.395,-1.4196,-1.4298,-1.4298,-1.4298,-1.4298,-1.4298,-1.4298,-1.4298,-1.4298,-1.4298,-1.4298,-1.4298,-1.4298,-1.4298,-1.4298,-1.4298,-1.4298,-1.4298,-1.4298,-1.4298,-1.4298,-1.4298,-1.4298,-1.4298,-1.4298,-1.4298,-1.4298,-1.4298,-1.4298,-1.4298,-1.4298,-1.4298,-1.4298,-1.4298,-1.4298,-1.4298,-1.4298,-1.4298,-1.4298,-1.4298,-1.4298,-1.4298,-1.4298,-1.5276,-1.6257,-1.664,0.0,0.0,0.0,-2.0772,-2.1329,-2.1392,-2.1526,-2.1607,-2.1607,-2.1607,-2.1607,-2.1607,-2.1651,-2.1696,-2.1696,-2.1696,-2.1696,-2.1696,-2.1696,-2.1696,-2.1696,-2.1696,-2.2078,-2.2755,-2.2755,-2.3339,-2.4339,-2.5149,-2.5638,-2.5974,-2.6827,-2.7189,-2.7237,-2.7426,-2.7568,-2.7662,-2.8667,-2.9048,-2.9141,-2.9943,-3.0216,-3.0216,-0.721,-0.721,-0.721,-0.721,-0.721,-0.721,-0.721,-0.721,-0.721,-0.721,-0.7265,-0.7265,-0.7265,-0.7493,-0.7555,-0.7422,-0.7669,-0.7665,-0.741,-0.7434,-0.7525,-0.7749,-0.8924,-0.9657,-0.9801,-1.1702,-1.2732,-1.2829,-1.3806,-1.4298,-1.4298,-1.4298,-1.4298,-1.4298,-1.4298,-1.4298,-1.4298,-1.4298,-1.4298,-1.4298,-1.4298,-1.4298,-1.4298,-1.4298,-1.4298,-1.4298,-1.4298,-1.4298,-1.4298,-1.4298,-1.4298,-1.4298,-1.4298,-1.4298,-1.4298,-1.4298,-1.4298,-1.4298,-1.4298,-1.4298,-1.4298,-1.4298,-1.4298,-1.4298,-1.4298,-1.4298,-1.4298,-1.4298,-1.4298,-1.4298,-1.4298,-1.514,-1.5609,-1.4968,0.0,0.0,-1.8172,-1.9239,-2.0357,-2.1302,-2.1392,-2.1446,-2.1446,-2.1446,-2.1446,-2.1446,-2.1607,-2.1696,-2.1696,-2.1696,-2.1696,-2.1696,-2.1696,-2.1696,-2.1696,-2.1696,-2.1731,-2.182,-2.182,-2.2497,-2.3775,-2.4326,-2.5247,-2.6393,-2.6972,-2.7189,-2.7284,-2.82,-2.8585,-2.8678,-2.9703,-3.008,-3.008,-3.017,-3.0216,-3.0216,-0.721,-0.721,-0.721,-0.721,-0.721,-0.721,-0.721,-0.721,-0.721,-0.721,-0.721,-0.721,-0.721,-0.7268,-0.7304,-0.7257,-0.7296,-0.7265,-0.7172,-0.7015,-0.7026,-0.7347,-0.7832,-0.8421,-0.9106,-1.0043,-1.117,-1.2436,-1.3022,-1.3661,-1.4298,-1.4298,-1.4298,-1.4298,-1.4298,-1.4298,-1.4298,-1.4298,-1.4298,-1.4298,-1.4298,-1.4298,-1.4298,-1.4298,-1.4298,-1.4298,-1.4298,-1.4298,-1.4298,-1.4298,-1.4298,-1.4298,-1.4298,-1.4298,-1.4298,-1.4298,-1.4298,-1.4298,-1.4298,-1.4298,-1.4298,-1.4298,-1.4298,-1.4298,-1.4298,-1.4298,-1.4298,-1.4298,-1.4298,-1.4298,-1.4298,-1.4627,-1.5003,-1.5337,0.0,-1.6955,-1.7475,-1.878,-1.9758,-1.9994,-2.0682,-2.1141,-2.1141,-2.1293,-2.1392,-2.1392,-2.1616,-2.1696,-2.1696,-2.1696,-2.1696,-2.1696,-2.1696,-2.1696,-2.1696,-2.1696,-2.1696,-2.1696,-2.1696,-2.2122,-2.283,-2.3307,-2.39,-2.4641,-2.5112,-2.5343,-2.5392,-2.5771,-2.5916,-2.6013,-2.701,-2.7389,-2.7579,-2.8806,-2.9279,-2.9371,-0.721,-0.721,-0.721,-0.721,-0.721,-0.721,-0.721,-0.721,-0.721,-0.721,-0.721,-0.721,-0.721,-0.721,-0.721,-0.721,-0.7139,-0.7024,-0.6989,-0.6755,-0.6717,-0.7045,-0.7138,-0.7531,-0.8266,-0.8814,-0.9797,-1.1209,-1.2047,-1.2877,-1.3661,-1.401,-1.4202,-1.4298,-1.4298,-1.4298,-1.4298,-1.4298,-1.4298,-1.4298,-1.4298,-1.4298,-1.4298,-1.4298,-1.4298,-1.4298,-1.4298,-1.4298,-1.4298,-1.4298,-1.4298,-1.4298,-1.4298,-1.4298,-1.4298,-1.4298,-1.4298,-1.4298,-1.4298,-1.4298,-1.4298,-1.4298,-1.4298,-1.4298,-1.4298,-1.4298,-1.4298,-1.4298,-1.4298,-1.4298,-1.4298,-1.4298,-1.4532,-1.5235,-1.5466,-1.588,-1.6727,-1.7755,-1.8549,-1.8726,-1.9741,-2.0439,-2.0538,-2.0961,-2.1293,-2.1392,-2.1616,-2.1696,-2.1696,-2.1696,-2.1696,-2.1696,-2.1696,-2.1696,-2.1696,-2.1696,-2.1696,-2.1696,-2.1696,-2.197,-2.2492,-2.2776,-2.3197,-2.3749,-2.4082,-2.4202,-2.4202,-2.4538,-2.4686,-2.4784,-2.5781,-2.6167,-2.635,-2.772,-2.8247,-2.8387,-0.721,-0.721,-0.721,-0.721,-0.721,-0.721,-0.721,-0.721,-0.721,-0.721,-0.721,-0.721,-0.721,-0.721,-0.721,-0.721,-0.721,-0.7161,-0.6991,-0.6755,-0.6669,-0.6801,-0.7042,-0.7188,-0.7188,-0.8216,-0.8806,-0.8806,-1.0921,-1.2096,-1.229,-1.3383,-1.4022,-1.425,-1.425,-1.425,-1.4292,-1.4292,-1.4298,-1.4298,-1.4298,-1.4298,-1.4298,-1.4298,-1.4298,-1.4298,-1.4298,-1.4298,-1.4298,-1.4298,-1.4298,-1.4298,-1.4298,-1.4298,-1.4298,-1.4298,-1.4298,-1.4298,-1.4298,-1.4298,-1.4298,-1.4298,-1.4298,-1.4298,-1.4298,-1.4298,-1.4298,-1.4298,-1.4298,-1.4298,-1.4298,-1.4298,-1.4298,-1.4298,-1.4298,-1.4675,-1.5656,-1.6021,-1.6579,-1.7561,-1.8588,-1.9293,-1.9484,-2.0402,-2.1096,-2.1392,-2.1616,-2.1696,-2.1696,-2.1696,-2.1696,-2.1696,-2.1696,-2.1696,-2.1696,-2.1696,-2.1696,-2.1696,-2.1696,-2.2117,-2.2904,-2.2913,-2.34,-2.4202,-2.4202,-2.4202,-2.4301,-2.5265,-2.5693,-2.579,-2.6809,-2.7189,-2.7189,-2.7189,-2.7189,-2.7332,-0.721,-0.721,-0.721,-0.721,-0.721,-0.721,-0.721,-0.721,-0.721,-0.721,-0.721,-0.721,-0.721,-0.721,-0.721,-0.721,-0.721,-0.7161,-0.6991,-0.6836,-0.6692,-0.6675,-0.6634,-0.6637,-0.6637,-0.7135,-0.7776,-0.8513,-0.9345,-1.0177,-1.096,-1.1307,-1.1502,-1.1541,-1.1541,-1.2037,-1.2877,-1.2877,-1.3414,-1.4298,-1.4298,-1.4298,-1.4298,-1.4298,-1.4298,-1.4298,-1.4298,-1.4298,-1.4298,-1.4298,-1.4298,-1.4298,-1.4298,-1.4298,-1.4298,-1.4298,-1.4298,-1.4298,-1.4298,-1.4298,-1.4298,-1.4298,-1.4298,-1.4298,-1.4298,-1.4298,-1.4298,-1.4298,-1.4298,-1.4298,-1.4298,-1.4298,-1.4298,-1.4298,-1.4298,-1.4388,-1.4723,-1.5419,-1.6028,-1.6311,-1.7902,-1.8926,-1.9018,-2.0212,-2.1042,-2.1096,-2.1463,-2.1696,-2.1696,-2.1696,-2.1696,-2.1696,-2.1696,-2.1696,-2.1696,-2.1696,-2.1696,-2.1696,-2.197,-2.2382,-2.2922,-2.3197,-2.3648,-2.4202,-2.4202,-2.4202,-2.4202,-2.4538,-2.4637,-2.4686,-2.4962,-2.5099,-2.5197,-2.5877,-2.6157,-2.6302,-0.721,-0.721,-0.721,-0.721,-0.721,-0.721,-0.721,-0.721,-0.721,-0.721,-0.721,-0.721,-0.721,-0.721,-0.721,-0.721,-0.721,-0.7161,-0.6991,-0.6915,-0.6798,-0.6627,-0.6497,-0.6435,-0.6387,-0.6539,-0.6936,-0.7624,-0.8216,-0.8852,-0.9637,-1.0034,-1.0275,-1.0418,-1.0418,-1.0912,-1.1707,-1.1707,-1.2242,-1.3076,-1.3076,-1.3318,-1.3613,-1.3221,-1.3559,-1.4244,-1.3806,-1.3956,-1.4298,-1.4298,-1.4298,-1.4298,-1.4298,-1.4298,-1.4298,-1.4298,-1.4298,-1.4298,-1.4298,-1.4298,-1.4298,-1.4298,-1.4298,-1.4298,-1.4298,-1.4298,-1.4298,-1.4298,-1.4298,-1.4298,-1.4298,-1.4298,-1.4298,-1.4298,-1.4298,-1.4298,-1.4298,-1.4813,-1.5188,-1.5188,-1.664,-1.7662,-1.7755,-1.9376,-2.0628,-2.1221,-2.1553,-2.1696,-2.1696,-2.1607,-2.1607,-2.1696,-2.1607,-2.1607,-2.1696,-2.1696,-2.1696,-2.1696,-2.2089,-2.2501,-2.2922,-2.3316,-2.3767,-2.4202,-2.4202,-2.4202,-2.4202,-2.4202,-2.4202,-2.4202,-2.4202,-2.444,-2.4833,-2.502,-2.5596,-2.6398,-0.721,-0.721,-0.721,-0.721,-0.721,-0.721,-0.721,-0.721,-0.721,-0.721,-0.721,-0.721,-0.721,-0.721,-0.721,-0.721,-0.721,-0.7166,-0.7008,-0.6991,-0.688,-0.6646,-0.6624,-0.6562,-0.6389,-0.6387,-0.6387,-0.6387,-0.7378,-0.7971,-0.8266,-0.9205,-0.9792,-1.0026,-1.0026,-1.0226,-1.0583,-1.0632,-1.0828,-1.117,-1.117,-1.1755,-1.2484,-1.156,-1.2393,-1.3902,-1.2926,-1.3264,-1.4148,-1.425,-1.4298,-1.4298,-1.4298,-1.4298,-1.4298,-1.4298,-1.4298,-1.4298,-1.4298,-1.4298,-1.4298,-1.4298,-1.4298,-1.4298,-1.4298,-1.4298,-1.4298,-1.4298,-1.4298,-1.4298,-1.4298,-1.4298,-1.4298,-1.4298,-1.4298,-1.4298,-1.4298,-1.4298,-1.4298,-1.4298,-1.5188,-1.5886,-1.6163,-1.8172,-2.0031,-2.1419,-2.1597,-2.1642,-2.1642,-2.1472,-2.1428,-2.1642,-2.1482,-2.1482,-2.1651,-2.1723,-2.1751,-2.1751,-2.2144,-2.2556,-2.2968,-2.337,-2.3804,-2.4202,-2.4202,-2.4202,-2.4202,-2.4202,-2.4202,-2.4202,-2.4202,-2.4775,-2.545,-2.4637,-2.5489,-2.7094,-0.721,-0.721,-0.721,-0.721,-0.721,-0.721,-0.721,-0.721,-0.721,-0.721,-0.721,-0.721,-0.721,-0.721,-0.721,-0.721,-0.721,-0.7199,-0.7174,-0.7035,-0.6918,-0.6768,-0.6671,-0.6562,-0.6389,-0.6387,-0.6387,-0.6387,-0.6634,-0.6783,-0.683,-0.708,-0.7226,-0.7273,-0.7273,-0.7869,-0.8958,-0.9152,-0.9891,-1.0925,-1.1121,-1.1317,-1.1512,-1.1268,-1.1463,-1.1853,-1.1609,-1.2193,-1.3167,-1.4004,-1.4298,-1.4298,-1.4298,-1.4298,-1.4298,-1.4298,-1.4298,-1.4298,-1.4298,-1.4298,-1.4298,-1.4298,-1.4298,-1.4298,-1.4298,-1.4298,-1.4298,-1.4298,-1.4298,-1.4298,-1.4298,-1.4298,-1.4298,-1.4298,-1.4298,-1.4298,-1.4298,-1.4298,-1.4298,-1.4298,-1.5188,-1.5846,-1.5886,-1.794,-1.9476,-1.9948,-2.0718,-2.1132,-2.1132,-2.1087,-2.1087,-2.1132,-2.1087,-2.1195,-2.1482,-2.1789,-2.2026,-2.2153,-2.2574,-2.2977,-2.338,-2.384,-2.4119,-2.4202,-2.4202,-2.4202,-2.4202,-2.4202,-2.4202,-2.4202,-2.4202,-2.435,-2.4587,-2.5167,-2.5645,-2.6254,-0.721,-0.721,-0.721,-0.721,-0.721,-0.721,-0.721,-0.721,-0.721,-0.721,-0.721,-0.721,-0.721,-0.721,-0.721,-0.721,-0.721,-0.721,-0.721,-0.7155,-0.6986,-0.6809,-0.6741,-0.6622,-0.6389,-0.6387,-0.6387,-0.6387,-0.6387,-0.6387,-0.6387,-0.6387,-0.6387,-0.6387,-0.6387,-0.6883,-0.763,-0.7925,-0.852,-0.9316,-0.9558,-0.9998,-1.0391,-0.985,-1.0293,-1.1121,-1.0632,-1.1414,-1.278,-1.3366,-1.3859,-1.4298,-1.4298,-1.4298,-1.4298,-1.4298,-1.4298,-1.4298,-1.4298,-1.4298,-1.4298,-1.4298,-1.4298,-1.4298,-1.4298,-1.4298,-1.4298,-1.4298,-1.4298,-1.4298,-1.4298,-1.4298,-1.4298,-1.4298,-1.4298,-1.4298,-1.4298,-1.4298,-1.4298,-1.4298,-1.4765,-1.533,-1.5934,-1.7048,-1.8033,-1.8734,-1.9704,-2.0257,-2.0257,-2.0637,-2.0916,-2.0997,-2.0907,-2.1015,-2.1392,-2.178,-2.2207,-2.2584,-2.2995,-2.3297,-2.3508,-2.3969,-2.4202,-2.4202,-2.4202,-2.4202,-2.4202,-2.4202,-2.4202,-2.4202,-2.4202,-2.4489,-2.4922,-2.4971,-2.5586,-2.6628,-0.721,-0.721,-0.721,-0.721,-0.721,-0.721,-0.721,-0.721,-0.721,-0.721,-0.721,-0.721,-0.721,-0.721,-0.721,-0.721,-0.721,-0.7202,-0.7182,-0.718,-0.7018,-0.6782,-0.6771,-0.6665,-0.6389,-0.6387,-0.6387,-0.6387,-0.6387,-0.6387,-0.6387,-0.6387,-0.6387,-0.6387,-0.6387,-0.6539,-0.6742,-0.7039,-0.7241,-0.7497,-0.7739,-0.8428,-0.9167,-0.8283,-0.9069,-1.0538,-0.9657,-1.0534,-1.2193,-1.2387,-1.3167,-1.4052,-1.4052,-1.4148,-1.4298,-1.4298,-1.4298,-1.4298,-1.4298,-1.4298,-1.4298,-1.4298,-1.4298,-1.4298,-1.4298,-1.4298,-1.4298,-1.4298,-1.4298,-1.4298,-1.4298,-1.4298,-1.4298,-1.4298,-1.4298,-1.4298,-1.4298,-1.4298,-1.4298,-1.4298,-1.4298,-1.4717,-1.5785,-1.6021,-1.6532,-1.7569,-1.8688,-1.9392,-1.9392,-2.0184,-2.069,-2.0862,-2.0736,-2.087,-2.1446,-2.1833,-2.2369,-2.3014,-2.3407,-2.3599,-2.3608,-2.3996,-2.4202,-2.4202,-2.4202,-2.4202,-2.4202,-2.4202,-2.4202,-2.4202,-2.4202,-2.4735,-2.5353,-2.4686,-2.5625,-2.7332,-0.721,-0.721,-0.721,-0.721,-0.721,-0.721,-0.721,-0.721,-0.721,-0.721,-0.721,-0.721,-0.721,-0.721,-0.721,-0.721,-0.721,-0.7166,-0.7016,-0.7008,-0.6899,-0.6654,-0.6643,-0.6578,-0.6389,-0.6387,-0.6387,-0.6387,-0.6387,-0.6387,-0.6387,-0.6387,-0.6387,-0.6387,-0.6387,-0.6437,-0.6487,-0.6742,-0.6895,-0.6945,-0.7188,-0.7537,-0.7842,-0.7693,-0.7992,-0.8432,-0.8283,-0.897,-1.0145,-1.1072,-1.2096,-1.2926,-1.2926,-1.3565,-1.4298,-1.4298,-1.4298,-1.4298,-1.4298,-1.4298,-1.4298,-1.4298,-1.4298,-1.4298,-1.4298,-1.4298,-1.4298,-1.4298,-1.4298,-1.4298,-1.4298,-1.4298,-1.4298,-1.4298,-1.4298,-1.4298,-1.4298,-1.4298,-1.4298,-1.4298,-1.4298,-1.4388,-1.4532,-1.5324,-1.5934,-1.6075,-1.7855,-1.888,-1.888,-1.982,-2.0382,-2.0382,-2.0382,-2.0765,-2.1566,-2.1948,-2.2577,-2.3416,-2.3877,-2.4119,-2.4119,-2.4174,-2.4202,-2.4202,-2.4202,-2.4202,-2.4202,-2.4202,-2.4202,-2.4202,-2.4202,-2.4301,-2.4489,-2.5216,-2.6205,-2.7237,-0.721,-0.721,-0.721,-0.721,-0.721,-0.721,-0.721,-0.721,-0.721,-0.721,-0.721,-0.721,-0.721,-0.721,-0.721,-0.721,-0.7152,-0.7037,-0.6989,-0.6921,-0.6804,-0.6627,-0.6619,-0.6562,-0.6389,-0.6387,-0.6387,-0.6387,-0.6387,-0.6387,-0.6387,-0.6387,-0.6387,-0.6387,-0.6387,-0.6387,-0.6437,-0.6692,-0.6795,-0.6842,-0.7089,-0.7288,-0.7391,-0.7391,-0.7441,-0.754,-0.754,-0.8226,-0.9205,-0.9694,-1.0569,-1.1497,-1.2145,-1.2635,-1.3178,-1.3871,-1.407,-1.4118,-1.425,-1.4298,-1.4298,-1.4298,-1.4298,-1.4298,-1.4298,-1.4298,-1.4298,-1.4298,-1.4298,-1.4298,-1.4298,-1.4298,-1.4298,-1.4298,-1.4298,-1.4298,-1.4298,-1.4298,-1.4298,-1.4298,-1.4298,-1.4298,-1.4298,-1.4717,-1.5188,-1.5751,-1.7149,-1.8234,-1.8788,-1.9729,-2.0292,-2.0292,-2.0292,-2.0654,-2.1368,-2.1793,-2.2419,-2.3305,-2.3754,-2.4053,-2.4202,-2.4202,-2.4202,-2.4202,-2.4202,-2.4202,-2.4202,-2.4202,-2.4202,-2.4202,-2.4202,-2.4202,-2.4251,-2.4686,-2.5489,-2.635]}]]